Wetterdaten: Dienstag, 07.11.2017
Datum Zeit Temp. A. Pool Temp. Feuchte A. Luftdruck Regen Wind Richtung Richtung Sonnenschein ET UV Solar Taupunkt Windchill Windben Empfang
07.11.2017 00:00 3,6 C 7,2 C 97 % 1021,8 hPa 0,0 l/m 4,5 km/h (1 Bft) SW 214 0 min 0,000 mm 0,0 UV-I 0 W/m 3,2 C 3,6 C 8,0 km/h (2 Bft) 100,00 %
07.11.2017 00:02 3,6 C 7,2 C 97 % 1021,8 hPa 0,0 l/m 4,7 km/h (1 Bft) S-SW 194 0 min 0,000 mm 0,0 UV-I 0 W/m 3,2 C 3,6 C 9,7 km/h (2 Bft) 100,00 %
07.11.2017 00:04 3,6 C 7,2 C 97 % 1021,8 hPa 0,0 l/m 2,4 km/h (1 Bft) S-SW 194 0 min 0,000 mm 0,0 UV-I 0 W/m 3,2 C 3,6 C 4,8 km/h (1 Bft) 100,00 %
07.11.2017 00:06 3,6 C 7,2 C 97 % 1021,8 hPa 0,0 l/m 3,2 km/h (1 Bft) S-SW 196 0 min 0,000 mm 0,0 UV-I 0 W/m 3,2 C 3,6 C 4,8 km/h (1 Bft) 100,00 %
07.11.2017 00:08 3,6 C 7,2 C 97 % 1021,8 hPa 0,0 l/m 1,9 km/h (1 Bft) S-SW 196 0 min 0,000 mm 0,0 UV-I 0 W/m 3,2 C 3,6 C 3,2 km/h (1 Bft) 100,00 %
07.11.2017 00:10 3,6 C 7,2 C 97 % 1021,8 hPa 0,0 l/m 1,2 km/h (1 Bft) S-SW 196 0 min 0,000 mm 0,0 UV-I 0 W/m 3,2 C 3,6 C 3,2 km/h (1 Bft) 100,00 %
07.11.2017 00:12 3,6 C 7,2 C 97 % 1021,8 hPa 0,0 l/m 0,9 km/h (0 Bft) S-SW 196 0 min 0,000 mm 0,0 UV-I 0 W/m 3,2 C 3,6 C 3,2 km/h (1 Bft) 100,00 %
07.11.2017 00:14 3,6 C 7,2 C 97 % 1021,8 hPa 0,0 l/m 3,0 km/h (1 Bft) S 190 0 min 0,000 mm 0,0 UV-I 0 W/m 3,2 C 3,6 C 6,4 km/h (2 Bft) 100,00 %
07.11.2017 00:16 3,6 C 7,2 C 97 % 1021,8 hPa 0,0 l/m 4,4 km/h (1 Bft) S-SW 195 0 min 0,000 mm 0,0 UV-I 0 W/m 3,2 C 3,6 C 8,0 km/h (2 Bft) 100,00 %
07.11.2017 00:18 3,6 C 7,2 C 97 % 1021,7 hPa 0,0 l/m 4,7 km/h (1 Bft) S-SW 206 0 min 0,000 mm 0,0 UV-I 0 W/m 3,2 C 3,6 C 8,0 km/h (2 Bft) 100,00 %
07.11.2017 00:20 3,6 C 7,2 C 97 % 1021,8 hPa 0,0 l/m 1,7 km/h (1 Bft) S-SW 206 0 min 0,000 mm 0,0 UV-I 0 W/m 3,2 C 3,6 C 6,4 km/h (2 Bft) 100,00 %
07.11.2017 00:22 3,6 C 7,2 C 97 % 1021,8 hPa 0,0 l/m 1,8 km/h (1 Bft) S-SW 206 0 min 0,000 mm 0,0 UV-I 0 W/m 3,2 C 3,6 C 4,8 km/h (1 Bft) 97,87 %
07.11.2017 00:24 3,6 C 7,2 C 97 % 1021,7 hPa 0,0 l/m 1,7 km/h (1 Bft) S-SW 206 0 min 0,000 mm 0,0 UV-I 0 W/m 3,2 C 3,6 C 6,4 km/h (2 Bft) 100,00 %
07.11.2017 00:26 3,6 C 7,2 C 97 % 1021,7 hPa 0,0 l/m 2,3 km/h (1 Bft) S-SW 206 0 min 0,000 mm 0,0 UV-I 0 W/m 3,2 C 3,6 C 3,2 km/h (1 Bft) 97,56 %
07.11.2017 00:28 3,6 C 7,2 C 98 % 1021,7 hPa 0,0 l/m 1,9 km/h (1 Bft) S-SW 206 0 min 0,000 mm 0,0 UV-I 0 W/m 3,3 C 3,6 C 3,2 km/h (1 Bft) 100,00 %
07.11.2017 00:30 3,7 C 7,2 C 98 % 1021,7 hPa 0,0 l/m 1,4 km/h (1 Bft) S-SW 206 0 min 0,000 mm 0,0 UV-I 0 W/m 3,4 C 3,7 C 4,8 km/h (1 Bft) 100,00 %
07.11.2017 00:32 3,7 C 7,2 C 97 % 1021,7 hPa 0,0 l/m 0,6 km/h (0 Bft) S-SW 206 0 min 0,000 mm 0,0 UV-I 0 W/m 3,3 C 3,7 C 3,2 km/h (1 Bft) 98,11 %
07.11.2017 00:34 3,7 C 7,2 C 97 % 1021,6 hPa 0,0 l/m 0,9 km/h (0 Bft) S-SW 206 0 min 0,000 mm 0,0 UV-I 0 W/m 3,3 C 3,7 C 3,2 km/h (1 Bft) 100,00 %
07.11.2017 00:36 3,7 C 7,2 C 97 % 1021,6 hPa 0,0 l/m 1,8 km/h (1 Bft) S-SW 206 0 min 0,000 mm 0,0 UV-I 0 W/m 3,3 C 3,7 C 3,2 km/h (1 Bft) 100,00 %
07.11.2017 00:38 3,7 C 7,2 C 97 % 1021,5 hPa 0,0 l/m 1,7 km/h (1 Bft) S-SW 206 0 min 0,000 mm 0,0 UV-I 0 W/m 3,3 C 3,7 C 3,2 km/h (1 Bft) 100,00 %
07.11.2017 00:40 3,7 C 7,2 C 97 % 1021,5 hPa 0,0 l/m 1,1 km/h (1 Bft) S-SW 206 0 min 0,000 mm 0,0 UV-I 0 W/m 3,3 C 3,7 C 3,2 km/h (1 Bft) 100,00 %
07.11.2017 00:42 3,7 C 7,2 C 97 % 1021,5 hPa 0,0 l/m 1,0 km/h (0 Bft) S-SW 206 0 min 0,000 mm 0,0 UV-I 0 W/m 3,3 C 3,7 C 3,2 km/h (1 Bft) 100,00 %
07.11.2017 00:44 3,7 C 7,2 C 97 % 1021,5 hPa 0,0 l/m 0,0 km/h (0 Bft) S-SW 206 0 min 0,000 mm 0,0 UV-I 0 W/m 3,3 C 3,7 C 1,6 km/h (1 Bft) 100,00 %
07.11.2017 00:46 3,7 C 7,2 C 97 % 1021,4 hPa 0,0 l/m 0,0 km/h (0 Bft) S-SW 206 0 min 0,000 mm 0,0 UV-I 0 W/m 3,3 C 3,7 C 0,0 km/h (0 Bft) 100,00 %
07.11.2017 00:48 3,7 C 7,2 C 97 % 1021,4 hPa 0,0 l/m 0,0 km/h (0 Bft) S-SW 206 0 min 0,000 mm 0,0 UV-I 0 W/m 3,3 C 3,7 C 0,0 km/h (0 Bft) 97,37 %
07.11.2017 00:50 3,7 C 7,2 C 97 % 1021,4 hPa 0,0 l/m 0,0 km/h (0 Bft) S-SW 206 0 min 0,000 mm 0,0 UV-I 0 W/m 3,3 C 3,7 C 0,0 km/h (0 Bft) 100,00 %
07.11.2017 00:52 3,7 C 7,2 C 98 % 1021,4 hPa 0,0 l/m 0,0 km/h (0 Bft) S-SW 206 0 min 0,000 mm 0,0 UV-I 0 W/m 3,4 C 3,7 C 0,0 km/h (0 Bft) 97,87 %
07.11.2017 00:54 3,8 C 7,2 C 98 % 1021,4 hPa 0,0 l/m 0,0 km/h (0 Bft) S-SW 206 0 min 0,000 mm 0,0 UV-I 0 W/m 3,5 C 3,8 C 0,0 km/h (0 Bft) 100,00 %
07.11.2017 00:56 3,8 C 7,2 C 98 % 1021,4 hPa 0,0 l/m 0,0 km/h (0 Bft) S-SW 206 0 min 0,000 mm 0,0 UV-I 0 W/m 3,5 C 3,8 C 0,0 km/h (0 Bft) 100,00 %
07.11.2017 00:58 3,8 C 7,2 C 98 % 1021,4 hPa 0,0 l/m 0,0 km/h (0 Bft) S-SW 206 0 min 0,000 mm 0,0 UV-I 0 W/m 3,5 C 3,8 C 0,0 km/h (0 Bft) 100,00 %
07.11.2017 01:00 3,8 C 7,2 C 98 % 1021,4 hPa 0,0 l/m 0,0 km/h (0 Bft) S-SW 206 0 min 0,000 mm 0,0 UV-I 0 W/m 3,5 C 3,8 C 0,0 km/h (0 Bft) 97,37 %
07.11.2017 01:02 3,8 C 7,2 C 98 % 1021,4 hPa 0,0 l/m 0,0 km/h (0 Bft) S-SW 206 0 min 0,000 mm 0,0 UV-I 0 W/m 3,5 C 3,8 C 0,0 km/h (0 Bft) 98,11 %
07.11.2017 01:04 3,8 C 7,2 C 98 % 1021,4 hPa 0,0 l/m 1,0 km/h (0 Bft) S-SW 206 0 min 0,000 mm 0,0 UV-I 0 W/m 3,5 C 3,8 C 3,2 km/h (1 Bft) 97,87 %
07.11.2017 01:06 3,8 C 7,2 C 98 % 1021,4 hPa 0,0 l/m 1,8 km/h (1 Bft) S-SW 206 0 min 0,000 mm 0,0 UV-I 0 W/m 3,5 C 3,8 C 3,2 km/h (1 Bft) 95,74 %
07.11.2017 01:08 3,8 C 7,2 C 98 % 1021,4 hPa 0,0 l/m 0,4 km/h (0 Bft) S-SW 206 0 min 0,000 mm 0,0 UV-I 0 W/m 3,5 C 3,8 C 1,6 km/h (1 Bft) 97,87 %
07.11.2017 01:10 3,8 C 7,2 C 98 % 1021,4 hPa 0,0 l/m 0,9 km/h (0 Bft) S-SW 206 0 min 0,000 mm 0,0 UV-I 0 W/m 3,5 C 3,8 C 3,2 km/h (1 Bft) 98,00 %
07.11.2017 01:12 3,8 C 7,2 C 98 % 1021,4 hPa 0,0 l/m 0,4 km/h (0 Bft) S-SW 206 0 min 0,000 mm 0,0 UV-I 0 W/m 3,5 C 3,8 C 1,6 km/h (1 Bft) 97,56 %
07.11.2017 01:14 3,8 C 7,2 C 98 % 1021,4 hPa 0,0 l/m 0,0 km/h (0 Bft) S-SW 206 0 min 0,000 mm 0,0 UV-I 0 W/m 3,5 C 3,8 C 0,0 km/h (0 Bft) 97,87 %
07.11.2017 01:16 3,8 C 7,2 C 98 % 1021,4 hPa 0,0 l/m 0,0 km/h (0 Bft) S-SW 206 0 min 0,000 mm 0,0 UV-I 0 W/m 3,5 C 3,8 C 0,0 km/h (0 Bft) 97,87 %
07.11.2017 01:18 3,8 C 7,2 C 98 % 1021,4 hPa 0,0 l/m 0,0 km/h (0 Bft) S-SW 206 0 min 0,000 mm 0,0 UV-I 0 W/m 3,5 C 3,8 C 0,0 km/h (0 Bft) 97,44 %
07.11.2017 01:20 3,8 C 7,2 C 98 % 1021,4 hPa 0,0 l/m 0,0 km/h (0 Bft) S-SW 206 0 min 0,000 mm 0,0 UV-I 0 W/m 3,5 C 3,8 C 0,0 km/h (0 Bft) 98,00 %
07.11.2017 01:22 3,7 C 7,2 C 98 % 1021,4 hPa 0,0 l/m 0,0 km/h (0 Bft) S-SW 206 0 min 0,000 mm 0,0 UV-I 0 W/m 3,4 C 3,7 C 0,0 km/h (0 Bft) 94,34 %
07.11.2017 01:24 3,7 C 7,2 C 98 % 1021,4 hPa 0,0 l/m 0,0 km/h (0 Bft) S-SW 206 0 min 0,000 mm 0,0 UV-I 0 W/m 3,4 C 3,7 C 0,0 km/h (0 Bft) 98,00 %
07.11.2017 01:26 3,7 C 7,2 C 98 % 1021,4 hPa 0,0 l/m 0,0 km/h (0 Bft) S-SW 206 0 min 0,000 mm 0,0 UV-I 0 W/m 3,4 C 3,7 C 0,0 km/h (0 Bft) 95,74 %
07.11.2017 01:28 3,8 C 7,2 C 98 % 1021,4 hPa 0,0 l/m 0,0 km/h (0 Bft) S-SW 206 0 min 0,000 mm 0,0 UV-I 0 W/m 3,5 C 3,8 C 1,6 km/h (1 Bft) 97,37 %
07.11.2017 01:30 3,8 C 7,2 C 98 % 1021,4 hPa 0,0 l/m 0,0 km/h (0 Bft) S-SW 206 0 min 0,000 mm 0,0 UV-I 0 W/m 3,5 C 3,8 C 0,0 km/h (0 Bft) 97,87 %
07.11.2017 01:32 3,8 C 7,2 C 98 % 1021,4 hPa 0,0 l/m 0,0 km/h (0 Bft) S-SW 206 0 min 0,000 mm 0,0 UV-I 0 W/m 3,5 C 3,8 C 0,0 km/h (0 Bft) 98,11 %
07.11.2017 01:34 3,8 C 7,2 C 98 % 1021,4 hPa 0,0 l/m 0,0 km/h (0 Bft) S-SW 206 0 min 0,000 mm 0,0 UV-I 0 W/m 3,5 C 3,8 C 0,0 km/h (0 Bft) 98,00 %
07.11.2017 01:36 3,8 C 7,2 C 98 % 1021,4 hPa 0,0 l/m 0,0 km/h (0 Bft) S-SW 206 0 min 0,000 mm 0,0 UV-I 0 W/m 3,5 C 3,8 C 0,0 km/h (0 Bft) 97,87 %
07.11.2017 01:38 3,8 C 7,2 C 98 % 1021,4 hPa 0,0 l/m 0,0 km/h (0 Bft) S-SW 206 0 min 0,000 mm 0,0 UV-I 0 W/m 3,5 C 3,8 C 0,0 km/h (0 Bft) 95,74 %
07.11.2017 01:40 3,8 C 7,2 C 98 % 1021,3 hPa 0,0 l/m 0,0 km/h (0 Bft) S-SW 206 0 min 0,000 mm 0,0 UV-I 0 W/m 3,5 C 3,8 C 0,0 km/h (0 Bft) 89,36 %
07.11.2017 01:42 3,8 C 7,2 C 98 % 1021,3 hPa 0,0 l/m 0,0 km/h (0 Bft) S-SW 206 0 min 0,000 mm 0,0 UV-I 0 W/m 3,5 C 3,8 C 0,0 km/h (0 Bft) 97,14 %
07.11.2017 01:44 3,9 C 7,2 C 98 % 1021,3 hPa 0,0 l/m 0,0 km/h (0 Bft) S-SW 206 0 min 0,000 mm 0,0 UV-I 0 W/m 3,6 C 3,9 C 0,0 km/h (0 Bft) 96,23 %
07.11.2017 01:46 3,9 C 7,2 C 98 % 1021,3 hPa 0,0 l/m 0,0 km/h (0 Bft) S-SW 206 0 min 0,000 mm 0,0 UV-I 0 W/m 3,6 C 3,9 C 0,0 km/h (0 Bft) 97,87 %
07.11.2017 01:48 3,9 C 7,2 C 98 % 1021,3 hPa 0,0 l/m 0,0 km/h (0 Bft) S-SW 206 0 min 0,000 mm 0,0 UV-I 0 W/m 3,6 C 3,9 C 0,0 km/h (0 Bft) 96,00 %
07.11.2017 01:50 3,8 C 7,2 C 98 % 1021,3 hPa 0,0 l/m 0,0 km/h (0 Bft) S-SW 206 0 min 0,000 mm 0,0 UV-I 0 W/m 3,5 C 3,8 C 0,0 km/h (0 Bft) 94,29 %
07.11.2017 01:52 3,9 C 7,2 C 98 % 1021,3 hPa 0,2 l/m 0,0 km/h (0 Bft) S-SW 206 0 min 0,000 mm 0,0 UV-I 0 W/m 3,6 C 3,9 C 0,0 km/h (0 Bft) 98,00 %
07.11.2017 01:54 3,9 C 7,2 C 98 % 1021,3 hPa 0,0 l/m 0,0 km/h (0 Bft) S-SW 206 0 min 0,000 mm 0,0 UV-I 0 W/m 3,6 C 3,9 C 0,0 km/h (0 Bft) 94,00 %
07.11.2017 01:56 3,9 C 7,2 C 98 % 1021,3 hPa 0,0 l/m 0,0 km/h (0 Bft) S-SW 206 0 min 0,000 mm 0,0 UV-I 0 W/m 3,6 C 3,9 C 0,0 km/h (0 Bft) 98,00 %
07.11.2017 01:58 3,9 C 7,2 C 98 % 1021,3 hPa 0,0 l/m 2,7 km/h (1 Bft) S-SW 206 0 min 0,000 mm 0,0 UV-I 0 W/m 3,6 C 3,9 C 4,8 km/h (1 Bft) 97,44 %
07.11.2017 02:00 3,9 C 7,2 C 98 % 1021,3 hPa 0,0 l/m 2,3 km/h (1 Bft) S-SW 206 0 min 0,000 mm 0,0 UV-I 0 W/m 3,6 C 3,9 C 3,2 km/h (1 Bft) 98,11 %
07.11.2017 02:02 3,9 C 7,2 C 98 % 1021,3 hPa 0,0 l/m 2,4 km/h (1 Bft) S-SW 206 0 min 0,000 mm 0,0 UV-I 0 W/m 3,6 C 3,9 C 3,2 km/h (1 Bft) 98,11 %
07.11.2017 02:04 3,9 C 7,2 C 98 % 1021,2 hPa 0,0 l/m 1,5 km/h (1 Bft) S-SW 206 0 min 0,000 mm 0,0 UV-I 0 W/m 3,6 C 3,9 C 3,2 km/h (1 Bft) 97,37 %
07.11.2017 02:06 3,9 C 7,2 C 98 % 1021,2 hPa 0,0 l/m 1,8 km/h (1 Bft) S-SW 206 0 min 0,000 mm 0,0 UV-I 0 W/m 3,6 C 3,9 C 4,8 km/h (1 Bft) 98,00 %
07.11.2017 02:08 3,9 C 7,2 C 98 % 1021,2 hPa 0,0 l/m 1,5 km/h (1 Bft) S-SW 206 0 min 0,000 mm 0,0 UV-I 0 W/m 3,6 C 3,9 C 3,2 km/h (1 Bft) 97,87 %
07.11.2017 02:10 3,9 C 7,2 C 98 % 1021,2 hPa 0,0 l/m 2,2 km/h (1 Bft) S-SW 206 0 min 0,000 mm 0,0 UV-I 0 W/m 3,6 C 3,9 C 3,2 km/h (1 Bft) 97,87 %
07.11.2017 02:12 3,9 C 7,2 C 98 % 1021,1 hPa 0,0 l/m 3,1 km/h (1 Bft) S-SW 205 0 min 0,000 mm 0,0 UV-I 0 W/m 3,6 C 3,9 C 4,8 km/h (1 Bft) 97,56 %
07.11.2017 02:14 3,9 C 7,2 C 98 % 1021,0 hPa 0,0 l/m 3,1 km/h (1 Bft) S-SW 205 0 min 0,000 mm 0,0 UV-I 0 W/m 3,6 C 3,9 C 4,8 km/h (1 Bft) 96,23 %
07.11.2017 02:16 3,9 C 7,2 C 98 % 1021,1 hPa 0,0 l/m 2,7 km/h (1 Bft) S-SW 205 0 min 0,000 mm 0,0 UV-I 0 W/m 3,6 C 3,9 C 4,8 km/h (1 Bft) 98,00 %
07.11.2017 02:18 4,0 C 7,2 C 98 % 1021,1 hPa 0,0 l/m 4,5 km/h (1 Bft) O-NO 74 0 min 0,000 mm 0,0 UV-I 0 W/m 3,7 C 4,0 C 6,4 km/h (2 Bft) 97,37 %
07.11.2017 02:20 4,0 C 7,2 C 98 % 1021,1 hPa 0,0 l/m 3,0 km/h (1 Bft) O-NO 73 0 min 0,000 mm 0,0 UV-I 0 W/m 3,7 C 4,0 C 4,8 km/h (1 Bft) 97,87 %
07.11.2017 02:22 4,0 C 7,2 C 98 % 1021,1 hPa 0,0 l/m 3,3 km/h (1 Bft) NO 47 0 min 0,000 mm 0,0 UV-I 0 W/m 3,7 C 4,0 C 6,4 km/h (2 Bft) 96,00 %
07.11.2017 02:24 4,1 C 7,2 C 98 % 1021,1 hPa 0,0 l/m 4,9 km/h (1 Bft) NO 47 0 min 0,000 mm 0,0 UV-I 0 W/m 3,8 C 4,1 C 6,4 km/h (2 Bft) 98,00 %
07.11.2017 02:26 4,1 C 7,2 C 98 % 1021,1 hPa 0,0 l/m 5,0 km/h (1 Bft) NO 47 0 min 0,000 mm 0,0 UV-I 0 W/m 3,8 C 4,1 C 6,4 km/h (2 Bft) 95,45 %
07.11.2017 02:28 4,1 C 7,2 C 98 % 1021,1 hPa 0,0 l/m 3,9 km/h (1 Bft) NO 47 0 min 0,000 mm 0,0 UV-I 0 W/m 3,8 C 4,1 C 4,8 km/h (1 Bft) 98,11 %
07.11.2017 02:30 4,0 C 7,2 C 98 % 1021,0 hPa 0,0 l/m 3,0 km/h (1 Bft) NO 47 0 min 0,000 mm 0,0 UV-I 0 W/m 3,7 C 4,0 C 4,8 km/h (1 Bft) 97,14 %
07.11.2017 02:32 4,0 C 7,2 C 98 % 1021,0 hPa 0,0 l/m 2,7 km/h (1 Bft) NO 47 0 min 0,000 mm 0,0 UV-I 0 W/m 3,7 C 4,0 C 3,2 km/h (1 Bft) 98,31 %
07.11.2017 02:34 4,0 C 7,2 C 98 % 1020,9 hPa 0,0 l/m 3,0 km/h (1 Bft) NO 47 0 min 0,000 mm 0,0 UV-I 0 W/m 3,7 C 4,0 C 4,8 km/h (1 Bft) 95,74 %
07.11.2017 02:36 4,0 C 7,2 C 98 % 1020,9 hPa 0,0 l/m 3,3 km/h (1 Bft) NO 47 0 min 0,000 mm 0,0 UV-I 0 W/m 3,7 C 4,0 C 4,8 km/h (1 Bft) 100,00 %
07.11.2017 02:38 4,0 C 7,2 C 98 % 1021,0 hPa 0,0 l/m 2,7 km/h (1 Bft) NO 47 0 min 0,000 mm 0,0 UV-I 0 W/m 3,7 C 4,0 C 4,8 km/h (1 Bft) 93,62 %
07.11.2017 02:40 4,0 C 7,2 C 98 % 1020,9 hPa 0,0 l/m 3,6 km/h (1 Bft) NO 47 0 min 0,000 mm 0,0 UV-I 0 W/m 3,7 C 4,0 C 6,4 km/h (2 Bft) 97,73 %
07.11.2017 02:42 4,0 C 7,2 C 98 % 1020,9 hPa 0,0 l/m 4,5 km/h (1 Bft) NO 47 0 min 0,000 mm 0,0 UV-I 0 W/m 3,7 C 4,0 C 6,4 km/h (2 Bft) 100,00 %
07.11.2017 02:44 4,1 C 7,2 C 98 % 1020,9 hPa 0,0 l/m 5,2 km/h (1 Bft) NO 47 0 min 0,000 mm 0,0 UV-I 0 W/m 3,8 C 4,1 C 8,0 km/h (2 Bft) 100,00 %
07.11.2017 02:46 4,1 C 7,2 C 98 % 1020,9 hPa 0,0 l/m 5,5 km/h (1 Bft) NO 46 0 min 0,000 mm 0,0 UV-I 0 W/m 3,8 C 4,1 C 8,0 km/h (2 Bft) 100,00 %
07.11.2017 02:48 4,1 C 7,2 C 98 % 1020,8 hPa 0,0 l/m 4,5 km/h (1 Bft) NO 46 0 min 0,000 mm 0,0 UV-I 0 W/m 3,8 C 4,1 C 8,0 km/h (2 Bft) 100,00 %
07.11.2017 02:50 4,1 C 7,2 C 98 % 1020,8 hPa 0,0 l/m 2,7 km/h (1 Bft) NO 46 0 min 0,000 mm 0,0 UV-I 0 W/m 3,8 C 4,1 C 4,8 km/h (1 Bft) 100,00 %
07.11.2017 02:52 4,1 C 7,2 C 98 % 1020,8 hPa 0,0 l/m 4,0 km/h (1 Bft) NO 46 0 min 0,000 mm 0,0 UV-I 0 W/m 3,8 C 4,1 C 6,4 km/h (2 Bft) 100,00 %
07.11.2017 02:54 4,1 C 7,2 C 98 % 1020,8 hPa 0,0 l/m 4,4 km/h (1 Bft) NO 46 0 min 0,000 mm 0,0 UV-I 0 W/m 3,8 C 4,1 C 4,8 km/h (1 Bft) 100,00 %
07.11.2017 02:56 4,1 C 7,2 C 98 % 1020,8 hPa 0,0 l/m 5,0 km/h (1 Bft) NO 46 0 min 0,000 mm 0,0 UV-I 0 W/m 3,8 C 4,1 C 6,4 km/h (2 Bft) 100,00 %
07.11.2017 02:58 4,1 C 7,2 C 98 % 1020,7 hPa 0,0 l/m 5,8 km/h (2 Bft) NO 46 0 min 0,000 mm 0,0 UV-I 0 W/m 3,8 C 4,1 C 8,0 km/h (2 Bft) 100,00 %
07.11.2017 03:00 4,1 C 7,2 C 98 % 1020,7 hPa 0,0 l/m 5,5 km/h (1 Bft) NO 46 0 min 0,000 mm 0,0 UV-I 0 W/m 3,8 C 4,1 C 8,0 km/h (2 Bft) 100,00 %
07.11.2017 03:02 4,1 C 7,2 C 98 % 1020,7 hPa 0,0 l/m 4,2 km/h (1 Bft) NO 46 0 min 0,000 mm 0,0 UV-I 0 W/m 3,8 C 4,1 C 6,4 km/h (2 Bft) 100,00 %
07.11.2017 03:04 4,1 C 7,2 C 98 % 1020,7 hPa 0,0 l/m 3,4 km/h (1 Bft) NO 46 0 min 0,000 mm 0,0 UV-I 0 W/m 3,8 C 4,1 C 4,8 km/h (1 Bft) 100,00 %
07.11.2017 03:06 4,1 C 7,2 C 98 % 1020,7 hPa 0,0 l/m 4,7 km/h (1 Bft) NO 46 0 min 0,000 mm 0,0 UV-I 0 W/m 3,8 C 4,1 C 8,0 km/h (2 Bft) 98,00 %
07.11.2017 03:08 4,1 C 7,2 C 98 % 1020,7 hPa 0,0 l/m 6,5 km/h (2 Bft) NO 49 0 min 0,000 mm 0,0 UV-I 0 W/m 3,8 C 4,0 C 8,0 km/h (2 Bft) 93,62 %
07.11.2017 03:10 4,1 C 7,2 C 98 % 1020,7 hPa 0,0 l/m 4,4 km/h (1 Bft) NO 49 0 min 0,000 mm 0,0 UV-I 0 W/m 3,8 C 4,1 C 6,4 km/h (2 Bft) 98,00 %
07.11.2017 03:12 4,1 C 7,2 C 98 % 1020,7 hPa 0,0 l/m 7,8 km/h (2 Bft) NO 43 0 min 0,000 mm 0,0 UV-I 0 W/m 3,8 C 2,8 C 11,3 km/h (2 Bft) 97,44 %
07.11.2017 03:14 4,1 C 7,2 C 98 % 1020,6 hPa 0,0 l/m 7,2 km/h (2 Bft) NO 43 0 min 0,000 mm 0,0 UV-I 0 W/m 3,8 C 3,4 C 11,3 km/h (2 Bft) 98,18 %
07.11.2017 03:16 4,1 C 7,2 C 98 % 1020,6 hPa 0,0 l/m 8,2 km/h (2 Bft) NO 36 0 min 0,000 mm 0,0 UV-I 0 W/m 3,8 C 2,5 C 9,7 km/h (2 Bft) 97,62 %
07.11.2017 03:18 4,1 C 7,2 C 98 % 1020,6 hPa 0,0 l/m 8,6 km/h (2 Bft) O-NO 63 0 min 0,000 mm 0,0 UV-I 0 W/m 3,8 C 2,2 C 11,3 km/h (2 Bft) 96,00 %
07.11.2017 03:20 4,1 C 7,2 C 98 % 1020,7 hPa 0,0 l/m 5,8 km/h (2 Bft) NO 40 0 min 0,000 mm 0,0 UV-I 0 W/m 3,8 C 4,1 C 9,7 km/h (2 Bft) 98,08 %
07.11.2017 03:22 4,1 C 7,2 C 98 % 1020,6 hPa 0,0 l/m 6,0 km/h (2 Bft) O-NO 61 0 min 0,000 mm 0,0 UV-I 0 W/m 3,8 C 4,1 C 9,7 km/h (2 Bft) 95,83 %
07.11.2017 03:24 4,1 C 7,2 C 98 % 1020,6 hPa 0,0 l/m 4,9 km/h (1 Bft) O-NO 61 0 min 0,000 mm 0,0 UV-I 0 W/m 3,8 C 4,1 C 8,0 km/h (2 Bft) 97,14 %
07.11.2017 03:26 4,1 C 7,2 C 98 % 1020,6 hPa 0,0 l/m 5,5 km/h (1 Bft) O-NO 59 0 min 0,000 mm 0,0 UV-I 0 W/m 3,8 C 4,1 C 8,0 km/h (2 Bft) 96,43 %
07.11.2017 03:28 4,1 C 7,2 C 98 % 1020,6 hPa 0,0 l/m 4,7 km/h (1 Bft) O-NO 59 0 min 0,000 mm 0,0 UV-I 0 W/m 3,8 C 4,1 C 8,0 km/h (2 Bft) 97,37 %
07.11.2017 03:30 4,2 C 7,2 C 98 % 1020,5 hPa 0,0 l/m 6,6 km/h (2 Bft) N 9 0 min 0,000 mm 0,0 UV-I 0 W/m 3,9 C 4,0 C 9,7 km/h (2 Bft) 94,00 %
07.11.2017 03:32 4,2 C 7,2 C 98 % 1020,5 hPa 0,0 l/m 7,7 km/h (2 Bft) N-NO 18 0 min 0,000 mm 0,0 UV-I 0 W/m 3,9 C 3,0 C 14,5 km/h (3 Bft) 98,00 %
07.11.2017 03:34 4,2 C 7,2 C 98 % 1020,5 hPa 0,0 l/m 8,5 km/h (2 Bft) N-NO 33 0 min 0,000 mm 0,0 UV-I 0 W/m 3,9 C 2,3 C 12,9 km/h (3 Bft) 97,37 %
07.11.2017 03:36 4,2 C 7,2 C 98 % 1020,5 hPa 0,0 l/m 7,4 km/h (2 Bft) NO 40 0 min 0,000 mm 0,0 UV-I 0 W/m 3,9 C 3,3 C 14,5 km/h (3 Bft) 96,43 %
07.11.2017 03:38 4,2 C 7,2 C 98 % 1020,5 hPa 0,0 l/m 7,7 km/h (2 Bft) NO 44 0 min 0,000 mm 0,0 UV-I 0 W/m 3,9 C 3,0 C 11,3 km/h (2 Bft) 96,15 %
07.11.2017 03:40 4,2 C 7,2 C 98 % 1020,5 hPa 0,0 l/m 6,8 km/h (2 Bft) NO 47 0 min 0,000 mm 0,0 UV-I 0 W/m 3,9 C 3,8 C 11,3 km/h (2 Bft) 96,77 %
07.11.2017 03:42 4,2 C 7,2 C 98 % 1020,5 hPa 0,0 l/m 8,7 km/h (2 Bft) NO 35 0 min 0,000 mm 0,0 UV-I 0 W/m 3,9 C 2,2 C 14,5 km/h (3 Bft) 98,21 %
07.11.2017 03:44 4,2 C 7,2 C 98 % 1020,5 hPa 0,0 l/m 7,2 km/h (2 Bft) NO 38 0 min 0,000 mm 0,0 UV-I 0 W/m 3,9 C 3,5 C 11,3 km/h (2 Bft) 97,73 %
07.11.2017 03:46 4,2 C 7,2 C 98 % 1020,4 hPa 0,0 l/m 7,7 km/h (2 Bft) NO 44 0 min 0,000 mm 0,0 UV-I 0 W/m 3,9 C 3,0 C 9,7 km/h (2 Bft) 97,73 %
07.11.2017 03:48 4,2 C 7,2 C 98 % 1020,4 hPa 0,0 l/m 8,3 km/h (2 Bft) NO 34 0 min 0,000 mm 0,0 UV-I 0 W/m 3,9 C 2,5 C 11,3 km/h (2 Bft) 100,00 %
07.11.2017 03:50 4,2 C 7,2 C 98 % 1020,4 hPa 0,0 l/m 5,4 km/h (1 Bft) N-NO 32 0 min 0,000 mm 0,0 UV-I 0 W/m 3,9 C 4,2 C 8,0 km/h (2 Bft) 100,00 %
07.11.2017 03:52 4,2 C 7,2 C 98 % 1020,4 hPa 0,0 l/m 5,2 km/h (1 Bft) NO 53 0 min 0,000 mm 0,0 UV-I 0 W/m 3,9 C 4,2 C 8,0 km/h (2 Bft) 100,00 %
07.11.2017 03:54 4,2 C 7,2 C 98 % 1020,4 hPa 0,0 l/m 5,9 km/h (2 Bft) NO 44 0 min 0,000 mm 0,0 UV-I 0 W/m 3,9 C 4,2 C 8,0 km/h (2 Bft) 97,87 %
07.11.2017 03:56 4,2 C 7,2 C 98 % 1020,4 hPa 0,0 l/m 4,9 km/h (1 Bft) NO 43 0 min 0,000 mm 0,0 UV-I 0 W/m 3,9 C 4,2 C 8,0 km/h (2 Bft) 100,00 %
07.11.2017 03:58 4,2 C 7,2 C 98 % 1020,4 hPa 0,0 l/m 5,9 km/h (2 Bft) O-NO 63 0 min 0,000 mm 0,0 UV-I 0 W/m 3,9 C 4,2 C 8,0 km/h (2 Bft) 100,00 %
07.11.2017 04:00 4,2 C 7,2 C 98 % 1020,4 hPa 0,0 l/m 6,8 km/h (2 Bft) O-NO 63 0 min 0,000 mm 0,0 UV-I 0 W/m 3,9 C 3,8 C 9,7 km/h (2 Bft) 100,00 %
07.11.2017 04:02 4,2 C 7,2 C 98 % 1020,3 hPa 0,0 l/m 4,6 km/h (1 Bft) N-NO 26 0 min 0,000 mm 0,0 UV-I 0 W/m 3,9 C 4,2 C 6,4 km/h (2 Bft) 96,30 %
07.11.2017 04:04 4,2 C 7,2 C 98 % 1020,3 hPa 0,0 l/m 7,8 km/h (2 Bft) O-NO 63 0 min 0,000 mm 0,0 UV-I 0 W/m 3,9 C 2,9 C 12,9 km/h (3 Bft) 100,00 %
07.11.2017 04:06 4,2 C 7,2 C 98 % 1020,3 hPa 0,0 l/m 5,5 km/h (1 Bft) NO 55 0 min 0,000 mm 0,0 UV-I 0 W/m 3,9 C 4,2 C 8,0 km/h (2 Bft) 100,00 %
07.11.2017 04:08 4,2 C 7,2 C 98 % 1020,3 hPa 0,0 l/m 7,4 km/h (2 Bft) NO 55 0 min 0,000 mm 0,0 UV-I 0 W/m 3,9 C 3,3 C 11,3 km/h (2 Bft) 100,00 %
07.11.2017 04:10 4,2 C 7,2 C 98 % 1020,2 hPa 0,0 l/m 7,4 km/h (2 Bft) O-NO 64 0 min 0,000 mm 0,0 UV-I 0 W/m 3,9 C 3,3 C 11,3 km/h (2 Bft) 100,00 %
07.11.2017 04:12 4,2 C 7,2 C 98 % 1020,2 hPa 0,0 l/m 7,0 km/h (2 Bft) NO 35 0 min 0,000 mm 0,0 UV-I 0 W/m 3,9 C 3,7 C 9,7 km/h (2 Bft) 100,00 %
07.11.2017 04:14 4,2 C 7,2 C 98 % 1020,2 hPa 0,0 l/m 6,9 km/h (2 Bft) O-NO 66 0 min 0,000 mm 0,0 UV-I 0 W/m 3,9 C 3,8 C 9,7 km/h (2 Bft) 100,00 %
07.11.2017 04:16 4,3 C 7,2 C 98 % 1020,2 hPa 0,0 l/m 7,5 km/h (2 Bft) NO 41 0 min 0,000 mm 0,0 UV-I 0 W/m 4,0 C 3,3 C 11,3 km/h (2 Bft) 98,00 %
07.11.2017 04:18 4,2 C 7,2 C 98 % 1020,3 hPa 0,0 l/m 7,8 km/h (2 Bft) O-NO 67 0 min 0,000 mm 0,0 UV-I 0 W/m 3,9 C 2,9 C 11,3 km/h (2 Bft) 100,00 %
07.11.2017 04:20 4,2 C 7,2 C 98 % 1020,3 hPa 0,0 l/m 6,4 km/h (2 Bft) NO 56 0 min 0,000 mm 0,0 UV-I 0 W/m 3,9 C 4,2 C 9,7 km/h (2 Bft) 100,00 %
07.11.2017 04:22 4,2 C 7,2 C 98 % 1020,3 hPa 0,0 l/m 6,6 km/h (2 Bft) O-NO 59 0 min 0,000 mm 0,0 UV-I 0 W/m 3,9 C 4,0 C 8,0 km/h (2 Bft) 100,00 %
07.11.2017 04:24 4,2 C 7,2 C 98 % 1020,3 hPa 0,0 l/m 7,1 km/h (2 Bft) O-NO 68 0 min 0,000 mm 0,0 UV-I 0 W/m 3,9 C 3,6 C 11,3 km/h (2 Bft) 100,00 %
07.11.2017 04:26 4,2 C 7,2 C 98 % 1020,3 hPa 0,0 l/m 7,7 km/h (2 Bft) O-NO 63 0 min 0,000 mm 0,0 UV-I 0 W/m 3,9 C 3,0 C 11,3 km/h (2 Bft) 100,00 %
07.11.2017 04:28 4,2 C 7,2 C 98 % 1020,3 hPa 0,0 l/m 6,0 km/h (2 Bft) NO 54 0 min 0,000 mm 0,0 UV-I 0 W/m 3,9 C 4,2 C 11,3 km/h (2 Bft) 100,00 %
07.11.2017 04:30 4,2 C 7,2 C 98 % 1020,2 hPa 0,0 l/m 4,9 km/h (1 Bft) O-NO 73 0 min 0,000 mm 0,0 UV-I 0 W/m 3,9 C 4,2 C 8,0 km/h (2 Bft) 100,00 %
07.11.2017 04:32 4,2 C 7,2 C 98 % 1020,3 hPa 0,0 l/m 6,8 km/h (2 Bft) O-NO 59 0 min 0,000 mm 0,0 UV-I 0 W/m 3,9 C 3,8 C 9,7 km/h (2 Bft) 100,00 %
07.11.2017 04:34 4,2 C 7,2 C 98 % 1020,3 hPa 0,0 l/m 6,0 km/h (2 Bft) O-NO 63 0 min 0,000 mm 0,0 UV-I 0 W/m 3,9 C 4,2 C 9,7 km/h (2 Bft) 100,00 %
07.11.2017 04:36 4,2 C 7,2 C 98 % 1020,3 hPa 0,0 l/m 7,5 km/h (2 Bft) O-NO 66 0 min 0,000 mm 0,0 UV-I 0 W/m 3,9 C 3,2 C 11,3 km/h (2 Bft) 98,18 %
07.11.2017 04:38 4,2 C 7,2 C 98 % 1020,2 hPa 0,0 l/m 6,6 km/h (2 Bft) O-NO 68 0 min 0,000 mm 0,0 UV-I 0 W/m 3,9 C 4,0 C 8,0 km/h (2 Bft) 100,00 %
07.11.2017 04:40 4,2 C 7,2 C 98 % 1020,2 hPa 0,0 l/m 6,2 km/h (2 Bft) O-NO 65 0 min 0,000 mm 0,0 UV-I 0 W/m 3,9 C 4,2 C 8,0 km/h (2 Bft) 100,00 %
07.11.2017 04:42 4,2 C 7,2 C 98 % 1020,2 hPa 0,0 l/m 9,1 km/h (2 Bft) O-NO 78 0 min 0,000 mm 0,0 UV-I 0 W/m 3,9 C 1,9 C 14,5 km/h (3 Bft) 98,00 %
07.11.2017 04:44 4,2 C 7,2 C 98 % 1020,2 hPa 0,0 l/m 8,6 km/h (2 Bft) O-NO 60 0 min 0,000 mm 0,0 UV-I 0 W/m 3,9 C 2,3 C 12,9 km/h (3 Bft) 100,00 %
07.11.2017 04:46 4,3 C 7,2 C 98 % 1020,1 hPa 0,0 l/m 7,3 km/h (2 Bft) O-NO 71 0 min 0,000 mm 0,0 UV-I 0 W/m 4,0 C 3,5 C 9,7 km/h (2 Bft) 98,00 %
07.11.2017 04:48 4,3 C 7,2 C 98 % 1020,1 hPa 0,0 l/m 6,8 km/h (2 Bft) O-NO 71 0 min 0,000 mm 0,0 UV-I 0 W/m 4,0 C 3,9 C 11,3 km/h (2 Bft) 100,00 %
07.11.2017 04:50 4,3 C 7,2 C 98 % 1020,0 hPa 0,0 l/m 10,0 km/h (2 Bft) O-NO 65 0 min 0,000 mm 0,0 UV-I 0 W/m 4,0 C 1,3 C 16,1 km/h (3 Bft) 100,00 %
07.11.2017 04:52 4,3 C 7,2 C 98 % 1020,0 hPa 0,0 l/m 13,0 km/h (3 Bft) NO 49 0 min 0,000 mm 0,0 UV-I 0 W/m 4,0 C -0,7 C 19,3 km/h (3 Bft) 100,00 %
07.11.2017 04:54 4,3 C 7,2 C 98 % 1020,0 hPa 0,0 l/m 8,5 km/h (2 Bft) O-NO 67 0 min 0,000 mm 0,0 UV-I 0 W/m 4,0 C 2,5 C 14,5 km/h (3 Bft) 98,11 %
07.11.2017 04:56 4,3 C 7,2 C 98 % 1019,9 hPa 0,0 l/m 8,8 km/h (2 Bft) NO 35 0 min 0,000 mm 0,0 UV-I 0 W/m 4,0 C 2,2 C 11,3 km/h (2 Bft) 100,00 %
07.11.2017 04:58 4,3 C 7,2 C 98 % 1019,9 hPa 0,0 l/m 7,6 km/h (2 Bft) O-NO 78 0 min 0,000 mm 0,0 UV-I 0 W/m 4,0 C 3,2 C 11,3 km/h (2 Bft) 100,00 %
07.11.2017 05:00 4,3 C 7,2 C 98 % 1020,0 hPa 0,0 l/m 9,0 km/h (2 Bft) NO 44 0 min 0,000 mm 0,0 UV-I 0 W/m 4,0 C 2,1 C 14,5 km/h (3 Bft) 98,00 %
07.11.2017 05:02 4,3 C 7,2 C 98 % 1019,9 hPa 0,0 l/m 8,3 km/h (2 Bft) O-NO 59 0 min 0,000 mm 0,0 UV-I 0 W/m 4,0 C 2,6 C 14,5 km/h (3 Bft) 100,00 %
07.11.2017 05:04 4,3 C 7,2 C 98 % 1019,9 hPa 0,0 l/m 7,1 km/h (2 Bft) NO 40 0 min 0,000 mm 0,0 UV-I 0 W/m 4,0 C 3,7 C 14,5 km/h (3 Bft) 100,00 %
07.11.2017 05:06 4,3 C 7,2 C 98 % 1019,9 hPa 0,0 l/m 8,0 km/h (2 Bft) NO 50 0 min 0,000 mm 0,0 UV-I 0 W/m 4,0 C 2,9 C 9,7 km/h (2 Bft) 100,00 %
07.11.2017 05:08 4,3 C 7,2 C 98 % 1019,9 hPa 0,0 l/m 9,3 km/h (2 Bft) O-NO 59 0 min 0,000 mm 0,0 UV-I 0 W/m 4,0 C 1,8 C 14,5 km/h (3 Bft) 97,73 %
07.11.2017 05:10 4,3 C 7,2 C 98 % 1019,9 hPa 0,0 l/m 6,6 km/h (2 Bft) N-NO 24 0 min 0,000 mm 0,0 UV-I 0 W/m 4,0 C 4,1 C 9,7 km/h (2 Bft) 100,00 %
07.11.2017 05:12 4,3 C 7,2 C 98 % 1019,7 hPa 0,0 l/m 8,4 km/h (2 Bft) NO 56 0 min 0,000 mm 0,0 UV-I 0 W/m 4,0 C 2,5 C 16,1 km/h (3 Bft) 96,43 %
07.11.2017 05:14 4,3 C 7,2 C 98 % 1019,8 hPa 0,0 l/m 9,3 km/h (2 Bft) NO 49 0 min 0,000 mm 0,0 UV-I 0 W/m 4,0 C 1,8 C 14,5 km/h (3 Bft) 97,44 %
07.11.2017 05:16 4,3 C 7,2 C 98 % 1019,7 hPa 0,0 l/m 6,5 km/h (2 Bft) N-NO 30 0 min 0,000 mm 0,0 UV-I 0 W/m 4,0 C 4,2 C 11,3 km/h (2 Bft) 95,74 %
07.11.2017 05:18 4,3 C 7,2 C 98 % 1019,7 hPa 0,0 l/m 11,2 km/h (2 Bft) O-NO 67 0 min 0,000 mm 0,0 UV-I 0 W/m 4,0 C 0,5 C 17,7 km/h (3 Bft) 98,00 %
07.11.2017 05:20 4,3 C 7,2 C 98 % 1019,7 hPa 0,0 l/m 9,0 km/h (2 Bft) NO 54 0 min 0,000 mm 0,0 UV-I 0 W/m 4,0 C 2,1 C 14,5 km/h (3 Bft) 96,15 %
07.11.2017 05:22 4,3 C 7,2 C 98 % 1019,7 hPa 0,0 l/m 7,9 km/h (2 Bft) NO 42 0 min 0,000 mm 0,0 UV-I 0 W/m 4,0 C 3,0 C 12,9 km/h (3 Bft) 97,18 %
07.11.2017 05:24 4,3 C 7,2 C 98 % 1019,7 hPa 0,0 l/m 11,5 km/h (2 Bft) NO 44 0 min 0,000 mm 0,0 UV-I 0 W/m 4,0 C 0,3 C 19,3 km/h (3 Bft) 97,37 %
07.11.2017 05:26 4,3 C 7,2 C 98 % 1019,8 hPa 0,0 l/m 12,0 km/h (2 Bft) NO 52 0 min 0,000 mm 0,0 UV-I 0 W/m 4,0 C -0,0 C 16,1 km/h (3 Bft) 96,23 %
07.11.2017 05:28 4,3 C 7,2 C 98 % 1019,7 hPa 0,0 l/m 8,4 km/h (2 Bft) NO 55 0 min 0,000 mm 0,0 UV-I 0 W/m 4,0 C 2,5 C 12,9 km/h (3 Bft) 96,00 %
07.11.2017 05:30 4,4 C 7,2 C 98 % 1019,7 hPa 0,0 l/m 8,8 km/h (2 Bft) NO 50 0 min 0,000 mm 0,0 UV-I 0 W/m 4,1 C 2,3 C 14,5 km/h (3 Bft) 95,12 %
07.11.2017 05:32 4,4 C 7,2 C 98 % 1019,7 hPa 0,0 l/m 8,9 km/h (2 Bft) NO 49 0 min 0,000 mm 0,0 UV-I 0 W/m 4,1 C 2,2 C 16,1 km/h (3 Bft) 95,74 %
07.11.2017 05:34 4,4 C 7,2 C 98 % 1019,7 hPa 0,0 l/m 9,1 km/h (2 Bft) O-NO 69 0 min 0,000 mm 0,0 UV-I 0 W/m 4,1 C 2,1 C 12,9 km/h (3 Bft) 96,23 %
07.11.2017 05:36 4,4 C 7,2 C 98 % 1019,7 hPa 0,0 l/m 9,1 km/h (2 Bft) O-NO 57 0 min 0,000 mm 0,0 UV-I 0 W/m 4,1 C 2,1 C 14,5 km/h (3 Bft) 94,29 %
07.11.2017 05:38 4,4 C 7,2 C 98 % 1019,7 hPa 0,0 l/m 12,1 km/h (2 Bft) NO 48 0 min 0,000 mm 0,0 UV-I 0 W/m 4,1 C 0,0 C 17,7 km/h (3 Bft) 96,43 %
07.11.2017 05:40 4,4 C 7,2 C 98 % 1019,5 hPa 0,0 l/m 10,5 km/h (2 Bft) NO 46 0 min 0,000 mm 0,0 UV-I 0 W/m 4,1 C 1,1 C 16,1 km/h (3 Bft) 93,10 %
07.11.2017 05:42 4,4 C 7,2 C 98 % 1019,5 hPa 0,0 l/m 13,3 km/h (3 Bft) O-NO 67 0 min 0,000 mm 0,0 UV-I 0 W/m 4,1 C -0,7 C 17,7 km/h (3 Bft) 96,43 %
07.11.2017 05:44 4,4 C 7,2 C 98 % 1019,5 hPa 0,0 l/m 10,6 km/h (2 Bft) NO 42 0 min 0,000 mm 0,0 UV-I 0 W/m 4,1 C 1,0 C 17,7 km/h (3 Bft) 98,00 %
07.11.2017 05:46 4,4 C 7,2 C 98 % 1019,5 hPa 0,0 l/m 16,4 km/h (3 Bft) NO 50 0 min 0,000 mm 0,0 UV-I 0 W/m 4,1 C -2,4 C 22,5 km/h (4 Bft) 98,00 %
07.11.2017 05:48 4,4 C 7,2 C 98 % 1019,4 hPa 0,0 l/m 13,6 km/h (3 Bft) NO 41 0 min 0,000 mm 0,0 UV-I 0 W/m 4,1 C -0,9 C 19,3 km/h (3 Bft) 96,00 %
07.11.2017 05:50 4,4 C 7,2 C 98 % 1019,4 hPa 0,0 l/m 14,8 km/h (3 Bft) NO 43 0 min 0,000 mm 0,0 UV-I 0 W/m 4,1 C -1,5 C 22,5 km/h (4 Bft) 98,00 %
07.11.2017 05:52 4,4 C 7,2 C 98 % 1019,4 hPa 0,0 l/m 11,7 km/h (2 Bft) O-NO 72 0 min 0,000 mm 0,0 UV-I 0 W/m 4,1 C 0,3 C 16,1 km/h (3 Bft) 95,45 %
07.11.2017 05:54 4,4 C 7,2 C 98 % 1019,4 hPa 0,0 l/m 10,9 km/h (2 Bft) NO 45 0 min 0,000 mm 0,0 UV-I 0 W/m 4,1 C 0,8 C 16,1 km/h (3 Bft) 97,62 %
07.11.2017 05:56 4,4 C 7,2 C 98 % 1019,4 hPa 0,0 l/m 10,2 km/h (2 Bft) NO 53 0 min 0,000 mm 0,0 UV-I 0 W/m 4,1 C 1,3 C 16,1 km/h (3 Bft) 98,00 %
07.11.2017 05:58 4,4 C 7,2 C 98 % 1019,5 hPa 0,0 l/m 13,3 km/h (3 Bft) O-NO 63 0 min 0,000 mm 0,0 UV-I 0 W/m 4,1 C -0,7 C 19,3 km/h (3 Bft) 97,87 %
07.11.2017 06:00 4,4 C 7,2 C 98 % 1019,5 hPa 0,0 l/m 14,3 km/h (3 Bft) O-NO 62 0 min 0,000 mm 0,0 UV-I 0 W/m 4,1 C -1,3 C 19,3 km/h (3 Bft) 97,56 %
07.11.2017 06:02 4,5 C 7,2 C 98 % 1019,5 hPa 0,0 l/m 13,0 km/h (3 Bft) O-NO 59 0 min 0,000 mm 0,0 UV-I 0 W/m 4,2 C -0,4 C 19,3 km/h (3 Bft) 98,11 %
07.11.2017 06:04 4,5 C 7,2 C 98 % 1019,5 hPa 0,0 l/m 16,6 km/h (3 Bft) O-NO 67 0 min 0,000 mm 0,0 UV-I 0 W/m 4,2 C -2,3 C 22,5 km/h (4 Bft) 97,73 %
07.11.2017 06:06 4,5 C 7,2 C 98 % 1019,5 hPa 0,0 l/m 15,1 km/h (3 Bft) O-NO 69 0 min 0,000 mm 0,0 UV-I 0 W/m 4,2 C -1,6 C 24,1 km/h (4 Bft) 97,56 %
07.11.2017 06:08 4,5 C 7,2 C 98 % 1019,5 hPa 0,0 l/m 12,1 km/h (2 Bft) O-NO 74 0 min 0,000 mm 0,0 UV-I 0 W/m 4,2 C 0,1 C 16,1 km/h (3 Bft) 96,61 %
07.11.2017 06:10 4,6 C 7,2 C 98 % 1019,5 hPa 0,0 l/m 13,0 km/h (3 Bft) NO 55 0 min 0,000 mm 0,0 UV-I 0 W/m 4,3 C -0,3 C 20,9 km/h (4 Bft) 100,00 %
07.11.2017 06:12 4,6 C 7,2 C 98 % 1019,5 hPa 0,0 l/m 13,8 km/h (3 Bft) O 94 0 min 0,000 mm 0,0 UV-I 0 W/m 4,3 C -0,8 C 20,9 km/h (4 Bft) 94,34 %
07.11.2017 06:14 4,6 C 7,2 C 98 % 1019,5 hPa 0,0 l/m 15,4 km/h (3 Bft) O-NO 71 0 min 0,000 mm 0,0 UV-I 0 W/m 4,3 C -1,6 C 20,9 km/h (4 Bft) 100,00 %
07.11.2017 06:16 4,6 C 7,2 C 98 % 1019,5 hPa 0,0 l/m 17,4 km/h (3 Bft) O-NO 61 0 min 0,000 mm 0,0 UV-I 0 W/m 4,3 C -2,6 C 25,7 km/h (4 Bft) 95,59 %
07.11.2017 06:18 4,7 C 7,2 C 98 % 1019,5 hPa 0,0 l/m 15,0 km/h (3 Bft) O 88 0 min 0,000 mm 0,0 UV-I 0 W/m 4,4 C -1,3 C 20,9 km/h (4 Bft) 97,56 %
07.11.2017 06:20 4,7 C 7,2 C 98 % 1019,5 hPa 0,0 l/m 15,4 km/h (3 Bft) NO 46 0 min 0,000 mm 0,0 UV-I 0 W/m 4,4 C -1,5 C 24,1 km/h (4 Bft) 96,23 %
07.11.2017 06:22 4,7 C 7,2 C 98 % 1019,5 hPa 0,0 l/m 13,2 km/h (3 Bft) O-NO 58 0 min 0,000 mm 0,0 UV-I 0 W/m 4,4 C -0,3 C 19,3 km/h (3 Bft) 97,87 %
07.11.2017 06:24 4,8 C 7,2 C 98 % 1019,4 hPa 0,0 l/m 14,4 km/h (3 Bft) O-NO 59 0 min 0,000 mm 0,0 UV-I 0 W/m 4,5 C -0,9 C 19,3 km/h (3 Bft) 97,37 %
07.11.2017 06:26 4,8 C 7,2 C 98 % 1019,4 hPa 0,0 l/m 13,6 km/h (3 Bft) O-NO 60 0 min 0,000 mm 0,0 UV-I 0 W/m 4,5 C -0,4 C 20,9 km/h (4 Bft) 96,00 %
07.11.2017 06:28 4,8 C 7,2 C 98 % 1019,4 hPa 0,0 l/m 12,8 km/h (3 Bft) O-NO 67 0 min 0,000 mm 0,0 UV-I 0 W/m 4,5 C 0,0 C 17,7 km/h (3 Bft) 98,00 %
07.11.2017 06:30 4,8 C 7,2 C 98 % 1019,4 hPa 0,0 l/m 13,5 km/h (3 Bft) O-NO 71 0 min 0,000 mm 0,0 UV-I 0 W/m 4,5 C -0,4 C 20,9 km/h (4 Bft) 95,74 %
07.11.2017 06:32 4,8 C 7,2 C 98 % 1019,5 hPa 0,0 l/m 13,3 km/h (3 Bft) O-NO 68 0 min 0,000 mm 0,0 UV-I 0 W/m 4,5 C -0,2 C 17,7 km/h (3 Bft) 96,00 %
07.11.2017 06:34 4,9 C 7,2 C 98 % 1019,5 hPa 0,0 l/m 12,5 km/h (3 Bft) O-NO 67 0 min 0,000 mm 0,0 UV-I 0 W/m 4,6 C 0,3 C 19,3 km/h (3 Bft) 100,00 %
07.11.2017 06:36 4,9 C 7,2 C 98 % 1019,5 hPa 0,0 l/m 14,5 km/h (3 Bft) O 88 0 min 0,000 mm 0,0 UV-I 0 W/m 4,6 C -0,8 C 24,1 km/h (4 Bft) 100,00 %
07.11.2017 06:38 4,9 C 7,2 C 98 % 1019,5 hPa 0,0 l/m 15,9 km/h (3 Bft) O-NO 69 0 min 0,000 mm 0,0 UV-I 0 W/m 4,6 C -1,5 C 22,5 km/h (4 Bft) 97,56 %
07.11.2017 06:40 5,0 C 7,2 C 98 % 1019,5 hPa 0,0 l/m 16,5 km/h (3 Bft) O-NO 74 0 min 0,000 mm 0,0 UV-I 0 W/m 4,7 C -1,7 C 22,5 km/h (4 Bft) 100,00 %
07.11.2017 06:42 5,1 C 7,2 C 98 % 1019,5 hPa 0,0 l/m 16,6 km/h (3 Bft) O-NO 71 0 min 0,000 mm 0,0 UV-I 0 W/m 4,8 C -1,6 C 22,5 km/h (4 Bft) 100,00 %
07.11.2017 06:44 5,1 C 7,2 C 98 % 1019,5 hPa 0,0 l/m 18,8 km/h (3 Bft) N-NO 32 0 min 0,000 mm 0,0 UV-I 0 W/m 4,8 C -2,6 C 29,0 km/h (5 Bft) 100,00 %
07.11.2017 06:46 5,1 C 7,2 C 98 % 1019,6 hPa 0,0 l/m 17,5 km/h (3 Bft) O 80 0 min 0,000 mm 0,0 UV-I 0 W/m 4,8 C -2,0 C 24,1 km/h (4 Bft) 100,00 %
07.11.2017 06:48 5,2 C 7,2 C 98 % 1019,5 hPa 0,0 l/m 17,0 km/h (3 Bft) NO 51 0 min 0,000 mm 0,0 UV-I 0 W/m 4,9 C -1,6 C 22,5 km/h (4 Bft) 100,00 %
07.11.2017 06:50 5,2 C 7,2 C 98 % 1019,6 hPa 0,0 l/m 18,1 km/h (3 Bft) NO 50 0 min 0,000 mm 0,0 UV-I 0 W/m 4,9 C -2,1 C 29,0 km/h (5 Bft) 97,73 %
07.11.2017 06:52 5,2 C 7,2 C 98 % 1019,6 hPa 0,0 l/m 16,2 km/h (3 Bft) O-NO 64 0 min 0,000 mm 0,0 UV-I 0 W/m 4,9 C -1,3 C 29,0 km/h (5 Bft) 100,00 %
07.11.2017 06:54 5,2 C 7,2 C 98 % 1019,6 hPa 0,0 l/m 16,5 km/h (3 Bft) NO 52 0 min 0,000 mm 0,0 UV-I 0 W/m 4,9 C -1,4 C 22,5 km/h (4 Bft) 100,00 %
07.11.2017 06:56 5,2 C 7,2 C 98 % 1019,6 hPa 0,0 l/m 16,1 km/h (3 Bft) O-NO 61 0 min 0,000 mm 0,0 UV-I 0 W/m 4,9 C -1,2 C 22,5 km/h (4 Bft) 96,00 %
07.11.2017 06:58 5,2 C 7,2 C 98 % 1019,6 hPa 0,0 l/m 19,1 km/h (3 Bft) NO 47 0 min 0,000 mm 0,0 UV-I 0 W/m 4,9 C -2,6 C 24,1 km/h (4 Bft) 100,00 %
07.11.2017 07:00 5,3 C 7,2 C 98 % 1019,6 hPa 0,0 l/m 15,9 km/h (3 Bft) O-NO 63 0 min 0,000 mm 0,0 UV-I 0 W/m 5,0 C -1,0 C 20,9 km/h (4 Bft) 100,00 %
07.11.2017 07:03 5,3 C 7,2 C 98 % 1019,6 hPa 0,0 l/m 16,4 km/h (3 Bft) O-NO 62 0 min 0,000 mm 0,0 UV-I 3 W/m 5,0 C -1,2 C 25,7 km/h (4 Bft) 98,53 %
07.11.2017 07:04 5,3 C 7,2 C 98 % 1019,6 hPa 0,0 l/m 17,0 km/h (3 Bft) NO 38 0 min 0,000 mm 0,0 UV-I 5 W/m 5,0 C -1,5 C 20,9 km/h (4 Bft) 100,00 %
07.11.2017 07:06 5,3 C 7,2 C 98 % 1019,5 hPa 0,0 l/m 16,0 km/h (3 Bft) O-NO 74 0 min 0,000 mm 0,0 UV-I 5 W/m 5,0 C -1,1 C 27,4 km/h (4 Bft) 100,00 %
07.11.2017 07:08 5,3 C 7,2 C 98 % 1019,5 hPa 0,0 l/m 21,8 km/h (4 Bft) O-NO 76 0 min 0,000 mm 0,0 UV-I 5 W/m 5,0 C -3,5 C 29,0 km/h (5 Bft) 100,00 %
07.11.2017 07:10 5,4 C 7,2 C 98 % 1019,5 hPa 0,0 l/m 23,7 km/h (4 Bft) NO 39 0 min 0,000 mm 0,0 UV-I 5 W/m 5,1 C -4,0 C 35,4 km/h (5 Bft) 100,00 %
07.11.2017 07:12 5,4 C 7,2 C 98 % 1019,5 hPa 0,0 l/m 20,8 km/h (4 Bft) O-NO 73 0 min 0,000 mm 0,0 UV-I 5 W/m 5,1 C -3,0 C 30,6 km/h (5 Bft) 97,44 %
07.11.2017 07:14 5,4 C 7,2 C 98 % 1019,4 hPa 0,0 l/m 21,1 km/h (4 Bft) NO 51 0 min 0,000 mm 0,0 UV-I 6 W/m 5,1 C -3,1 C 27,4 km/h (4 Bft) 97,87 %
07.11.2017 07:16 5,4 C 7,2 C 98 % 1019,4 hPa 0,0 l/m 25,2 km/h (4 Bft) NO 55 0 min 0,000 mm 0,0 UV-I 6 W/m 5,1 C -4,5 C 33,8 km/h (5 Bft) 97,56 %
07.11.2017 07:18 5,5 C 7,2 C 98 % 1019,4 hPa 0,0 l/m 20,6 km/h (4 Bft) O-NO 69 0 min 0,000 mm 0,0 UV-I 6 W/m 5,2 C -2,8 C 27,4 km/h (4 Bft) 98,31 %
07.11.2017 07:20 5,5 C 7,2 C 98 % 1019,5 hPa 0,0 l/m 18,9 km/h (3 Bft) O-NO 62 0 min 0,000 mm 0,0 UV-I 7 W/m 5,2 C -2,1 C 24,1 km/h (4 Bft) 97,56 %
07.11.2017 07:22 5,5 C 7,2 C 98 % 1019,6 hPa 0,0 l/m 17,4 km/h (3 Bft) O 84 0 min 0,000 mm 0,0 UV-I 7 W/m 5,2 C -1,4 C 25,7 km/h (4 Bft) 98,21 %
07.11.2017 07:24 5,6 C 7,2 C 98 % 1019,6 hPa 0,0 l/m 21,1 km/h (4 Bft) NO 40 0 min 0,000 mm 0,0 UV-I 7 W/m 5,3 C -2,8 C 30,6 km/h (5 Bft) 97,37 %
07.11.2017 07:26 5,6 C 7,2 C 98 % 1019,5 hPa 0,0 l/m 18,1 km/h (3 Bft) O-NO 69 0 min 0,000 mm 0,0 UV-I 7 W/m 5,3 C -1,6 C 24,1 km/h (4 Bft) 98,00 %
07.11.2017 07:28 5,6 C 7,2 C 98 % 1019,6 hPa 0,0 l/m 20,4 km/h (4 Bft) O 91 0 min 0,000 mm 0,0 UV-I 7 W/m 5,3 C -2,6 C 32,2 km/h (5 Bft) 93,62 %
07.11.2017 07:30 5,6 C 7,2 C 98 % 1019,5 hPa 0,0 l/m 23,9 km/h (4 Bft) O-NO 62 0 min 0,000 mm 0,0 UV-I 7 W/m 5,3 C -3,8 C 38,6 km/h (5 Bft) 97,56 %
07.11.2017 07:32 5,6 C 7,2 C 98 % 1019,6 hPa 0,0 l/m 19,8 km/h (3 Bft) O-NO 58 0 min 0,000 mm 0,0 UV-I 7 W/m 5,3 C -2,3 C 30,6 km/h (5 Bft) 98,11 %
07.11.2017 07:34 5,6 C 7,2 C 98 % 1019,6 hPa 0,0 l/m 17,4 km/h (3 Bft) O-NO 67 0 min 0,000 mm 0,0 UV-I 6 W/m 5,3 C -1,3 C 33,8 km/h (5 Bft) 97,37 %
07.11.2017 07:36 5,6 C 7,2 C 98 % 1019,6 hPa 0,0 l/m 20,5 km/h (4 Bft) O-NO 78 0 min 0,000 mm 0,0 UV-I 7 W/m 5,3 C -2,6 C 30,6 km/h (5 Bft) 96,23 %
07.11.2017 07:38 5,7 C 7,2 C 98 % 1019,5 hPa 0,0 l/m 22,8 km/h (4 Bft) O-NO 65 0 min 0,000 mm 0,0 UV-I 7 W/m 5,4 C -3,3 C 32,2 km/h (5 Bft) 97,14 %
07.11.2017 07:40 5,7 C 7,2 C 98 % 1019,6 hPa 0,0 l/m 21,2 km/h (4 Bft) O-NO 78 0 min 0,000 mm 0,0 UV-I 7 W/m 5,4 C -2,7 C 29,0 km/h (5 Bft) 96,92 %
07.11.2017 07:42 5,7 C 7,2 C 98 % 1019,6 hPa 0,0 l/m 24,0 km/h (4 Bft) NO 40 0 min 0,000 mm 0,0 UV-I 7 W/m 5,4 C -3,7 C 33,8 km/h (5 Bft) 97,37 %
07.11.2017 07:44 5,7 C 7,2 C 98 % 1019,6 hPa 0,0 l/m 21,4 km/h (4 Bft) NO 44 0 min 0,000 mm 0,0 UV-I 7 W/m 5,4 C -2,8 C 27,4 km/h (4 Bft) 96,43 %
07.11.2017 07:46 5,7 C 7,2 C 98 % 1019,6 hPa 0,0 l/m 25,7 km/h (4 Bft) NO 55 0 min 0,000 mm 0,0 UV-I 8 W/m 5,4 C -4,2 C 33,8 km/h (5 Bft) 95,12 %
07.11.2017 07:48 5,8 C 7,2 C 98 % 1019,6 hPa 0,0 l/m 24,8 km/h (4 Bft) NO 44 0 min 0,000 mm 0,0 UV-I 9 W/m 5,5 C -3,8 C 33,8 km/h (5 Bft) 98,11 %
07.11.2017 07:50 5,8 C 7,2 C 98 % 1019,6 hPa 0,0 l/m 23,1 km/h (4 Bft) O-NO 64 0 min 0,000 mm 0,0 UV-I 9 W/m 5,5 C -3,2 C 35,4 km/h (5 Bft) 100,00 %
07.11.2017 07:52 5,8 C 7,2 C 98 % 1019,6 hPa 0,0 l/m 21,6 km/h (4 Bft) O-NO 64 0 min 0,000 mm 0,0 UV-I 11 W/m 5,5 C -2,7 C 32,2 km/h (5 Bft) 100,00 %
07.11.2017 07:54 5,8 C 7,2 C 98 % 1019,6 hPa 0,0 l/m 19,3 km/h (3 Bft) O-NO 68 0 min 0,000 mm 0,0 UV-I 11 W/m 5,5 C -1,9 C 30,6 km/h (5 Bft) 100,00 %
07.11.2017 07:56 5,8 C 7,2 C 98 % 1019,6 hPa 0,0 l/m 22,8 km/h (4 Bft) O-NO 59 0 min 0,000 mm 0,0 UV-I 12 W/m 5,5 C -3,1 C 33,8 km/h (5 Bft) 100,00 %
07.11.2017 07:58 5,8 C 7,2 C 98 % 1019,6 hPa 0,0 l/m 24,9 km/h (4 Bft) O 86 0 min 0,000 mm 0,0 UV-I 12 W/m 5,5 C -3,8 C 38,6 km/h (5 Bft) 97,87 %
07.11.2017 08:00 5,8 C 7,2 C 98 % 1019,6 hPa 0,0 l/m 24,1 km/h (4 Bft) O-NO 60 0 min 0,000 mm 0,0 UV-I 12 W/m 5,5 C -3,6 C 37,0 km/h (5 Bft) 100,00 %
07.11.2017 08:02 5,8 C 7,2 C 98 % 1019,6 hPa 0,0 l/m 20,4 km/h (4 Bft) NO 55 0 min 0,000 mm 0,0 UV-I 12 W/m 5,5 C -2,3 C 25,7 km/h (4 Bft) 100,00 %
07.11.2017 08:04 5,8 C 7,2 C 98 % 1019,6 hPa 0,0 l/m 21,3 km/h (4 Bft) O-NO 74 0 min 0,000 mm 0,0 UV-I 13 W/m 5,5 C -2,6 C 32,2 km/h (5 Bft) 100,00 %
07.11.2017 08:06 5,9 C 7,2 C 98 % 1019,6 hPa 0,0 l/m 23,3 km/h (4 Bft) O-NO 65 0 min 0,000 mm 0,0 UV-I 15 W/m 5,6 C -3,2 C 33,8 km/h (5 Bft) 97,56 %
07.11.2017 08:08 5,9 C 7,2 C 98 % 1019,6 hPa 0,0 l/m 22,0 km/h (4 Bft) NO 55 0 min 0,000 mm 0,0 UV-I 14 W/m 5,6 C -2,7 C 35,4 km/h (5 Bft) 100,00 %
07.11.2017 08:10 5,9 C 7,2 C 98 % 1019,6 hPa 0,0 l/m 23,4 km/h (4 Bft) NO 49 0 min 0,000 mm 0,0 UV-I 15 W/m 5,6 C -3,2 C 35,4 km/h (5 Bft) 100,00 %
07.11.2017 08:12 5,9 C 7,2 C 98 % 1019,5 hPa 0,0 l/m 22,3 km/h (4 Bft) O-NO 59 0 min 0,000 mm 0,0 UV-I 17 W/m 5,6 C -2,8 C 30,6 km/h (5 Bft) 97,37 %
07.11.2017 08:14 5,9 C 7,2 C 98 % 1019,6 hPa 0,0 l/m 26,5 km/h (4 Bft) O-NO 60 0 min 0,000 mm 0,0 UV-I 18 W/m 5,6 C -4,2 C 33,8 km/h (5 Bft) 100,00 %
07.11.2017 08:16 5,9 C 7,2 C 97 % 1019,6 hPa 0,0 l/m 21,8 km/h (4 Bft) NO 55 0 min 0,000 mm 0,0 UV-I 17 W/m 5,5 C -2,7 C 30,6 km/h (5 Bft) 100,00 %
07.11.2017 08:18 5,9 C 7,2 C 98 % 1019,5 hPa 0,0 l/m 17,7 km/h (3 Bft) O 90 0 min 0,000 mm 0,0 UV-I 21 W/m 5,6 C -1,1 C 25,7 km/h (4 Bft) 98,11 %
07.11.2017 08:20 5,9 C 7,2 C 98 % 1019,6 hPa 0,0 l/m 19,7 km/h (3 Bft) O-NO 65 0 min 0,000 mm 0,0 UV-I 25 W/m 5,6 C -1,9 C 29,0 km/h (5 Bft) 100,00 %
07.11.2017 08:22 6,0 C 7,2 C 98 % 1019,4 hPa 0,0 l/m 22,1 km/h (4 Bft) N-NO 32 0 min 0,000 mm 0,0 UV-I 30 W/m 5,7 C -2,6 C 32,2 km/h (5 Bft) 98,00 %
07.11.2017 08:24 6,0 C 7,2 C 97 % 1019,3 hPa 0,0 l/m 26,6 km/h (4 Bft) O-NO 71 0 min 0,000 mm 0,0 UV-I 30 W/m 5,6 C -4,1 C 35,4 km/h (5 Bft) 100,00 %
07.11.2017 08:26 6,1 C 7,2 C 97 % 1019,3 hPa 0,0 l/m 25,4 km/h (4 Bft) O-NO 67 0 min 0,000 mm 0,0 UV-I 37 W/m 5,7 C -3,6 C 40,2 km/h (6 Bft) 98,00 %
07.11.2017 08:28 6,1 C 7,2 C 97 % 1019,4 hPa 0,0 l/m 24,1 km/h (4 Bft) O-NO 61 0 min 0,000 mm 0,0 UV-I 42 W/m 5,7 C -3,2 C 35,4 km/h (5 Bft) 100,00 %
07.11.2017 08:30 6,1 C 7,2 C 97 % 1019,3 hPa 0,0 l/m 23,4 km/h (4 Bft) O-NO 62 0 min 0,000 mm 0,0 UV-I 38 W/m 5,7 C -2,9 C 33,8 km/h (5 Bft) 97,87 %
07.11.2017 08:32 6,1 C 7,2 C 97 % 1019,3 hPa 0,0 l/m 21,6 km/h (4 Bft) O-NO 74 0 min 0,000 mm 0,0 UV-I 38 W/m 5,7 C -2,3 C 33,8 km/h (5 Bft) 100,00 %
07.11.2017 08:34 6,1 C 7,2 C 97 % 1019,3 hPa 0,0 l/m 22,6 km/h (4 Bft) NO 52 0 min 0,000 mm 0,0 UV-I 38 W/m 5,7 C -2,7 C 32,2 km/h (5 Bft) 100,00 %
07.11.2017 08:36 6,2 C 7,2 C 97 % 1019,3 hPa 0,0 l/m 18,0 km/h (3 Bft) O-NO 68 0 min 0,000 mm 0,0 UV-I 37 W/m 5,8 C -0,8 C 25,7 km/h (4 Bft) 100,00 %
07.11.2017 08:38 6,2 C 7,2 C 97 % 1019,3 hPa 0,0 l/m 23,2 km/h (4 Bft) O 83 0 min 0,000 mm 0,0 UV-I 38 W/m 5,8 C -2,7 C 35,4 km/h (5 Bft) 100,00 %
07.11.2017 08:40 6,2 C 7,2 C 97 % 1019,3 hPa 0,0 l/m 24,6 km/h (4 Bft) O-NO 63 0 min 0,000 mm 0,0 UV-I 33 W/m 5,8 C -3,2 C 33,8 km/h (5 Bft) 100,00 %
07.11.2017 08:42 6,2 C 7,2 C 97 % 1019,4 hPa 0,0 l/m 20,9 km/h (4 Bft) O 88 0 min 0,000 mm 0,0 UV-I 29 W/m 5,8 C -2,0 C 27,4 km/h (4 Bft) 97,87 %
07.11.2017 08:44 6,2 C 7,2 C 97 % 1019,4 hPa 0,0 l/m 18,4 km/h (3 Bft) O 85 0 min 0,000 mm 0,0 UV-I 34 W/m 5,8 C -1,0 C 33,8 km/h (5 Bft) 100,00 %
07.11.2017 08:46 6,2 C 7,2 C 97 % 1019,4 hPa 0,0 l/m 22,4 km/h (4 Bft) O-NO 77 0 min 0,000 mm 0,0 UV-I 29 W/m 5,8 C -2,5 C 30,6 km/h (5 Bft) 100,00 %
07.11.2017 08:48 6,2 C 7,2 C 97 % 1019,4 hPa 0,0 l/m 18,8 km/h (3 Bft) O 84 0 min 0,000 mm 0,0 UV-I 32 W/m 5,8 C -1,2 C 29,0 km/h (5 Bft) 100,00 %
07.11.2017 08:50 6,2 C 7,2 C 96 % 1019,4 hPa 0,0 l/m 18,7 km/h (3 Bft) O 98 0 min 0,000 mm 0,0 UV-I 34 W/m 5,6 C -1,1 C 27,4 km/h (4 Bft) 100,00 %
07.11.2017 08:52 6,2 C 7,2 C 96 % 1019,4 hPa 0,0 l/m 21,8 km/h (4 Bft) O-NO 67 0 min 0,000 mm 0,0 UV-I 38 W/m 5,6 C -2,3 C 29,0 km/h (5 Bft) 97,73 %
07.11.2017 08:54 6,3 C 7,2 C 96 % 1019,4 hPa 0,0 l/m 20,4 km/h (4 Bft) O 83 0 min 0,000 mm 0,0 UV-I 40 W/m 5,7 C -1,6 C 32,2 km/h (5 Bft) 100,00 %
07.11.2017 08:56 6,3 C 7,2 C 96 % 1019,3 hPa 0,0 l/m 24,2 km/h (4 Bft) O-NO 68 0 min 0,000 mm 0,0 UV-I 46 W/m 5,7 C -2,9 C 35,4 km/h (5 Bft) 97,87 %
07.11.2017 08:58 6,3 C 7,2 C 96 % 1019,3 hPa 0,0 l/m 26,4 km/h (4 Bft) O 81 0 min 0,000 mm 0,0 UV-I 49 W/m 5,7 C -3,6 C 41,8 km/h (6 Bft) 98,00 %
07.11.2017 09:00 6,3 C 7,2 C 96 % 1019,3 hPa 0,0 l/m 23,3 km/h (4 Bft) NO 55 0 min 0,025 mm 0,0 UV-I 46 W/m 5,7 C -2,6 C 32,2 km/h (5 Bft) 100,00 %
07.11.2017 09:02 6,3 C 7,2 C 96 % 1019,2 hPa 0,0 l/m 24,1 km/h (4 Bft) O-NO 57 0 min 0,000 mm 0,0 UV-I 56 W/m 5,7 C -2,9 C 33,8 km/h (5 Bft) 100,00 %
07.11.2017 09:04 6,3 C 7,2 C 96 % 1019,2 hPa 0,0 l/m 26,6 km/h (4 Bft) O 82 0 min 0,000 mm 0,0 UV-I 53 W/m 5,7 C -3,6 C 41,8 km/h (6 Bft) 94,74 %
07.11.2017 09:06 6,4 C 7,2 C 96 % 1019,2 hPa 0,0 l/m 26,7 km/h (4 Bft) O-NO 76 0 min 0,000 mm 0,0 UV-I 55 W/m 5,8 C -3,5 C 38,6 km/h (5 Bft) 98,11 %
07.11.2017 09:08 6,4 C 7,2 C 95 % 1019,2 hPa 0,0 l/m 23,3 km/h (4 Bft) O 80 0 min 0,000 mm 0,0 UV-I 49 W/m 5,7 C -2,5 C 30,6 km/h (5 Bft) 97,87 %
07.11.2017 09:10 6,4 C 7,2 C 95 % 1019,2 hPa 0,0 l/m 25,9 km/h (4 Bft) O 92 0 min 0,000 mm 0,0 UV-I 57 W/m 5,7 C -3,3 C 41,8 km/h (6 Bft) 95,74 %
07.11.2017 09:12 6,4 C 7,2 C 96 % 1019,2 hPa 0,0 l/m 23,8 km/h (4 Bft) O-NO 76 0 min 0,000 mm 0,0 UV-I 62 W/m 5,8 C -2,7 C 35,4 km/h (5 Bft) 100,00 %
07.11.2017 09:14 6,4 C 7,2 C 95 % 1019,2 hPa 0,0 l/m 20,9 km/h (4 Bft) O 84 0 min 0,000 mm 0,0 UV-I 53 W/m 5,7 C -1,7 C 35,4 km/h (5 Bft) 100,00 %
07.11.2017 09:16 6,4 C 7,2 C 95 % 1019,2 hPa 0,0 l/m 24,9 km/h (4 Bft) NO 43 0 min 0,000 mm 0,0 UV-I 50 W/m 5,7 C -3,0 C 32,2 km/h (5 Bft) 100,00 %
07.11.2017 09:18 6,4 C 7,2 C 95 % 1019,1 hPa 0,0 l/m 22,3 km/h (4 Bft) NO 36 0 min 0,000 mm 0,0 UV-I 51 W/m 5,7 C -2,2 C 30,6 km/h (5 Bft) 97,56 %
07.11.2017 09:20 6,4 C 7,2 C 95 % 1019,2 hPa 0,0 l/m 22,9 km/h (4 Bft) O-NO 63 0 min 0,000 mm 0,0 UV-I 49 W/m 5,7 C -2,4 C 33,8 km/h (5 Bft) 96,23 %
07.11.2017 09:22 6,4 C 7,2 C 95 % 1019,1 hPa 0,0 l/m 23,1 km/h (4 Bft) NO 56 0 min 0,000 mm 0,0 UV-I 52 W/m 5,7 C -2,5 C 30,6 km/h (5 Bft) 97,73 %
07.11.2017 09:24 6,4 C 7,2 C 95 % 1019,0 hPa 0,0 l/m 27,1 km/h (4 Bft) NO 54 0 min 0,000 mm 0,0 UV-I 53 W/m 5,7 C -3,7 C 41,8 km/h (6 Bft) 98,00 %
07.11.2017 09:26 6,4 C 7,2 C 95 % 1019,0 hPa 0,0 l/m 21,2 km/h (4 Bft) O-NO 71 0 min 0,000 mm 0,0 UV-I 58 W/m 5,7 C -1,8 C 29,0 km/h (5 Bft) 97,56 %
07.11.2017 09:28 6,5 C 7,2 C 95 % 1019,0 hPa 0,0 l/m 20,6 km/h (4 Bft) O-NO 70 0 min 0,000 mm 0,0 UV-I 63 W/m 5,8 C -1,5 C 27,4 km/h (4 Bft) 96,23 %
07.11.2017 09:30 6,5 C 7,2 C 95 % 1019,1 hPa 0,0 l/m 21,8 km/h (4 Bft) NO 56 0 min 0,000 mm 0,0 UV-I 73 W/m 5,8 C -1,9 C 30,6 km/h (5 Bft) 95,12 %
07.11.2017 09:32 6,6 C 7,2 C 95 % 1019,1 hPa 0,0 l/m 25,3 km/h (4 Bft) O-NO 74 0 min 0,000 mm 0,0 UV-I 75 W/m 5,9 C -2,9 C 37,0 km/h (5 Bft) 96,23 %
07.11.2017 09:34 6,6 C 7,2 C 95 % 1019,1 hPa 0,0 l/m 29,4 km/h (5 Bft) O-NO 76 0 min 0,000 mm 0,0 UV-I 73 W/m 5,9 C -4,0 C 41,8 km/h (6 Bft) 94,29 %
07.11.2017 09:36 6,6 C 7,2 C 95 % 1019,0 hPa 0,0 l/m 29,2 km/h (5 Bft) NO 38 0 min 0,000 mm 0,0 UV-I 76 W/m 5,9 C -3,9 C 45,1 km/h (6 Bft) 96,23 %
07.11.2017 09:38 6,6 C 7,2 C 95 % 1019,0 hPa 0,0 l/m 27,6 km/h (4 Bft) O-NO 67 0 min 0,000 mm 0,0 UV-I 75 W/m 5,9 C -3,5 C 37,0 km/h (5 Bft) 96,15 %
07.11.2017 09:40 6,6 C 7,2 C 95 % 1019,1 hPa 0,0 l/m 26,4 km/h (4 Bft) O-NO 61 0 min 0,000 mm 0,0 UV-I 77 W/m 5,9 C -3,2 C 32,2 km/h (5 Bft) 92,11 %
07.11.2017 09:42 6,7 C 7,2 C 94 % 1019,0 hPa 0,0 l/m 26,4 km/h (4 Bft) O-NO 71 0 min 0,000 mm 0,0 UV-I 79 W/m 5,8 C -3,0 C 32,2 km/h (5 Bft) 94,34 %
07.11.2017 09:44 6,7 C 7,2 C 94 % 1019,1 hPa 0,0 l/m 20,7 km/h (4 Bft) O 79 0 min 0,000 mm 0,0 UV-I 81 W/m 5,8 C -1,2 C 30,6 km/h (5 Bft) 97,37 %
07.11.2017 09:46 6,7 C 7,2 C 94 % 1019,0 hPa 0,0 l/m 23,1 km/h (4 Bft) O-NO 60 0 min 0,000 mm 0,0 UV-I 85 W/m 5,8 C -2,1 C 32,2 km/h (5 Bft) 92,45 %
07.11.2017 09:48 6,7 C 7,2 C 94 % 1019,0 hPa 0,0 l/m 27,1 km/h (4 Bft) O-NO 69 0 min 0,000 mm 0,0 UV-I 87 W/m 5,8 C -3,2 C 37,0 km/h (5 Bft) 96,23 %
07.11.2017 09:50 6,7 C 7,2 C 94 % 1019,1 hPa 0,0 l/m 23,9 km/h (4 Bft) O-NO 76 0 min 0,000 mm 0,0 UV-I 74 W/m 5,8 C -2,3 C 37,0 km/h (5 Bft) 95,12 %
07.11.2017 09:52 6,7 C 7,2 C 94 % 1019,1 hPa 0,0 l/m 24,8 km/h (4 Bft) O-NO 64 0 min 0,000 mm 0,0 UV-I 61 W/m 5,8 C -2,6 C 33,8 km/h (5 Bft) 97,22 %
07.11.2017 09:54 6,7 C 7,2 C 94 % 1019,1 hPa 0,2 l/m 26,2 km/h (4 Bft) O-NO 65 0 min 0,000 mm 0,0 UV-I 59 W/m 5,8 C -3,0 C 38,6 km/h (5 Bft) 98,31 %
07.11.2017 09:56 6,7 C 7,2 C 94 % 1019,0 hPa 0,0 l/m 27,0 km/h (4 Bft) O-NO 64 0 min 0,000 mm 0,0 UV-I 55 W/m 5,8 C -3,2 C 48,3 km/h (6 Bft) 97,73 %
07.11.2017 09:58 6,7 C 7,2 C 94 % 1019,0 hPa 0,0 l/m 31,4 km/h (5 Bft) O-NO 59 0 min 0,000 mm 0,0 UV-I 54 W/m 5,8 C -4,3 C 43,5 km/h (6 Bft) 98,11 %
07.11.2017 10:00 6,7 C 7,2 C 94 % 1018,9 hPa 0,0 l/m 30,5 km/h (5 Bft) O-NO 70 0 min 0,026 mm 0,0 UV-I 64 W/m 5,8 C -4,1 C 46,7 km/h (6 Bft) 97,37 %
07.11.2017 10:02 6,8 C 7,2 C 94 % 1018,9 hPa 0,0 l/m 31,7 km/h (5 Bft) O-NO 60 0 min 0,000 mm 0,0 UV-I 78 W/m 5,9 C -4,2 C 43,5 km/h (6 Bft) 96,23 %
07.11.2017 10:04 6,8 C 7,2 C 93 % 1018,9 hPa 0,0 l/m 28,6 km/h (4 Bft) O-NO 63 0 min 0,000 mm 0,0 UV-I 82 W/m 5,7 C -3,5 C 37,0 km/h (5 Bft) 95,12 %
07.11.2017 10:06 6,8 C 7,2 C 93 % 1018,9 hPa 0,0 l/m 32,4 km/h (5 Bft) O-NO 63 0 min 0,000 mm 0,0 UV-I 81 W/m 5,7 C -4,4 C 43,5 km/h (6 Bft) 94,34 %
07.11.2017 10:08 6,8 C 7,2 C 93 % 1018,8 hPa 0,0 l/m 29,8 km/h (5 Bft) O-NO 78 0 min 0,000 mm 0,0 UV-I 95 W/m 5,7 C -3,8 C 40,2 km/h (6 Bft) 100,00 %
07.11.2017 10:10 6,8 C 7,2 C 93 % 1018,8 hPa 0,0 l/m 33,8 km/h (5 Bft) O-NO 78 0 min 0,000 mm 0,0 UV-I 97 W/m 5,7 C -4,7 C 48,3 km/h (6 Bft) 96,00 %
07.11.2017 10:12 6,8 C 7,2 C 93 % 1018,9 hPa 0,0 l/m 34,9 km/h (5 Bft) O-NO 70 0 min 0,000 mm 0,0 UV-I 84 W/m 5,7 C -4,9 C 46,7 km/h (6 Bft) 98,11 %
07.11.2017 10:14 6,8 C 7,2 C 93 % 1018,8 hPa 0,0 l/m 32,9 km/h (5 Bft) O 86 0 min 0,000 mm 0,0 UV-I 84 W/m 5,7 C -4,5 C 48,3 km/h (6 Bft) 97,56 %
07.11.2017 10:16 6,8 C 7,2 C 93 % 1018,9 hPa 0,0 l/m 32,7 km/h (5 Bft) O-NO 74 0 min 0,000 mm 0,0 UV-I 94 W/m 5,7 C -4,5 C 53,1 km/h (7 Bft) 98,11 %
07.11.2017 10:18 6,8 C 7,2 C 92 % 1018,9 hPa 0,0 l/m 29,7 km/h (5 Bft) O-NO 61 0 min 0,000 mm 0,0 UV-I 94 W/m 5,6 C -3,8 C 41,8 km/h (6 Bft) 97,73 %
07.11.2017 10:20 6,8 C 7,2 C 92 % 1018,8 hPa 0,0 l/m 30,3 km/h (5 Bft) O-NO 65 0 min 0,000 mm 0,0 UV-I 102 W/m 5,6 C -3,9 C 46,7 km/h (6 Bft) 97,73 %
07.11.2017 10:22 6,8 C 7,2 C 92 % 1018,8 hPa 0,0 l/m 35,9 km/h (5 Bft) O-NO 74 0 min 0,000 mm 0,0 UV-I 101 W/m 5,6 C -5,1 C 46,7 km/h (6 Bft) 97,87 %
07.11.2017 10:24 6,8 C 7,2 C 92 % 1018,8 hPa 0,0 l/m 27,9 km/h (4 Bft) O-NO 73 0 min 0,000 mm 0,0 UV-I 112 W/m 5,6 C -3,3 C 38,6 km/h (5 Bft) 98,00 %
07.11.2017 10:26 6,8 C 7,2 C 92 % 1018,8 hPa 0,0 l/m 37,2 km/h (5 Bft) O-NO 73 0 min 0,000 mm 0,0 UV-I 112 W/m 5,6 C -5,4 C 48,3 km/h (6 Bft) 96,00 %
07.11.2017 10:28 6,9 C 7,2 C 92 % 1018,7 hPa 0,0 l/m 32,8 km/h (5 Bft) O 92 0 min 0,000 mm 0,5 UV-I 142 W/m 5,7 C -4,3 C 43,5 km/h (6 Bft) 97,73 %
07.11.2017 10:30 6,9 C 7,2 C 92 % 1018,7 hPa 0,0 l/m 33,0 km/h (5 Bft) O 81 0 min 0,000 mm 0,5 UV-I 151 W/m 5,7 C -4,4 C 45,1 km/h (6 Bft) 97,62 %
07.11.2017 10:32 6,9 C 7,2 C 92 % 1018,7 hPa 0,0 l/m 28,9 km/h (5 Bft) O-NO 63 0 min 0,000 mm 0,6 UV-I 157 W/m 5,7 C -3,4 C 43,5 km/h (6 Bft) 96,36 %
07.11.2017 10:34 6,9 C 7,2 C 92 % 1018,7 hPa 0,0 l/m 28,9 km/h (5 Bft) O 81 0 min 0,000 mm 0,6 UV-I 180 W/m 5,7 C -3,4 C 40,2 km/h (6 Bft) 97,62 %
07.11.2017 10:36 6,9 C 7,2 C 92 % 1018,6 hPa 0,0 l/m 24,0 km/h (4 Bft) O-NO 67 0 min 0,000 mm 0,7 UV-I 197 W/m 5,7 C -2,1 C 32,2 km/h (5 Bft) 98,00 %
07.11.2017 10:38 7,0 C 7,2 C 92 % 1018,7 hPa 0,0 l/m 28,1 km/h (4 Bft) O-NO 61 0 min 0,000 mm 0,7 UV-I 216 W/m 5,8 C -3,1 C 37,0 km/h (5 Bft) 100,00 %
07.11.2017 10:40 7,0 C 7,2 C 92 % 1018,6 hPa 0,0 l/m 26,3 km/h (4 Bft) NO 55 2 min 0,000 mm 0,7 UV-I 234 W/m 5,8 C -2,6 C 33,8 km/h (5 Bft) 97,56 %
07.11.2017 10:42 7,1 C 7,2 C 93 % 1018,6 hPa 0,0 l/m 24,2 km/h (4 Bft) O-NO 57 2 min 0,000 mm 0,7 UV-I 281 W/m 6,0 C -1,9 C 37,0 km/h (5 Bft) 100,00 %
07.11.2017 10:44 7,1 C 7,2 C 92 % 1018,6 hPa 0,0 l/m 28,6 km/h (4 Bft) O-NO 75 2 min 0,000 mm 0,7 UV-I 274 W/m 5,9 C -3,1 C 38,6 km/h (5 Bft) 100,00 %
07.11.2017 10:46 7,2 C 7,2 C 92 % 1018,5 hPa 0,0 l/m 30,2 km/h (5 Bft) N-NO 32 2 min 0,000 mm 0,7 UV-I 251 W/m 6,0 C -3,3 C 45,1 km/h (6 Bft) 100,00 %
07.11.2017 10:48 7,2 C 7,2 C 92 % 1018,5 hPa 0,0 l/m 26,7 km/h (4 Bft) O-NO 68 0 min 0,000 mm 0,7 UV-I 223 W/m 6,0 C -2,4 C 37,0 km/h (5 Bft) 100,00 %
07.11.2017 10:50 7,2 C 7,2 C 92 % 1018,5 hPa 0,0 l/m 25,7 km/h (4 Bft) O-NO 64 0 min 0,000 mm 0,7 UV-I 210 W/m 6,0 C -2,2 C 40,2 km/h (6 Bft) 100,00 %
07.11.2017 10:52 7,2 C 7,2 C 92 % 1018,5 hPa 0,0 l/m 24,0 km/h (4 Bft) O-NO 58 2 min 0,000 mm 0,7 UV-I 240 W/m 6,0 C -1,7 C 38,6 km/h (5 Bft) 100,00 %
07.11.2017 10:54 7,3 C 7,2 C 92 % 1018,5 hPa 0,0 l/m 28,0 km/h (4 Bft) O-NO 64 2 min 0,000 mm 0,7 UV-I 234 W/m 6,1 C -2,6 C 45,1 km/h (6 Bft) 100,00 %
07.11.2017 10:56 7,3 C 7,2 C 91 % 1018,4 hPa 0,0 l/m 31,1 km/h (5 Bft) NO 51 2 min 0,000 mm 0,7 UV-I 237 W/m 5,9 C -3,4 C 41,8 km/h (6 Bft) 98,11 %
07.11.2017 10:58 7,3 C 7,2 C 91 % 1018,3 hPa 0,0 l/m 34,3 km/h (5 Bft) NO 36 0 min 0,000 mm 0,7 UV-I 227 W/m 5,9 C -4,1 C 43,5 km/h (6 Bft) 100,00 %
07.11.2017 11:00 7,3 C 7,2 C 91 % 1018,3 hPa 0,0 l/m 29,8 km/h (5 Bft) O 82 0 min 0,101 mm 0,7 UV-I 225 W/m 5,9 C -3,1 C 38,6 km/h (5 Bft) 100,00 %
07.11.2017 11:02 7,3 C 7,2 C 91 % 1018,4 hPa 0,0 l/m 30,4 km/h (5 Bft) O-NO 59 2 min 0,000 mm 0,8 UV-I 241 W/m 5,9 C -3,2 C 40,2 km/h (6 Bft) 100,00 %
07.11.2017 11:04 7,3 C 7,2 C 91 % 1018,4 hPa 0,0 l/m 30,0 km/h (5 Bft) NO 36 0 min 0,000 mm 0,7 UV-I 215 W/m 5,9 C -3,1 C 38,6 km/h (5 Bft) 100,00 %
07.11.2017 11:06 7,3 C 7,2 C 91 % 1018,3 hPa 0,0 l/m 30,2 km/h (5 Bft) O-NO 59 0 min 0,000 mm 0,7 UV-I 203 W/m 5,9 C -3,2 C 41,8 km/h (6 Bft) 100,00 %
07.11.2017 11:08 7,3 C 7,2 C 91 % 1018,4 hPa 0,0 l/m 24,8 km/h (4 Bft) O-NO 76 0 min 0,000 mm 0,8 UV-I 215 W/m 5,9 C -1,8 C 32,2 km/h (5 Bft) 100,00 %
07.11.2017 11:10 7,3 C 7,2 C 91 % 1018,3 hPa 0,0 l/m 26,2 km/h (4 Bft) NO 49 0 min 0,000 mm 0,8 UV-I 228 W/m 5,9 C -2,2 C 37,0 km/h (5 Bft) 100,00 %
07.11.2017 11:12 7,3 C 7,2 C 91 % 1018,3 hPa 0,0 l/m 27,2 km/h (4 Bft) O-NO 62 0 min 0,000 mm 0,8 UV-I 223 W/m 5,9 C -2,4 C 35,4 km/h (5 Bft) 96,00 %
07.11.2017 11:14 7,3 C 7,2 C 91 % 1018,3 hPa 0,0 l/m 28,2 km/h (4 Bft) NO 50 0 min 0,000 mm 0,8 UV-I 197 W/m 5,9 C -2,7 C 40,2 km/h (6 Bft) 100,00 %
07.11.2017 11:16 7,3 C 7,2 C 91 % 1018,3 hPa 0,0 l/m 23,9 km/h (4 Bft) O-NO 76 0 min 0,000 mm 0,8 UV-I 197 W/m 5,9 C -1,5 C 35,4 km/h (5 Bft) 98,21 %
07.11.2017 11:18 7,3 C 7,2 C 91 % 1018,3 hPa 0,0 l/m 25,4 km/h (4 Bft) O 83 0 min 0,000 mm 0,8 UV-I 220 W/m 5,9 C -1,9 C 35,4 km/h (5 Bft) 97,56 %
07.11.2017 11:20 7,3 C 7,2 C 91 % 1018,2 hPa 0,0 l/m 21,4 km/h (4 Bft) O 94 2 min 0,000 mm 0,8 UV-I 249 W/m 5,9 C -0,7 C 29,0 km/h (5 Bft) 98,11 %
07.11.2017 11:22 7,4 C 7,2 C 91 % 1018,2 hPa 0,0 l/m 21,8 km/h (4 Bft) O-NO 69 2 min 0,000 mm 0,9 UV-I 244 W/m 6,0 C -0,7 C 32,2 km/h (5 Bft) 97,37 %
07.11.2017 11:24 7,4 C 7,2 C 91 % 1018,2 hPa 0,0 l/m 23,8 km/h (4 Bft) O 96 2 min 0,000 mm 0,9 UV-I 265 W/m 6,0 C -1,3 C 32,2 km/h (5 Bft) 96,23 %
07.11.2017 11:26 7,4 C 7,2 C 91 % 1018,1 hPa 0,0 l/m 29,4 km/h (5 Bft) NO 42 2 min 0,000 mm 0,9 UV-I 249 W/m 6,0 C -2,9 C 40,2 km/h (6 Bft) 97,73 %
07.11.2017 11:28 7,4 C 7,2 C 90 % 1018,0 hPa 0,0 l/m 25,5 km/h (4 Bft) O-NO 76 2 min 0,000 mm 0,9 UV-I 260 W/m 5,9 C -1,8 C 37,0 km/h (5 Bft) 96,23 %
07.11.2017 11:30 7,4 C 7,2 C 90 % 1018,0 hPa 0,0 l/m 24,0 km/h (4 Bft) O 97 2 min 0,000 mm 0,9 UV-I 250 W/m 5,9 C -1,4 C 32,2 km/h (5 Bft) 92,68 %
07.11.2017 11:32 7,4 C 7,2 C 90 % 1018,0 hPa 0,0 l/m 26,6 km/h (4 Bft) NO 41 2 min 0,000 mm 0,9 UV-I 262 W/m 5,9 C -2,1 C 35,4 km/h (5 Bft) 96,43 %
07.11.2017 11:34 7,4 C 7,2 C 90 % 1017,9 hPa 0,0 l/m 29,0 km/h (5 Bft) O-NO 62 0 min 0,000 mm 0,9 UV-I 227 W/m 5,9 C -2,8 C 41,8 km/h (6 Bft) 95,12 %
07.11.2017 11:36 7,4 C 7,2 C 90 % 1017,8 hPa 0,0 l/m 26,8 km/h (4 Bft) O-NO 57 0 min 0,000 mm 0,9 UV-I 211 W/m 5,9 C -2,2 C 37,0 km/h (5 Bft) 97,37 %
07.11.2017 11:38 7,4 C 7,2 C 90 % 1017,8 hPa 0,0 l/m 25,3 km/h (4 Bft) NO 46 0 min 0,000 mm 0,9 UV-I 209 W/m 5,9 C -1,8 C 38,6 km/h (5 Bft) 98,11 %
07.11.2017 11:40 7,4 C 7,2 C 90 % 1017,8 hPa 0,0 l/m 28,4 km/h (4 Bft) NO 51 0 min 0,000 mm 0,9 UV-I 228 W/m 5,9 C -2,6 C 40,2 km/h (6 Bft) 95,12 %
07.11.2017 11:42 7,4 C 7,2 C 90 % 1017,7 hPa 0,0 l/m 26,1 km/h (4 Bft) NO 50 0 min 0,000 mm 0,9 UV-I 200 W/m 5,9 C -2,0 C 33,8 km/h (5 Bft) 98,11 %
07.11.2017 11:44 7,4 C 7,2 C 90 % 1017,7 hPa 0,0 l/m 29,1 km/h (5 Bft) O-NO 74 0 min 0,000 mm 0,9 UV-I 219 W/m 5,9 C -2,8 C 41,8 km/h (6 Bft) 97,62 %
07.11.2017 11:46 7,4 C 7,2 C 90 % 1017,6 hPa 0,0 l/m 20,7 km/h (4 Bft) O-NO 63 0 min 0,000 mm 0,9 UV-I 215 W/m 5,9 C -0,3 C 29,0 km/h (5 Bft) 98,18 %
07.11.2017 11:48 7,4 C 7,2 C 90 % 1017,5 hPa 0,0 l/m 27,2 km/h (4 Bft) O-NO 73 0 min 0,000 mm 0,9 UV-I 234 W/m 5,9 C -2,3 C 37,0 km/h (5 Bft) 96,00 %
07.11.2017 11:50 7,4 C 7,2 C 90 % 1017,5 hPa 0,0 l/m 25,0 km/h (4 Bft) O-NO 73 0 min 0,000 mm 0,9 UV-I 218 W/m 5,9 C -1,7 C 37,0 km/h (5 Bft) 97,87 %
07.11.2017 11:52 7,4 C 7,2 C 90 % 1017,5 hPa 0,0 l/m 26,0 km/h (4 Bft) O-NO 58 0 min 0,000 mm 0,9 UV-I 218 W/m 5,9 C -2,0 C 35,4 km/h (5 Bft) 97,87 %
07.11.2017 11:54 7,4 C 7,2 C 90 % 1017,5 hPa 0,0 l/m 27,8 km/h (4 Bft) O 80 0 min 0,000 mm 0,9 UV-I 214 W/m 5,9 C -2,5 C 38,6 km/h (5 Bft) 100,00 %
07.11.2017 11:56 7,4 C 7,2 C 90 % 1017,5 hPa 0,0 l/m 24,9 km/h (4 Bft) O-NO 57 0 min 0,000 mm 0,8 UV-I 151 W/m 5,9 C -1,7 C 37,0 km/h (5 Bft) 96,43 %
07.11.2017 11:58 7,4 C 7,2 C 90 % 1017,5 hPa 0,0 l/m 28,3 km/h (4 Bft) O-NO 63 0 min 0,000 mm 0,8 UV-I 144 W/m 5,9 C -2,6 C 38,6 km/h (5 Bft) 100,00 %
07.11.2017 12:00 7,3 C 7,2 C 90 % 1017,5 hPa 0,0 l/m 29,3 km/h (5 Bft) O-NO 76 0 min 0,127 mm 0,8 UV-I 146 W/m 5,8 C -3,0 C 40,2 km/h (6 Bft) 96,23 %
07.11.2017 12:02 7,3 C 7,2 C 89 % 1017,4 hPa 0,0 l/m 32,5 km/h (5 Bft) O-NO 71 0 min 0,000 mm 0,7 UV-I 132 W/m 5,6 C -3,7 C 41,8 km/h (6 Bft) 100,00 %
07.11.2017 12:04 7,3 C 7,2 C 89 % 1017,3 hPa 0,0 l/m 29,4 km/h (5 Bft) NO 42 0 min 0,000 mm 0,7 UV-I 138 W/m 5,6 C -3,0 C 41,8 km/h (6 Bft) 100,00 %
07.11.2017 12:06 7,3 C 7,2 C 89 % 1017,4 hPa 0,0 l/m 27,7 km/h (4 Bft) O-NO 74 0 min 0,000 mm 0,7 UV-I 136 W/m 5,6 C -2,6 C 40,2 km/h (6 Bft) 100,00 %
07.11.2017 12:08 7,3 C 7,2 C 89 % 1017,4 hPa 0,0 l/m 27,2 km/h (4 Bft) O-NO 65 0 min 0,000 mm 0,7 UV-I 201 W/m 5,6 C -2,4 C 41,8 km/h (6 Bft) 100,00 %
07.11.2017 12:10 7,4 C 7,2 C 89 % 1017,4 hPa 0,0 l/m 27,1 km/h (4 Bft) NO 42 0 min 0,000 mm 0,7 UV-I 203 W/m 5,7 C -2,3 C 38,6 km/h (5 Bft) 100,00 %
07.11.2017 12:12 7,4 C 7,2 C 88 % 1017,3 hPa 0,0 l/m 28,3 km/h (4 Bft) O-NO 64 0 min 0,000 mm 0,7 UV-I 187 W/m 5,5 C -2,6 C 40,2 km/h (6 Bft) 100,00 %
07.11.2017 12:14 7,4 C 7,2 C 89 % 1017,3 hPa 0,0 l/m 27,1 km/h (4 Bft) NO 56 0 min 0,000 mm 0,7 UV-I 207 W/m 5,7 C -2,3 C 41,8 km/h (6 Bft) 100,00 %
07.11.2017 12:16 7,5 C 7,2 C 88 % 1017,2 hPa 0,0 l/m 31,6 km/h (5 Bft) NO 51 0 min 0,000 mm 0,8 UV-I 230 W/m 5,6 C -3,2 C 45,1 km/h (6 Bft) 100,00 %
07.11.2017 12:18 7,5 C 7,2 C 88 % 1017,2 hPa 0,0 l/m 23,6 km/h (4 Bft) O-NO 62 0 min 0,000 mm 0,7 UV-I 220 W/m 5,6 C -1,1 C 32,2 km/h (5 Bft) 100,00 %
07.11.2017 12:20 7,6 C 7,2 C 89 % 1017,2 hPa 0,0 l/m 24,0 km/h (4 Bft) O-NO 71 0 min 0,000 mm 0,7 UV-I 206 W/m 5,9 C -1,1 C 33,8 km/h (5 Bft) 100,00 %
07.11.2017 12:22 7,6 C 7,2 C 88 % 1017,2 hPa 0,0 l/m 31,3 km/h (5 Bft) O 83 0 min 0,000 mm 0,7 UV-I 187 W/m 5,7 C -3,0 C 41,8 km/h (6 Bft) 100,00 %
07.11.2017 12:24 7,5 C 7,2 C 88 % 1017,1 hPa 0,0 l/m 29,3 km/h (5 Bft) NO 53 0 min 0,000 mm 0,7 UV-I 190 W/m 5,6 C -2,7 C 40,2 km/h (6 Bft) 94,00 %
07.11.2017 12:26 7,5 C 7,2 C 88 % 1017,1 hPa 0,0 l/m 25,0 km/h (4 Bft) O-NO 76 0 min 0,000 mm 0,7 UV-I 203 W/m 5,6 C -1,6 C 35,4 km/h (5 Bft) 100,00 %
07.11.2017 12:28 7,5 C 7,2 C 88 % 1017,1 hPa 0,0 l/m 23,0 km/h (4 Bft) O-NO 61 0 min 0,000 mm 0,6 UV-I 181 W/m 5,6 C -1,0 C 35,4 km/h (5 Bft) 100,00 %
07.11.2017 12:30 7,5 C 7,2 C 88 % 1017,1 hPa 0,0 l/m 25,4 km/h (4 Bft) O 89 0 min 0,000 mm 0,7 UV-I 173 W/m 5,6 C -1,7 C 38,6 km/h (5 Bft) 96,15 %
07.11.2017 12:32 7,5 C 7,2 C 88 % 1017,1 hPa 0,0 l/m 27,3 km/h (4 Bft) O-NO 71 0 min 0,000 mm 0,8 UV-I 194 W/m 5,6 C -2,2 C 40,2 km/h (6 Bft) 100,00 %
07.11.2017 12:34 7,5 C 7,2 C 88 % 1017,1 hPa 0,0 l/m 29,0 km/h (5 Bft) O-NO 64 0 min 0,000 mm 0,8 UV-I 172 W/m 5,6 C -2,6 C 41,8 km/h (6 Bft) 100,00 %
07.11.2017 12:36 7,4 C 7,2 C 88 % 1017,0 hPa 0,0 l/m 27,4 km/h (4 Bft) O-NO 66 0 min 0,000 mm 0,8 UV-I 195 W/m 5,5 C -2,4 C 38,6 km/h (5 Bft) 96,23 %
07.11.2017 12:38 7,5 C 7,2 C 88 % 1017,0 hPa 0,0 l/m 28,0 km/h (4 Bft) O-NO 74 0 min 0,000 mm 0,8 UV-I 216 W/m 5,6 C -2,4 C 38,6 km/h (5 Bft) 97,56 %
07.11.2017 12:40 7,4 C 7,2 C 88 % 1017,0 hPa 0,0 l/m 34,6 km/h (5 Bft) O-NO 57 0 min 0,000 mm 0,8 UV-I 208 W/m 5,5 C -4,0 C 49,9 km/h (6 Bft) 100,00 %
07.11.2017 12:42 7,4 C 7,2 C 88 % 1016,9 hPa 0,0 l/m 33,7 km/h (5 Bft) O-NO 59 0 min 0,000 mm 0,7 UV-I 173 W/m 5,5 C -3,8 C 45,1 km/h (6 Bft) 100,00 %
07.11.2017 12:44 7,4 C 7,2 C 88 % 1017,0 hPa 0,0 l/m 30,7 km/h (5 Bft) O-NO 67 0 min 0,000 mm 0,7 UV-I 179 W/m 5,5 C -3,2 C 43,5 km/h (6 Bft) 98,18 %
07.11.2017 12:46 7,4 C 7,2 C 88 % 1016,9 hPa 0,0 l/m 25,5 km/h (4 Bft) O-NO 66 0 min 0,000 mm 0,8 UV-I 198 W/m 5,5 C -1,8 C 43,5 km/h (6 Bft) 98,00 %
07.11.2017 12:48 7,4 C 7,2 C 88 % 1016,9 hPa 0,0 l/m 28,5 km/h (4 Bft) NO 51 0 min 0,000 mm 0,7 UV-I 187 W/m 5,5 C -2,6 C 40,2 km/h (6 Bft) 100,00 %
07.11.2017 12:50 7,4 C 7,2 C 88 % 1016,9 hPa 0,0 l/m 26,3 km/h (4 Bft) O 92 0 min 0,000 mm 0,7 UV-I 217 W/m 5,5 C -2,1 C 33,8 km/h (5 Bft) 100,00 %
07.11.2017 12:52 7,4 C 7,2 C 88 % 1016,9 hPa 0,0 l/m 27,0 km/h (4 Bft) O-NO 61 0 min 0,000 mm 0,6 UV-I 157 W/m 5,5 C -2,2 C 40,2 km/h (6 Bft) 100,00 %
07.11.2017 12:54 7,4 C 7,2 C 88 % 1016,9 hPa 0,0 l/m 30,7 km/h (5 Bft) O 84 0 min 0,000 mm 0,6 UV-I 137 W/m 5,5 C -3,2 C 40,2 km/h (6 Bft) 98,11 %
07.11.2017 12:56 7,4 C 7,2 C 88 % 1016,9 hPa 0,0 l/m 26,7 km/h (4 Bft) NO 40 0 min 0,000 mm 0,7 UV-I 157 W/m 5,5 C -2,2 C 35,4 km/h (5 Bft) 100,00 %
07.11.2017 12:58 7,4 C 7,2 C 89 % 1016,9 hPa 0,0 l/m 23,9 km/h (4 Bft) O 86 0 min 0,000 mm 0,7 UV-I 179 W/m 5,7 C -1,4 C 40,2 km/h (6 Bft) 98,00 %
07.11.2017 13:00 7,4 C 7,2 C 89 % 1016,9 hPa 0,0 l/m 25,2 km/h (4 Bft) O-NO 78 0 min 0,102 mm 0,7 UV-I 181 W/m 5,7 C -1,7 C 37,0 km/h (5 Bft) 100,00 %
07.11.2017 13:02 7,4 C 7,2 C 88 % 1016,8 hPa 0,0 l/m 31,2 km/h (5 Bft) O-NO 71 0 min 0,000 mm 0,6 UV-I 167 W/m 5,5 C -3,3 C 46,7 km/h (6 Bft) 97,87 %
07.11.2017 13:04 7,4 C 7,2 C 88 % 1016,9 hPa 0,0 l/m 29,5 km/h (5 Bft) NO 55 0 min 0,000 mm 0,6 UV-I 159 W/m 5,5 C -2,9 C 40,2 km/h (6 Bft) 100,00 %
07.11.2017 13:06 7,4 C 7,2 C 88 % 1016,8 hPa 0,0 l/m 31,1 km/h (5 Bft) NO 48 0 min 0,000 mm 0,6 UV-I 146 W/m 5,5 C -3,3 C 41,8 km/h (6 Bft) 100,00 %
07.11.2017 13:08 7,4 C 7,2 C 88 % 1016,9 hPa 0,0 l/m 26,6 km/h (4 Bft) O-NO 58 0 min 0,000 mm 0,5 UV-I 136 W/m 5,5 C -2,1 C 37,0 km/h (5 Bft) 100,00 %
07.11.2017 13:10 7,4 C 7,2 C 89 % 1016,9 hPa 0,0 l/m 26,2 km/h (4 Bft) O 100 0 min 0,000 mm 0,5 UV-I 149 W/m 5,7 C -2,0 C 33,8 km/h (5 Bft) 100,00 %
07.11.2017 13:12 7,4 C 7,2 C 89 % 1016,9 hPa 0,0 l/m 26,7 km/h (4 Bft) O-NO 78 0 min 0,000 mm 0,0 UV-I 123 W/m 5,7 C -2,2 C 38,6 km/h (5 Bft) 100,00 %
07.11.2017 13:14 7,4 C 7,2 C 89 % 1016,8 hPa 0,0 l/m 18,6 km/h (3 Bft) O-NO 78 0 min 0,000 mm 0,0 UV-I 113 W/m 5,7 C 0,5 C 27,4 km/h (4 Bft) 97,73 %
07.11.2017 13:16 7,4 C 7,2 C 89 % 1016,8 hPa 0,0 l/m 21,3 km/h (4 Bft) O-NO 67 0 min 0,000 mm 0,4 UV-I 130 W/m 5,7 C -0,5 C 32,2 km/h (5 Bft) 94,00 %
07.11.2017 13:18 7,4 C 7,2 C 89 % 1016,6 hPa 0,0 l/m 28,4 km/h (4 Bft) O-NO 63 0 min 0,000 mm 0,6 UV-I 162 W/m 5,7 C -2,6 C 38,6 km/h (5 Bft) 100,00 %
07.11.2017 13:20 7,4 C 7,2 C 89 % 1016,6 hPa 0,0 l/m 28,0 km/h (4 Bft) O-NO 78 0 min 0,000 mm 0,6 UV-I 155 W/m 5,7 C -2,5 C 35,4 km/h (5 Bft) 96,43 %
07.11.2017 13:22 7,4 C 7,2 C 89 % 1016,6 hPa 0,0 l/m 25,5 km/h (4 Bft) NO 38 0 min 0,000 mm 0,6 UV-I 139 W/m 5,7 C -1,8 C 37,0 km/h (5 Bft) 97,56 %
07.11.2017 13:24 7,4 C 7,2 C 89 % 1016,6 hPa 0,0 l/m 29,9 km/h (5 Bft) O 87 0 min 0,000 mm 0,6 UV-I 156 W/m 5,7 C -3,0 C 41,8 km/h (6 Bft) 98,18 %
07.11.2017 13:26 7,4 C 7,2 C 89 % 1016,6 hPa 0,0 l/m 25,9 km/h (4 Bft) O-NO 60 0 min 0,000 mm 0,7 UV-I 158 W/m 5,7 C -1,9 C 35,4 km/h (5 Bft) 98,11 %
07.11.2017 13:28 7,4 C 7,2 C 89 % 1016,6 hPa 0,0 l/m 25,7 km/h (4 Bft) O 79 0 min 0,000 mm 0,7 UV-I 154 W/m 5,7 C -1,9 C 40,2 km/h (6 Bft) 93,18 %
07.11.2017 13:30 7,3 C 7,2 C 89 % 1016,5 hPa 0,0 l/m 24,1 km/h (4 Bft) O-NO 71 0 min 0,000 mm 0,7 UV-I 153 W/m 5,6 C -1,6 C 38,6 km/h (5 Bft) 96,00 %
07.11.2017 13:32 7,4 C 7,2 C 89 % 1016,5 hPa 0,0 l/m 26,3 km/h (4 Bft) O-NO 72 0 min 0,000 mm 0,6 UV-I 151 W/m 5,7 C -2,1 C 35,4 km/h (5 Bft) 95,74 %
07.11.2017 13:34 7,3 C 7,2 C 89 % 1016,5 hPa 0,0 l/m 29,9 km/h (5 Bft) O-SO 109 0 min 0,000 mm 0,6 UV-I 129 W/m 5,6 C -3,1 C 41,8 km/h (6 Bft) 97,14 %
07.11.2017 13:36 7,3 C 7,2 C 89 % 1016,5 hPa 0,0 l/m 24,4 km/h (4 Bft) O-NO 63 0 min 0,000 mm 0,5 UV-I 108 W/m 5,6 C -1,6 C 32,2 km/h (5 Bft) 95,74 %
07.11.2017 13:38 7,3 C 7,2 C 89 % 1016,4 hPa 0,0 l/m 21,6 km/h (4 Bft) O 85 0 min 0,000 mm 0,1 UV-I 102 W/m 5,6 C -0,8 C 30,6 km/h (5 Bft) 98,21 %
07.11.2017 13:40 7,3 C 7,2 C 89 % 1016,4 hPa 0,0 l/m 24,0 km/h (4 Bft) O 97 0 min 0,000 mm 0,0 UV-I 88 W/m 5,6 C -1,5 C 35,4 km/h (5 Bft) 97,37 %
07.11.2017 13:42 7,3 C 7,2 C 89 % 1016,4 hPa 0,0 l/m 19,2 km/h (3 Bft) NO 45 0 min 0,000 mm 0,0 UV-I 75 W/m 5,6 C 0,1 C 25,7 km/h (4 Bft) 88,46 %
07.11.2017 13:44 7,3 C 7,2 C 89 % 1016,3 hPa 0,0 l/m 22,4 km/h (4 Bft) O-NO 66 0 min 0,000 mm 0,0 UV-I 67 W/m 5,6 C -1,0 C 27,4 km/h (4 Bft) 95,24 %
07.11.2017 13:46 7,3 C 7,2 C 89 % 1016,3 hPa 0,0 l/m 24,6 km/h (4 Bft) N-NO 33 0 min 0,000 mm 0,0 UV-I 71 W/m 5,6 C -1,7 C 32,2 km/h (5 Bft) 96,00 %
07.11.2017 13:48 7,3 C 7,2 C 89 % 1016,4 hPa 0,0 l/m 22,8 km/h (4 Bft) O-NO 77 0 min 0,000 mm 0,0 UV-I 70 W/m 5,6 C -1,2 C 32,2 km/h (5 Bft) 95,74 %
07.11.2017 13:50 7,3 C 7,2 C 89 % 1016,2 hPa 0,0 l/m 25,7 km/h (4 Bft) O-NO 74 0 min 0,000 mm 0,0 UV-I 68 W/m 5,6 C -2,0 C 38,6 km/h (5 Bft) 98,11 %
07.11.2017 13:52 7,3 C 7,2 C 89 % 1016,2 hPa 0,0 l/m 25,1 km/h (4 Bft) O-NO 76 0 min 0,000 mm 0,0 UV-I 75 W/m 5,6 C -1,9 C 32,2 km/h (5 Bft) 93,33 %
07.11.2017 13:54 7,3 C 7,2 C 90 % 1016,2 hPa 0,0 l/m 25,2 km/h (4 Bft) NO 55 0 min 0,000 mm 0,0 UV-I 72 W/m 5,8 C -1,9 C 38,6 km/h (5 Bft) 95,45 %
07.11.2017 13:56 7,3 C 7,2 C 89 % 1016,3 hPa 0,0 l/m 28,8 km/h (4 Bft) O-NO 57 0 min 0,000 mm 0,0 UV-I 66 W/m 5,6 C -2,8 C 43,5 km/h (6 Bft) 96,23 %
07.11.2017 13:58 7,3 C 7,2 C 89 % 1016,3 hPa 0,0 l/m 22,4 km/h (4 Bft) O 80 0 min 0,000 mm 0,0 UV-I 62 W/m 5,6 C -1,0 C 35,4 km/h (5 Bft) 92,68 %
07.11.2017 14:00 7,3 C 7,2 C 90 % 1016,3 hPa 0,0 l/m 16,2 km/h (3 Bft) O-NO 66 0 min 0,000 mm 0,0 UV-I 61 W/m 5,8 C 1,3 C 20,9 km/h (4 Bft) 97,56 %
07.11.2017 14:02 7,3 C 7,2 C 90 % 1016,2 hPa 0,0 l/m 20,2 km/h (4 Bft) O-NO 62 0 min 0,076 mm 0,0 UV-I 72 W/m 5,8 C -0,3 C 25,7 km/h (4 Bft) 98,00 %
07.11.2017 14:04 7,3 C 7,2 C 90 % 1016,2 hPa 0,0 l/m 25,2 km/h (4 Bft) O-NO 74 0 min 0,000 mm 0,0 UV-I 94 W/m 5,8 C -1,9 C 33,8 km/h (5 Bft) 93,62 %
07.11.2017 14:06 7,3 C 7,2 C 90 % 1016,2 hPa 0,0 l/m 21,3 km/h (4 Bft) O 96 0 min 0,000 mm 0,0 UV-I 95 W/m 5,8 C -0,7 C 30,6 km/h (5 Bft) 95,74 %
07.11.2017 14:08 7,3 C 7,2 C 90 % 1016,2 hPa 0,0 l/m 24,3 km/h (4 Bft) NO 56 0 min 0,000 mm 0,0 UV-I 105 W/m 5,8 C -1,6 C 33,8 km/h (5 Bft) 98,11 %
07.11.2017 14:10 7,3 C 7,2 C 90 % 1016,2 hPa 0,0 l/m 23,5 km/h (4 Bft) O-NO 65 0 min 0,000 mm 0,0 UV-I 84 W/m 5,8 C -1,4 C 35,4 km/h (5 Bft) 94,74 %
07.11.2017 14:12 7,3 C 7,2 C 90 % 1016,2 hPa 0,0 l/m 20,0 km/h (4 Bft) O 86 0 min 0,000 mm 0,0 UV-I 50 W/m 5,8 C -0,2 C 29,0 km/h (5 Bft) 97,87 %
07.11.2017 14:14 7,3 C 7,2 C 90 % 1016,1 hPa 0,0 l/m 20,2 km/h (4 Bft) O-NO 61 0 min 0,000 mm 0,0 UV-I 43 W/m 5,8 C -0,3 C 30,6 km/h (5 Bft) 98,00 %
07.11.2017 14:16 7,3 C 7,2 C 90 % 1016,1 hPa 0,0 l/m 23,8 km/h (4 Bft) O-NO 59 0 min 0,000 mm 0,0 UV-I 37 W/m 5,8 C -1,5 C 32,2 km/h (5 Bft) 95,74 %
07.11.2017 14:18 7,3 C 7,2 C 90 % 1016,1 hPa 0,0 l/m 23,2 km/h (4 Bft) O 82 0 min 0,000 mm 0,0 UV-I 33 W/m 5,8 C -1,3 C 32,2 km/h (5 Bft) 98,11 %
07.11.2017 14:20 7,3 C 7,2 C 90 % 1016,1 hPa 0,0 l/m 21,5 km/h (4 Bft) O-NO 62 0 min 0,000 mm 0,0 UV-I 33 W/m 5,8 C -0,7 C 32,2 km/h (5 Bft) 97,37 %
07.11.2017 14:22 7,3 C 7,2 C 90 % 1016,1 hPa 0,0 l/m 21,1 km/h (4 Bft) O 80 0 min 0,000 mm 0,0 UV-I 38 W/m 5,8 C -0,6 C 30,6 km/h (5 Bft) 96,23 %
07.11.2017 14:24 7,2 C 7,2 C 90 % 1016,1 hPa 0,0 l/m 22,7 km/h (4 Bft) NO 55 0 min 0,000 mm 0,0 UV-I 35 W/m 5,7 C -1,3 C 33,8 km/h (5 Bft) 96,00 %
07.11.2017 14:26 7,2 C 7,2 C 90 % 1016,1 hPa 0,0 l/m 21,8 km/h (4 Bft) O-NO 71 0 min 0,000 mm 0,0 UV-I 34 W/m 5,7 C -1,0 C 30,6 km/h (5 Bft) 97,56 %
07.11.2017 14:28 7,2 C 7,2 C 90 % 1016,0 hPa 0,0 l/m 21,8 km/h (4 Bft) O-NO 62 0 min 0,000 mm 0,0 UV-I 36 W/m 5,7 C -1,0 C 29,0 km/h (5 Bft) 98,00 %
07.11.2017 14:30 7,2 C 7,2 C 90 % 1015,9 hPa 0,0 l/m 20,6 km/h (4 Bft) O-NO 76 0 min 0,000 mm 0,0 UV-I 43 W/m 5,7 C -0,5 C 27,4 km/h (4 Bft) 97,92 %
07.11.2017 14:32 7,2 C 7,2 C 90 % 1015,9 hPa 0,0 l/m 24,7 km/h (4 Bft) NO 53 0 min 0,000 mm 0,0 UV-I 51 W/m 5,7 C -1,9 C 35,4 km/h (5 Bft) 97,87 %
07.11.2017 14:34 7,2 C 7,2 C 90 % 1015,9 hPa 0,0 l/m 20,0 km/h (4 Bft) O-NO 70 0 min 0,000 mm 0,0 UV-I 59 W/m 5,7 C -0,3 C 27,4 km/h (4 Bft) 97,56 %
07.11.2017 14:36 7,2 C 7,2 C 90 % 1015,9 hPa 0,0 l/m 19,5 km/h (3 Bft) O 80 0 min 0,000 mm 0,0 UV-I 68 W/m 5,7 C -0,1 C 29,0 km/h (5 Bft) 96,00 %
07.11.2017 14:38 7,2 C 7,2 C 90 % 1015,9 hPa 0,0 l/m 20,8 km/h (4 Bft) NO 52 0 min 0,000 mm 0,0 UV-I 72 W/m 5,7 C -0,6 C 27,4 km/h (4 Bft) 98,00 %
07.11.2017 14:40 7,2 C 7,2 C 90 % 1015,9 hPa 0,0 l/m 18,3 km/h (3 Bft) NO 56 0 min 0,000 mm 0,0 UV-I 75 W/m 5,7 C 0,3 C 25,7 km/h (4 Bft) 97,56 %
07.11.2017 14:42 7,3 C 7,2 C 91 % 1016,0 hPa 0,0 l/m 22,4 km/h (4 Bft) O-NO 61 0 min 0,000 mm 0,0 UV-I 79 W/m 5,9 C -1,0 C 27,4 km/h (4 Bft) 92,68 %
07.11.2017 14:44 7,3 C 7,2 C 91 % 1015,9 hPa 0,0 l/m 23,6 km/h (4 Bft) O 80 0 min 0,000 mm 0,0 UV-I 74 W/m 5,9 C -1,4 C 32,2 km/h (5 Bft) 96,23 %
07.11.2017 14:46 7,3 C 7,2 C 90 % 1015,9 hPa 0,0 l/m 23,3 km/h (4 Bft) O 83 0 min 0,000 mm 0,0 UV-I 68 W/m 5,8 C -1,3 C 32,2 km/h (5 Bft) 96,00 %
07.11.2017 14:48 7,3 C 7,2 C 90 % 1016,0 hPa 0,0 l/m 23,1 km/h (4 Bft) O-NO 67 0 min 0,000 mm 0,0 UV-I 67 W/m 5,8 C -1,3 C 32,2 km/h (5 Bft) 100,00 %
07.11.2017 14:50 7,3 C 7,2 C 90 % 1015,9 hPa 0,0 l/m 20,7 km/h (4 Bft) O 94 0 min 0,000 mm 0,0 UV-I 56 W/m 5,8 C -0,5 C 29,0 km/h (5 Bft) 96,61 %
07.11.2017 14:52 7,3 C 7,2 C 90 % 1016,0 hPa 0,0 l/m 20,7 km/h (4 Bft) O-NO 74 0 min 0,000 mm 0,0 UV-I 50 W/m 5,8 C -0,5 C 30,6 km/h (5 Bft) 100,00 %
07.11.2017 14:54 7,3 C 7,2 C 90 % 1016,0 hPa 0,0 l/m 22,0 km/h (4 Bft) O 85 0 min 0,000 mm 0,0 UV-I 50 W/m 5,8 C -0,9 C 30,6 km/h (5 Bft) 100,00 %
07.11.2017 14:56 7,3 C 7,2 C 90 % 1015,9 hPa 0,0 l/m 21,9 km/h (4 Bft) O-NO 63 0 min 0,000 mm 0,0 UV-I 50 W/m 5,8 C -0,9 C 30,6 km/h (5 Bft) 100,00 %
07.11.2017 14:58 7,3 C 7,2 C 90 % 1016,0 hPa 0,0 l/m 22,2 km/h (4 Bft) NO 56 0 min 0,000 mm 0,0 UV-I 46 W/m 5,8 C -1,0 C 29,0 km/h (5 Bft) 100,00 %
07.11.2017 15:00 7,3 C 7,2 C 90 % 1016,1 hPa 0,0 l/m 20,4 km/h (4 Bft) O-NO 73 0 min 0,051 mm 0,0 UV-I 41 W/m 5,8 C -0,3 C 30,6 km/h (5 Bft) 100,00 %
07.11.2017 15:02 7,3 C 7,2 C 91 % 1016,0 hPa 0,0 l/m 19,3 km/h (3 Bft) O-NO 69 0 min 0,000 mm 0,0 UV-I 34 W/m 5,9 C 0,1 C 27,4 km/h (4 Bft) 100,00 %
07.11.2017 15:04 7,3 C 7,2 C 91 % 1015,9 hPa 0,0 l/m 17,8 km/h (3 Bft) O-NO 67 0 min 0,000 mm 0,0 UV-I 33 W/m 5,9 C 0,6 C 25,7 km/h (4 Bft) 97,62 %
07.11.2017 15:06 7,3 C 7,2 C 91 % 1016,0 hPa 0,0 l/m 16,1 km/h (3 Bft) O-NO 76 0 min 0,000 mm 0,0 UV-I 30 W/m 5,9 C 1,4 C 20,9 km/h (4 Bft) 100,00 %
07.11.2017 15:08 7,3 C 7,2 C 91 % 1016,0 hPa 0,0 l/m 19,5 km/h (3 Bft) NO 56 0 min 0,000 mm 0,0 UV-I 26 W/m 5,9 C -0,0 C 29,0 km/h (5 Bft) 98,00 %
07.11.2017 15:10 7,3 C 7,2 C 91 % 1015,9 hPa 0,0 l/m 20,6 km/h (4 Bft) NO 41 0 min 0,000 mm 0,0 UV-I 26 W/m 5,9 C -0,4 C 25,7 km/h (4 Bft) 97,56 %
07.11.2017 15:12 7,3 C 7,2 C 91 % 1015,9 hPa 0,0 l/m 20,0 km/h (4 Bft) O-NO 64 0 min 0,000 mm 0,0 UV-I 28 W/m 5,9 C -0,2 C 29,0 km/h (5 Bft) 98,00 %
07.11.2017 15:14 7,3 C 7,2 C 91 % 1015,9 hPa 0,0 l/m 18,1 km/h (3 Bft) O-NO 76 0 min 0,000 mm 0,0 UV-I 30 W/m 5,9 C 0,5 C 22,5 km/h (4 Bft) 100,00 %
07.11.2017 15:16 7,3 C 7,2 C 91 % 1015,9 hPa 0,0 l/m 20,6 km/h (4 Bft) O 83 0 min 0,000 mm 0,0 UV-I 32 W/m 5,9 C -0,4 C 30,6 km/h (5 Bft) 95,38 %
07.11.2017 15:18 7,3 C 7,2 C 91 % 1015,7 hPa 0,0 l/m 21,6 km/h (4 Bft) O-NO 77 0 min 0,000 mm 0,0 UV-I 31 W/m 5,9 C -0,8 C 27,4 km/h (4 Bft) 97,87 %
07.11.2017 15:20 7,3 C 7,2 C 91 % 1015,7 hPa 0,0 l/m 22,4 km/h (4 Bft) O-NO 65 0 min 0,000 mm 0,0 UV-I 27 W/m 5,9 C -1,0 C 29,0 km/h (5 Bft) 97,44 %
07.11.2017 15:22 7,3 C 7,2 C 91 % 1015,7 hPa 0,0 l/m 20,5 km/h (4 Bft) NO 50 0 min 0,000 mm 0,0 UV-I 26 W/m 5,9 C -0,4 C 27,4 km/h (4 Bft) 96,43 %
07.11.2017 15:24 7,4 C 7,2 C 91 % 1015,7 hPa 0,0 l/m 21,9 km/h (4 Bft) O-NO 60 0 min 0,000 mm 0,0 UV-I 31 W/m 6,0 C -0,7 C 29,0 km/h (5 Bft) 94,74 %
07.11.2017 15:26 7,3 C 7,2 C 91 % 1015,7 hPa 0,0 l/m 20,6 km/h (4 Bft) O-NO 71 0 min 0,000 mm 0,0 UV-I 32 W/m 5,9 C -0,4 C 30,6 km/h (5 Bft) 98,21 %
07.11.2017 15:28 7,4 C 7,2 C 91 % 1015,6 hPa 0,0 l/m 21,2 km/h (4 Bft) O-NO 61 0 min 0,000 mm 0,0 UV-I 33 W/m 6,0 C -0,5 C 29,0 km/h (5 Bft) 97,87 %
07.11.2017 15:30 7,4 C 7,2 C 91 % 1015,7 hPa 0,0 l/m 17,9 km/h (3 Bft) NO 55 0 min 0,000 mm 0,0 UV-I 33 W/m 6,0 C 0,7 C 25,7 km/h (4 Bft) 94,74 %
07.11.2017 15:32 7,4 C 7,2 C 91 % 1015,8 hPa 0,0 l/m 25,3 km/h (4 Bft) O-NO 66 0 min 0,000 mm 0,0 UV-I 33 W/m 6,0 C -1,8 C 35,4 km/h (5 Bft) 95,74 %
07.11.2017 15:34 7,4 C 7,2 C 91 % 1015,8 hPa 0,0 l/m 20,8 km/h (4 Bft) O 80 0 min 0,000 mm 0,0 UV-I 32 W/m 6,0 C -0,4 C 29,0 km/h (5 Bft) 96,00 %
07.11.2017 15:36 7,4 C 7,2 C 91 % 1015,7 hPa 0,0 l/m 17,3 km/h (3 Bft) O-NO 74 0 min 0,000 mm 0,0 UV-I 31 W/m 6,0 C 1,0 C 22,5 km/h (4 Bft) 98,11 %
07.11.2017 15:38 7,4 C 7,2 C 91 % 1015,7 hPa 0,0 l/m 18,4 km/h (3 Bft) O-NO 67 0 min 0,000 mm 0,0 UV-I 32 W/m 6,0 C 0,5 C 24,1 km/h (4 Bft) 95,45 %
07.11.2017 15:40 7,4 C 7,2 C 91 % 1015,7 hPa 0,0 l/m 17,2 km/h (3 Bft) O-NO 65 0 min 0,000 mm 0,0 UV-I 32 W/m 6,0 C 1,0 C 24,1 km/h (4 Bft) 95,12 %
07.11.2017 15:42 7,4 C 7,2 C 91 % 1015,6 hPa 0,0 l/m 19,3 km/h (3 Bft) NO 48 0 min 0,000 mm 0,0 UV-I 30 W/m 6,0 C 0,2 C 25,7 km/h (4 Bft) 97,87 %
07.11.2017 15:44 7,5 C 7,2 C 91 % 1015,6 hPa 0,0 l/m 18,0 km/h (3 Bft) O-NO 62 0 min 0,000 mm 0,0 UV-I 31 W/m 6,1 C 0,8 C 24,1 km/h (4 Bft) 98,11 %
07.11.2017 15:46 7,4 C 7,2 C 91 % 1015,5 hPa 0,0 l/m 16,1 km/h (3 Bft) NO 37 0 min 0,000 mm 0,0 UV-I 33 W/m 6,0 C 1,5 C 22,5 km/h (4 Bft) 97,44 %
07.11.2017 15:48 7,5 C 7,2 C 91 % 1015,5 hPa 0,0 l/m 18,2 km/h (3 Bft) O-NO 71 0 min 0,000 mm 0,0 UV-I 32 W/m 6,1 C 0,7 C 29,0 km/h (5 Bft) 98,21 %
07.11.2017 15:50 7,5 C 7,2 C 91 % 1015,5 hPa 0,0 l/m 17,4 km/h (3 Bft) O-NO 57 0 min 0,000 mm 0,0 UV-I 29 W/m 6,1 C 1,1 C 25,7 km/h (4 Bft) 100,00 %
07.11.2017 15:52 7,5 C 7,2 C 91 % 1015,4 hPa 0,0 l/m 14,4 km/h (3 Bft) O-NO 59 0 min 0,000 mm 0,0 UV-I 27 W/m 6,1 C 2,4 C 22,5 km/h (4 Bft) 97,73 %
07.11.2017 15:54 7,5 C 7,2 C 91 % 1015,4 hPa 0,0 l/m 19,1 km/h (3 Bft) O-NO 59 0 min 0,000 mm 0,0 UV-I 27 W/m 6,1 C 0,4 C 24,1 km/h (4 Bft) 100,00 %
07.11.2017 15:56 7,5 C 7,2 C 91 % 1015,4 hPa 0,0 l/m 17,7 km/h (3 Bft) O-NO 65 0 min 0,000 mm 0,0 UV-I 29 W/m 6,1 C 0,9 C 29,0 km/h (5 Bft) 100,00 %
07.11.2017 15:58 7,5 C 7,2 C 91 % 1015,4 hPa 0,0 l/m 19,8 km/h (3 Bft) NO 54 0 min 0,000 mm 0,0 UV-I 27 W/m 6,1 C 0,1 C 30,6 km/h (5 Bft) 97,87 %
07.11.2017 16:00 7,5 C 7,2 C 91 % 1015,4 hPa 0,0 l/m 22,1 km/h (4 Bft) O-NO 71 0 min 0,025 mm 0,0 UV-I 25 W/m 6,1 C -0,7 C 29,0 km/h (5 Bft) 98,00 %
07.11.2017 16:02 7,6 C 7,2 C 91 % 1015,4 hPa 0,0 l/m 21,2 km/h (4 Bft) O-NO 59 0 min 0,000 mm 0,0 UV-I 25 W/m 6,2 C -0,2 C 30,6 km/h (5 Bft) 97,56 %
07.11.2017 16:04 7,6 C 7,2 C 91 % 1015,4 hPa 0,0 l/m 17,6 km/h (3 Bft) O-NO 59 0 min 0,000 mm 0,0 UV-I 28 W/m 6,2 C 1,1 C 25,7 km/h (4 Bft) 100,00 %
07.11.2017 16:06 7,6 C 7,2 C 91 % 1015,4 hPa 0,0 l/m 17,8 km/h (3 Bft) O-NO 59 0 min 0,000 mm 0,0 UV-I 26 W/m 6,2 C 1,0 C 27,4 km/h (4 Bft) 100,00 %
07.11.2017 16:08 7,6 C 7,2 C 91 % 1015,3 hPa 0,0 l/m 21,2 km/h (4 Bft) O-NO 65 0 min 0,000 mm 0,0 UV-I 25 W/m 6,2 C -0,2 C 29,0 km/h (5 Bft) 100,00 %
07.11.2017 16:10 7,6 C 7,2 C 91 % 1015,3 hPa 0,0 l/m 26,5 km/h (4 Bft) O-NO 57 0 min 0,000 mm 0,0 UV-I 21 W/m 6,2 C -1,8 C 37,0 km/h (5 Bft) 100,00 %
07.11.2017 16:12 7,6 C 7,2 C 91 % 1015,3 hPa 0,0 l/m 23,6 km/h (4 Bft) O-NO 70 0 min 0,000 mm 0,0 UV-I 19 W/m 6,2 C -1,0 C 32,2 km/h (5 Bft) 100,00 %
07.11.2017 16:14 7,6 C 7,2 C 91 % 1015,3 hPa 0,0 l/m 24,0 km/h (4 Bft) NO 53 0 min 0,000 mm 0,0 UV-I 18 W/m 6,2 C -1,1 C 33,8 km/h (5 Bft) 100,00 %
07.11.2017 16:16 7,6 C 7,2 C 91 % 1015,3 hPa 0,0 l/m 18,1 km/h (3 Bft) O-NO 78 0 min 0,000 mm 0,0 UV-I 16 W/m 6,2 C 0,9 C 27,4 km/h (4 Bft) 100,00 %
07.11.2017 16:18 7,5 C 7,2 C 91 % 1015,3 hPa 0,0 l/m 19,7 km/h (3 Bft) O-NO 59 0 min 0,000 mm 0,0 UV-I 15 W/m 6,1 C 0,2 C 30,6 km/h (5 Bft) 100,00 %
07.11.2017 16:20 7,5 C 7,2 C 91 % 1015,4 hPa 0,0 l/m 17,9 km/h (3 Bft) O-NO 68 0 min 0,000 mm 0,0 UV-I 14 W/m 6,1 C 0,9 C 25,7 km/h (4 Bft) 100,00 %
07.11.2017 16:22 7,5 C 7,2 C 91 % 1015,4 hPa 0,0 l/m 14,7 km/h (3 Bft) O-NO 59 0 min 0,000 mm 0,0 UV-I 12 W/m 6,1 C 2,2 C 25,7 km/h (4 Bft) 100,00 %
07.11.2017 16:24 7,4 C 7,2 C 91 % 1015,5 hPa 0,0 l/m 19,7 km/h (3 Bft) NO 50 2 min 0,000 mm 0,0 UV-I 11 W/m 6,0 C 0,0 C 29,0 km/h (5 Bft) 100,00 %
07.11.2017 16:26 7,5 C 7,2 C 91 % 1015,4 hPa 0,0 l/m 19,2 km/h (3 Bft) O 79 0 min 0,000 mm 0,0 UV-I 11 W/m 6,1 C 0,4 C 25,7 km/h (4 Bft) 95,74 %
07.11.2017 16:28 7,5 C 7,2 C 91 % 1015,4 hPa 0,0 l/m 19,0 km/h (3 Bft) O-NO 61 0 min 0,000 mm 0,0 UV-I 8 W/m 6,1 C 0,4 C 24,1 km/h (4 Bft) 100,00 %
07.11.2017 16:30 7,5 C 7,2 C 91 % 1015,4 hPa 0,0 l/m 19,1 km/h (3 Bft) O-NO 59 0 min 0,000 mm 0,0 UV-I 7 W/m 6,1 C 0,4 C 25,7 km/h (4 Bft) 98,59 %
07.11.2017 16:32 7,6 C 7,2 C 91 % 1015,4 hPa 0,0 l/m 21,2 km/h (4 Bft) NO 46 0 min 0,000 mm 0,0 UV-I 7 W/m 6,2 C -0,2 C 29,0 km/h (5 Bft) 100,00 %
07.11.2017 16:34 7,6 C 7,2 C 91 % 1015,3 hPa 0,0 l/m 20,3 km/h (4 Bft) NO 53 0 min 0,000 mm 0,0 UV-I 6 W/m 6,2 C 0,1 C 32,2 km/h (5 Bft) 100,00 %
07.11.2017 16:36 7,6 C 7,2 C 91 % 1015,3 hPa 0,0 l/m 16,1 km/h (3 Bft) N-NO 31 0 min 0,000 mm 0,0 UV-I 5 W/m 6,2 C 1,7 C 24,1 km/h (4 Bft) 100,00 %
07.11.2017 16:38 7,6 C 7,2 C 90 % 1015,3 hPa 0,0 l/m 20,5 km/h (4 Bft) O-NO 71 0 min 0,000 mm 0,0 UV-I 5 W/m 6,1 C 0,0 C 29,0 km/h (5 Bft) 100,00 %
07.11.2017 16:40 7,7 C 7,2 C 90 % 1015,3 hPa 0,0 l/m 25,6 km/h (4 Bft) O-NO 76 0 min 0,000 mm 0,0 UV-I 5 W/m 6,2 C -1,5 C 37,0 km/h (5 Bft) 100,00 %
07.11.2017 16:42 7,7 C 7,2 C 90 % 1015,3 hPa 0,0 l/m 20,7 km/h (4 Bft) O-NO 65 0 min 0,000 mm 0,0 UV-I 5 W/m 6,2 C 0,1 C 27,4 km/h (4 Bft) 100,00 %
07.11.2017 16:44 7,7 C 7,2 C 90 % 1015,4 hPa 0,0 l/m 18,7 km/h (3 Bft) O-NO 67 0 min 0,000 mm 0,0 UV-I 5 W/m 6,2 C 0,8 C 27,4 km/h (4 Bft) 100,00 %
07.11.2017 16:46 7,7 C 7,2 C 90 % 1015,4 hPa 0,0 l/m 20,3 km/h (4 Bft) O-NO 64 0 min 0,000 mm 0,0 UV-I 0 W/m 6,2 C 0,2 C 29,0 km/h (5 Bft) 100,00 %
07.11.2017 16:48 7,7 C 7,2 C 90 % 1015,4 hPa 0,0 l/m 19,4 km/h (3 Bft) O-NO 59 0 min 0,000 mm 0,0 UV-I 0 W/m 6,2 C 0,5 C 29,0 km/h (5 Bft) 100,00 %
07.11.2017 16:50 7,7 C 7,2 C 90 % 1015,3 hPa 0,0 l/m 20,3 km/h (4 Bft) O-NO 57 0 min 0,000 mm 0,0 UV-I 0 W/m 6,2 C 0,2 C 32,2 km/h (5 Bft) 100,00 %
07.11.2017 16:52 7,7 C 7,2 C 90 % 1015,3 hPa 0,0 l/m 20,0 km/h (4 Bft) NO 54 0 min 0,000 mm 0,0 UV-I 0 W/m 6,2 C 0,3 C 25,7 km/h (4 Bft) 97,73 %
07.11.2017 16:54 7,7 C 7,2 C 89 % 1015,3 hPa 0,0 l/m 21,2 km/h (4 Bft) O-NO 64 0 min 0,000 mm 0,0 UV-I 0 W/m 6,0 C -0,1 C 29,0 km/h (5 Bft) 96,00 %
07.11.2017 16:56 7,7 C 7,2 C 89 % 1015,3 hPa 0,0 l/m 20,6 km/h (4 Bft) O-NO 76 0 min 0,000 mm 0,0 UV-I 0 W/m 6,0 C 0,1 C 27,4 km/h (4 Bft) 100,00 %
07.11.2017 16:58 7,7 C 7,2 C 89 % 1015,3 hPa 0,0 l/m 23,4 km/h (4 Bft) O-NO 59 0 min 0,000 mm 0,0 UV-I 0 W/m 6,0 C -0,8 C 32,2 km/h (5 Bft) 100,00 %
07.11.2017 17:00 7,7 C 7,2 C 89 % 1015,2 hPa 0,0 l/m 21,0 km/h (4 Bft) O-NO 67 0 min 0,026 mm 0,0 UV-I 0 W/m 6,0 C -0,0 C 29,0 km/h (5 Bft) 100,00 %
07.11.2017 17:02 7,7 C 7,2 C 89 % 1015,2 hPa 0,0 l/m 20,4 km/h (4 Bft) NO 55 0 min 0,000 mm 0,0 UV-I 0 W/m 6,0 C 0,2 C 29,0 km/h (5 Bft) 100,00 %
07.11.2017 17:04 7,7 C 7,2 C 89 % 1015,2 hPa 0,0 l/m 18,1 km/h (3 Bft) O-NO 74 0 min 0,000 mm 0,0 UV-I 0 W/m 6,0 C 1,0 C 24,1 km/h (4 Bft) 96,23 %
07.11.2017 17:06 7,7 C 7,2 C 89 % 1015,2 hPa 0,0 l/m 17,4 km/h (3 Bft) NO 49 0 min 0,000 mm 0,0 UV-I 0 W/m 6,0 C 1,3 C 29,0 km/h (5 Bft) 100,00 %
07.11.2017 17:08 7,6 C 7,2 C 89 % 1015,2 hPa 0,0 l/m 21,8 km/h (4 Bft) O-NO 61 0 min 0,000 mm 0,0 UV-I 0 W/m 5,9 C -0,4 C 30,6 km/h (5 Bft) 100,00 %
07.11.2017 17:10 7,6 C 7,2 C 89 % 1015,2 hPa 0,0 l/m 16,0 km/h (3 Bft) O-NO 65 0 min 0,000 mm 0,0 UV-I 0 W/m 5,9 C 1,8 C 25,7 km/h (4 Bft) 100,00 %
07.11.2017 17:12 7,6 C 7,2 C 89 % 1015,2 hPa 0,0 l/m 17,6 km/h (3 Bft) O 82 0 min 0,000 mm 0,0 UV-I 0 W/m 5,9 C 1,1 C 22,5 km/h (4 Bft) 100,00 %
07.11.2017 17:14 7,6 C 7,2 C 89 % 1015,3 hPa 0,0 l/m 25,3 km/h (4 Bft) O-NO 69 0 min 0,000 mm 0,0 UV-I 0 W/m 5,9 C -1,5 C 37,0 km/h (5 Bft) 97,87 %
07.11.2017 17:16 7,6 C 7,2 C 89 % 1015,3 hPa 0,0 l/m 18,9 km/h (3 Bft) O 82 0 min 0,000 mm 0,0 UV-I 0 W/m 5,9 C 0,6 C 24,1 km/h (4 Bft) 96,23 %
07.11.2017 17:18 7,6 C 7,2 C 89 % 1015,3 hPa 0,0 l/m 19,7 km/h (3 Bft) O-NO 72 0 min 0,000 mm 0,0 UV-I 0 W/m 5,9 C 0,3 C 27,4 km/h (4 Bft) 97,37 %
07.11.2017 17:20 7,6 C 7,2 C 89 % 1015,3 hPa 0,0 l/m 19,4 km/h (3 Bft) O-NO 67 0 min 0,000 mm 0,0 UV-I 0 W/m 5,9 C 0,4 C 27,4 km/h (4 Bft) 95,45 %
07.11.2017 17:22 7,6 C 7,2 C 89 % 1015,3 hPa 0,0 l/m 19,3 km/h (3 Bft) O-NO 65 0 min 0,000 mm 0,0 UV-I 0 W/m 5,9 C 0,4 C 29,0 km/h (5 Bft) 98,00 %
07.11.2017 17:24 7,5 C 7,2 C 89 % 1015,2 hPa 0,0 l/m 17,2 km/h (3 Bft) O-NO 64 0 min 0,000 mm 0,0 UV-I 0 W/m 5,8 C 1,1 C 22,5 km/h (4 Bft) 98,00 %
07.11.2017 17:26 7,6 C 7,2 C 89 % 1015,3 hPa 0,0 l/m 17,8 km/h (3 Bft) NO 38 0 min 0,000 mm 0,0 UV-I 0 W/m 5,9 C 1,0 C 24,1 km/h (4 Bft) 97,87 %
07.11.2017 17:28 7,5 C 7,2 C 89 % 1015,3 hPa 0,0 l/m 18,0 km/h (3 Bft) O-NO 71 0 min 0,000 mm 0,0 UV-I 0 W/m 5,8 C 0,8 C 25,7 km/h (4 Bft) 96,00 %
07.11.2017 17:30 7,5 C 7,2 C 89 % 1015,3 hPa 0,0 l/m 17,8 km/h (3 Bft) NO 54 0 min 0,000 mm 0,0 UV-I 0 W/m 5,8 C 0,9 C 27,4 km/h (4 Bft) 97,37 %
07.11.2017 17:32 7,5 C 7,2 C 89 % 1015,3 hPa 0,0 l/m 19,9 km/h (4 Bft) O-NO 58 0 min 0,000 mm 0,0 UV-I 0 W/m 5,8 C 0,1 C 30,6 km/h (5 Bft) 96,43 %
07.11.2017 17:34 7,4 C 7,2 C 89 % 1015,4 hPa 0,0 l/m 18,1 km/h (3 Bft) NO 42 0 min 0,000 mm 0,0 UV-I 0 W/m 5,7 C 0,6 C 22,5 km/h (4 Bft) 96,30 %
07.11.2017 17:36 7,5 C 7,2 C 89 % 1015,4 hPa 0,0 l/m 19,9 km/h (4 Bft) O-NO 59 0 min 0,000 mm 0,0 UV-I 0 W/m 5,8 C 0,1 C 27,4 km/h (4 Bft) 97,01 %
07.11.2017 17:38 7,4 C 7,2 C 89 % 1015,4 hPa 0,0 l/m 24,3 km/h (4 Bft) NO 51 0 min 0,000 mm 0,0 UV-I 0 W/m 5,7 C -1,5 C 33,8 km/h (5 Bft) 97,73 %
07.11.2017 17:40 7,4 C 7,2 C 89 % 1015,3 hPa 0,0 l/m 17,0 km/h (3 Bft) O-NO 59 0 min 0,000 mm 0,0 UV-I 0 W/m 5,7 C 1,1 C 29,0 km/h (5 Bft) 97,87 %
07.11.2017 17:42 7,4 C 7,2 C 89 % 1015,2 hPa 0,0 l/m 20,6 km/h (4 Bft) O 80 0 min 0,000 mm 0,0 UV-I 0 W/m 5,7 C -0,3 C 27,4 km/h (4 Bft) 92,31 %
07.11.2017 17:44 7,4 C 7,2 C 89 % 1015,4 hPa 0,0 l/m 17,0 km/h (3 Bft) NO 39 0 min 0,000 mm 0,0 UV-I 0 W/m 5,7 C 1,1 C 25,7 km/h (4 Bft) 94,55 %
07.11.2017 17:46 7,4 C 7,2 C 89 % 1015,4 hPa 0,0 l/m 21,3 km/h (4 Bft) O-NO 76 0 min 0,000 mm 0,0 UV-I 0 W/m 5,7 C -0,5 C 32,2 km/h (5 Bft) 95,24 %
07.11.2017 17:48 7,4 C 7,2 C 89 % 1015,4 hPa 0,0 l/m 17,2 km/h (3 Bft) NO 55 0 min 0,000 mm 0,0 UV-I 0 W/m 5,7 C 1,0 C 24,1 km/h (4 Bft) 96,23 %
07.11.2017 17:50 7,3 C 7,2 C 89 % 1015,4 hPa 0,0 l/m 15,9 km/h (3 Bft) O-NO 67 0 min 0,000 mm 0,0 UV-I 0 W/m 5,6 C 1,5 C 24,1 km/h (4 Bft) 95,74 %
07.11.2017 17:52 7,3 C 7,2 C 89 % 1015,4 hPa 0,0 l/m 24,0 km/h (4 Bft) O-NO 65 0 min 0,000 mm 0,0 UV-I 0 W/m 5,6 C -1,5 C 32,2 km/h (5 Bft) 97,56 %
07.11.2017 17:54 7,3 C 7,2 C 89 % 1015,4 hPa 0,0 l/m 17,5 km/h (3 Bft) NO 42 0 min 0,000 mm 0,0 UV-I 0 W/m 5,6 C 0,8 C 24,1 km/h (4 Bft) 98,11 %
07.11.2017 17:56 7,3 C 7,2 C 89 % 1015,3 hPa 0,0 l/m 21,3 km/h (4 Bft) O 85 0 min 0,000 mm 0,0 UV-I 0 W/m 5,6 C -0,7 C 27,4 km/h (4 Bft) 97,50 %
07.11.2017 17:58 7,3 C 7,2 C 89 % 1015,3 hPa 0,0 l/m 20,4 km/h (4 Bft) NO 46 0 min 0,000 mm 0,0 UV-I 0 W/m 5,6 C -0,3 C 30,6 km/h (5 Bft) 92,45 %
07.11.2017 18:00 7,3 C 7,2 C 89 % 1015,4 hPa 0,0 l/m 19,3 km/h (3 Bft) NO 35 0 min 0,025 mm 0,0 UV-I 0 W/m 5,6 C 0,1 C 27,4 km/h (4 Bft) 98,00 %
07.11.2017 18:02 7,3 C 7,2 C 89 % 1015,4 hPa 0,0 l/m 18,6 km/h (3 Bft) O-NO 65 0 min 0,000 mm 0,0 UV-I 0 W/m 5,6 C 0,3 C 24,1 km/h (4 Bft) 94,29 %
07.11.2017 18:04 7,3 C 7,2 C 89 % 1015,3 hPa 0,0 l/m 17,6 km/h (3 Bft) NO 51 0 min 0,000 mm 0,0 UV-I 0 W/m 5,6 C 0,7 C 24,1 km/h (4 Bft) 98,31 %
07.11.2017 18:06 7,3 C 7,2 C 89 % 1015,4 hPa 0,0 l/m 20,2 km/h (4 Bft) NO 46 0 min 0,000 mm 0,0 UV-I 0 W/m 5,6 C -0,3 C 30,6 km/h (5 Bft) 95,12 %
07.11.2017 18:08 7,4 C 7,2 C 89 % 1015,4 hPa 0,0 l/m 21,3 km/h (4 Bft) O 81 0 min 0,000 mm 0,0 UV-I 0 W/m 5,7 C -0,5 C 29,0 km/h (5 Bft) 98,00 %
07.11.2017 18:10 7,4 C 7,2 C 89 % 1015,4 hPa 0,0 l/m 19,9 km/h (4 Bft) O-NO 64 0 min 0,000 mm 0,0 UV-I 0 W/m 5,7 C -0,0 C 25,7 km/h (4 Bft) 97,73 %
07.11.2017 18:12 7,4 C 7,2 C 89 % 1015,3 hPa 0,0 l/m 22,2 km/h (4 Bft) NO 37 0 min 0,000 mm 0,0 UV-I 0 W/m 5,7 C -0,8 C 32,2 km/h (5 Bft) 98,00 %
07.11.2017 18:14 7,4 C 7,2 C 89 % 1015,3 hPa 0,0 l/m 20,9 km/h (4 Bft) NO 52 0 min 0,000 mm 0,0 UV-I 0 W/m 5,7 C -0,4 C 33,8 km/h (5 Bft) 97,56 %
07.11.2017 18:16 7,4 C 7,2 C 88 % 1015,3 hPa 0,0 l/m 21,4 km/h (4 Bft) NO 49 0 min 0,000 mm 0,0 UV-I 0 W/m 5,5 C -0,6 C 29,0 km/h (5 Bft) 97,73 %
07.11.2017 18:18 7,5 C 7,2 C 88 % 1015,4 hPa 0,0 l/m 19,7 km/h (3 Bft) O-NO 64 0 min 0,000 mm 0,0 UV-I 0 W/m 5,6 C 0,2 C 29,0 km/h (5 Bft) 98,11 %
07.11.2017 18:20 7,5 C 7,2 C 88 % 1015,3 hPa 0,0 l/m 19,4 km/h (3 Bft) NO 44 0 min 0,000 mm 0,0 UV-I 0 W/m 5,6 C 0,3 C 25,7 km/h (4 Bft) 97,44 %
07.11.2017 18:22 7,5 C 7,2 C 88 % 1015,2 hPa 0,0 l/m 25,9 km/h (4 Bft) O-NO 69 0 min 0,000 mm 0,0 UV-I 0 W/m 5,6 C -1,8 C 35,4 km/h (5 Bft) 97,92 %
07.11.2017 18:24 7,5 C 7,2 C 88 % 1015,2 hPa 0,0 l/m 23,1 km/h (4 Bft) NO 48 0 min 0,000 mm 0,0 UV-I 0 W/m 5,6 C -1,0 C 29,0 km/h (5 Bft) 96,00 %
07.11.2017 18:26 7,5 C 7,2 C 88 % 1015,1 hPa 0,0 l/m 25,3 km/h (4 Bft) O-NO 69 0 min 0,000 mm 0,0 UV-I 0 W/m 5,6 C -1,6 C 37,0 km/h (5 Bft) 97,37 %
07.11.2017 18:28 7,5 C 7,2 C 88 % 1015,1 hPa 0,0 l/m 24,8 km/h (4 Bft) NO 46 0 min 0,000 mm 0,0 UV-I 0 W/m 5,6 C -1,5 C 33,8 km/h (5 Bft) 98,00 %
07.11.2017 18:30 7,6 C 7,2 C 88 % 1015,0 hPa 0,0 l/m 25,7 km/h (4 Bft) O-NO 60 0 min 0,000 mm 0,0 UV-I 0 W/m 5,7 C -1,6 C 33,8 km/h (5 Bft) 96,43 %
07.11.2017 18:32 7,6 C 7,2 C 88 % 1015,0 hPa 0,0 l/m 23,6 km/h (4 Bft) O-NO 65 0 min 0,000 mm 0,0 UV-I 0 W/m 5,7 C -1,0 C 30,6 km/h (5 Bft) 97,56 %
07.11.2017 18:34 7,6 C 7,2 C 88 % 1015,0 hPa 0,0 l/m 22,2 km/h (4 Bft) O 92 0 min 0,000 mm 0,0 UV-I 0 W/m 5,7 C -0,6 C 32,2 km/h (5 Bft) 98,21 %
07.11.2017 18:36 7,5 C 7,2 C 88 % 1015,0 hPa 0,0 l/m 20,3 km/h (4 Bft) NO 49 0 min 0,000 mm 0,0 UV-I 0 W/m 5,6 C -0,1 C 30,6 km/h (5 Bft) 97,56 %
07.11.2017 18:38 7,5 C 7,2 C 88 % 1015,2 hPa 0,0 l/m 21,0 km/h (4 Bft) NO 53 0 min 0,000 mm 0,0 UV-I 0 W/m 5,6 C -0,3 C 35,4 km/h (5 Bft) 97,87 %
07.11.2017 18:40 7,5 C 7,2 C 88 % 1015,2 hPa 0,0 l/m 18,8 km/h (3 Bft) NO 45 0 min 0,000 mm 0,0 UV-I 0 W/m 5,6 C 0,5 C 27,4 km/h (4 Bft) 98,00 %
07.11.2017 18:42 7,4 C 7,2 C 88 % 1015,3 hPa 0,0 l/m 19,3 km/h (3 Bft) O-NO 57 0 min 0,000 mm 0,0 UV-I 0 W/m 5,5 C 0,2 C 29,0 km/h (5 Bft) 91,49 %
07.11.2017 18:44 7,5 C 7,2 C 88 % 1015,3 hPa 0,0 l/m 23,2 km/h (4 Bft) O-NO 68 0 min 0,000 mm 0,0 UV-I 0 W/m 5,6 C -1,0 C 33,8 km/h (5 Bft) 98,00 %
07.11.2017 18:46 7,5 C 7,2 C 88 % 1015,2 hPa 0,0 l/m 24,5 km/h (4 Bft) O 86 0 min 0,000 mm 0,0 UV-I 0 W/m 5,6 C -1,4 C 32,2 km/h (5 Bft) 97,56 %
07.11.2017 18:48 7,6 C 7,2 C 87 % 1015,3 hPa 0,0 l/m 25,4 km/h (4 Bft) O-NO 61 0 min 0,000 mm 0,0 UV-I 0 W/m 5,6 C -1,5 C 33,8 km/h (5 Bft) 95,12 %
07.11.2017 18:50 7,6 C 7,2 C 87 % 1015,4 hPa 0,0 l/m 23,0 km/h (4 Bft) O 79 0 min 0,000 mm 0,0 UV-I 0 W/m 5,6 C -0,8 C 32,2 km/h (5 Bft) 98,21 %
07.11.2017 18:52 7,7 C 7,2 C 87 % 1015,4 hPa 0,0 l/m 22,9 km/h (4 Bft) O-NO 75 0 min 0,000 mm 0,0 UV-I 0 W/m 5,7 C -0,7 C 32,2 km/h (5 Bft) 100,00 %
07.11.2017 18:54 7,7 C 7,2 C 87 % 1015,4 hPa 0,0 l/m 20,7 km/h (4 Bft) O-NO 65 0 min 0,000 mm 0,0 UV-I 0 W/m 5,7 C 0,1 C 29,0 km/h (5 Bft) 100,00 %
07.11.2017 18:56 7,6 C 7,2 C 87 % 1015,3 hPa 0,0 l/m 26,0 km/h (4 Bft) O-NO 76 0 min 0,000 mm 0,0 UV-I 0 W/m 5,6 C -1,7 C 33,8 km/h (5 Bft) 100,00 %
07.11.2017 18:58 7,7 C 7,2 C 87 % 1015,3 hPa 0,0 l/m 27,2 km/h (4 Bft) NO 42 0 min 0,000 mm 0,0 UV-I 0 W/m 5,7 C -1,9 C 35,4 km/h (5 Bft) 100,00 %
07.11.2017 19:00 7,7 C 7,2 C 87 % 1015,3 hPa 0,0 l/m 23,3 km/h (4 Bft) O-NO 68 0 min 0,000 mm 0,0 UV-I 0 W/m 5,7 C -0,8 C 30,6 km/h (5 Bft) 100,00 %
07.11.2017 19:02 7,6 C 7,2 C 87 % 1015,3 hPa 0,0 l/m 24,7 km/h (4 Bft) NO 48 0 min 0,026 mm 0,0 UV-I 0 W/m 5,6 C -1,3 C 33,8 km/h (5 Bft) 98,18 %
07.11.2017 19:04 7,6 C 7,2 C 87 % 1015,1 hPa 0,0 l/m 26,4 km/h (4 Bft) NO 53 0 min 0,000 mm 0,0 UV-I 0 W/m 5,6 C -1,8 C 40,2 km/h (6 Bft) 97,22 %
07.11.2017 19:06 7,7 C 7,2 C 86 % 1015,0 hPa 0,0 l/m 31,6 km/h (5 Bft) O-NO 78 0 min 0,000 mm 0,0 UV-I 0 W/m 5,5 C -2,9 C 43,5 km/h (6 Bft) 100,00 %
07.11.2017 19:08 7,7 C 7,2 C 86 % 1015,1 hPa 0,0 l/m 26,5 km/h (4 Bft) O-NO 64 0 min 0,000 mm 0,0 UV-I 0 W/m 5,5 C -1,7 C 43,5 km/h (6 Bft) 100,00 %
07.11.2017 19:10 7,7 C 7,2 C 86 % 1014,9 hPa 0,0 l/m 26,2 km/h (4 Bft) NO 46 0 min 0,000 mm 0,0 UV-I 0 W/m 5,5 C -1,6 C 35,4 km/h (5 Bft) 100,00 %
07.11.2017 19:12 7,7 C 7,2 C 86 % 1014,9 hPa 0,0 l/m 28,5 km/h (4 Bft) NO 49 0 min 0,000 mm 0,0 UV-I 0 W/m 5,5 C -2,2 C 38,6 km/h (5 Bft) 100,00 %
07.11.2017 19:14 7,7 C 7,2 C 86 % 1014,7 hPa 0,0 l/m 26,6 km/h (4 Bft) O 97 0 min 0,000 mm 0,0 UV-I 0 W/m 5,5 C -1,7 C 37,0 km/h (5 Bft) 100,00 %
07.11.2017 19:16 7,7 C 7,2 C 86 % 1014,6 hPa 0,0 l/m 23,6 km/h (4 Bft) O-NO 57 0 min 0,000 mm 0,0 UV-I 0 W/m 5,5 C -0,9 C 32,2 km/h (5 Bft) 100,00 %
07.11.2017 19:18 7,7 C 7,2 C 86 % 1014,4 hPa 0,0 l/m 30,4 km/h (5 Bft) O-NO 62 0 min 0,000 mm 0,0 UV-I 0 W/m 5,5 C -2,7 C 41,8 km/h (6 Bft) 100,00 %
07.11.2017 19:20 7,7 C 7,2 C 86 % 1014,4 hPa 0,0 l/m 30,9 km/h (5 Bft) O-NO 69 0 min 0,000 mm 0,0 UV-I 0 W/m 5,5 C -2,8 C 40,2 km/h (6 Bft) 96,43 %
07.11.2017 19:22 7,7 C 7,2 C 86 % 1014,4 hPa 0,0 l/m 28,3 km/h (4 Bft) NO 47 0 min 0,000 mm 0,0 UV-I 0 W/m 5,5 C -2,2 C 35,4 km/h (5 Bft) 97,56 %
07.11.2017 19:24 7,7 C 7,2 C 86 % 1014,3 hPa 0,0 l/m 24,9 km/h (4 Bft) NO 46 0 min 0,000 mm 0,0 UV-I 0 W/m 5,5 C -1,3 C 30,6 km/h (5 Bft) 98,00 %
07.11.2017 19:26 7,7 C 7,2 C 86 % 1014,2 hPa 0,0 l/m 27,0 km/h (4 Bft) O-NO 61 0 min 0,000 mm 0,0 UV-I 0 W/m 5,5 C -1,8 C 38,6 km/h (5 Bft) 98,00 %
07.11.2017 19:28 7,7 C 7,2 C 86 % 1014,3 hPa 0,0 l/m 27,9 km/h (4 Bft) O-NO 74 0 min 0,000 mm 0,0 UV-I 0 W/m 5,5 C -2,1 C 43,5 km/h (6 Bft) 96,00 %
07.11.2017 19:30 7,7 C 7,2 C 86 % 1014,2 hPa 0,0 l/m 20,2 km/h (4 Bft) O-NO 58 0 min 0,000 mm 0,0 UV-I 0 W/m 5,5 C 0,2 C 33,8 km/h (5 Bft) 97,37 %
07.11.2017 19:32 7,7 C 7,2 C 86 % 1014,3 hPa 0,0 l/m 27,2 km/h (4 Bft) NO 50 0 min 0,000 mm 0,0 UV-I 0 W/m 5,5 C -1,9 C 40,2 km/h (6 Bft) 98,21 %
07.11.2017 19:34 7,7 C 7,2 C 86 % 1014,4 hPa 0,0 l/m 21,7 km/h (4 Bft) NO 42 0 min 0,000 mm 0,0 UV-I 0 W/m 5,5 C -0,3 C 32,2 km/h (5 Bft) 92,59 %
07.11.2017 19:36 7,7 C 7,2 C 86 % 1014,5 hPa 0,0 l/m 24,2 km/h (4 Bft) NO 55 0 min 0,000 mm 0,0 UV-I 0 W/m 5,5 C -1,1 C 35,4 km/h (5 Bft) 95,52 %
07.11.2017 19:38 7,7 C 7,2 C 86 % 1014,6 hPa 0,0 l/m 26,3 km/h (4 Bft) O-NO 66 0 min 0,000 mm 0,0 UV-I 0 W/m 5,5 C -1,6 C 33,8 km/h (5 Bft) 97,87 %
07.11.2017 19:40 7,7 C 7,2 C 86 % 1014,7 hPa 0,0 l/m 28,4 km/h (4 Bft) O-NO 74 0 min 0,000 mm 0,0 UV-I 0 W/m 5,5 C -2,2 C 38,6 km/h (5 Bft) 97,56 %
07.11.2017 19:42 7,7 C 7,2 C 86 % 1014,7 hPa 0,0 l/m 24,0 km/h (4 Bft) O-NO 65 0 min 0,000 mm 0,0 UV-I 0 W/m 5,5 C -1,0 C 32,2 km/h (5 Bft) 97,62 %
07.11.2017 19:44 7,7 C 7,2 C 86 % 1014,8 hPa 0,0 l/m 24,6 km/h (4 Bft) O-NO 75 0 min 0,000 mm 0,0 UV-I 0 W/m 5,5 C -1,2 C 32,2 km/h (5 Bft) 98,11 %
07.11.2017 19:46 7,7 C 7,2 C 86 % 1014,7 hPa 0,0 l/m 22,6 km/h (4 Bft) O 84 0 min 0,000 mm 0,0 UV-I 0 W/m 5,5 C -0,6 C 32,2 km/h (5 Bft) 97,56 %
07.11.2017 19:48 7,6 C 7,2 C 86 % 1014,8 hPa 0,0 l/m 24,8 km/h (4 Bft) O 80 0 min 0,000 mm 0,0 UV-I 0 W/m 5,4 C -1,4 C 37,0 km/h (5 Bft) 98,11 %
07.11.2017 19:50 7,7 C 7,2 C 86 % 1014,8 hPa 0,0 l/m 22,7 km/h (4 Bft) O-NO 59 0 min 0,000 mm 0,0 UV-I 0 W/m 5,5 C -0,6 C 32,2 km/h (5 Bft) 98,00 %
07.11.2017 19:52 7,7 C 7,2 C 86 % 1014,7 hPa 0,0 l/m 25,3 km/h (4 Bft) O-NO 58 0 min 0,000 mm 0,0 UV-I 0 W/m 5,5 C -1,4 C 37,0 km/h (5 Bft) 97,37 %
07.11.2017 19:54 7,7 C 7,2 C 86 % 1014,7 hPa 0,0 l/m 23,3 km/h (4 Bft) O-NO 60 0 min 0,000 mm 0,0 UV-I 0 W/m 5,5 C -0,8 C 30,6 km/h (5 Bft) 98,11 %
07.11.2017 19:56 7,7 C 7,2 C 86 % 1014,8 hPa 0,0 l/m 26,2 km/h (4 Bft) O-NO 63 0 min 0,000 mm 0,0 UV-I 0 W/m 5,5 C -1,6 C 35,4 km/h (5 Bft) 100,00 %
07.11.2017 19:58 7,6 C 7,2 C 86 % 1014,7 hPa 0,0 l/m 23,0 km/h (4 Bft) NO 55 0 min 0,000 mm 0,0 UV-I 0 W/m 5,4 C -0,8 C 30,6 km/h (5 Bft) 100,00 %
07.11.2017 20:00 7,6 C 7,2 C 86 % 1014,6 hPa 0,0 l/m 19,2 km/h (3 Bft) O-NO 65 0 min 0,000 mm 0,0 UV-I 0 W/m 5,4 C 0,5 C 27,4 km/h (4 Bft) 100,00 %
07.11.2017 20:02 7,6 C 7,2 C 86 % 1014,6 hPa 0,0 l/m 18,4 km/h (3 Bft) NO 35 0 min 0,025 mm 0,0 UV-I 0 W/m 5,4 C 0,8 C 27,4 km/h (4 Bft) 98,00 %
07.11.2017 20:04 7,6 C 7,2 C 86 % 1014,6 hPa 0,0 l/m 24,0 km/h (4 Bft) O-NO 69 0 min 0,000 mm 0,0 UV-I 0 W/m 5,4 C -1,1 C 37,0 km/h (5 Bft) 98,21 %
07.11.2017 20:06 7,6 C 7,2 C 86 % 1014,6 hPa 0,0 l/m 23,7 km/h (4 Bft) O-NO 70 0 min 0,000 mm 0,0 UV-I 0 W/m 5,4 C -1,0 C 33,8 km/h (5 Bft) 100,00 %
07.11.2017 20:08 7,6 C 7,2 C 86 % 1014,6 hPa 0,0 l/m 23,1 km/h (4 Bft) O 84 0 min 0,000 mm 0,0 UV-I 0 W/m 5,4 C -0,9 C 30,6 km/h (5 Bft) 100,00 %
07.11.2017 20:10 7,6 C 7,2 C 86 % 1014,5 hPa 0,0 l/m 27,3 km/h (4 Bft) NO 49 0 min 0,000 mm 0,0 UV-I 0 W/m 5,4 C -2,1 C 35,4 km/h (5 Bft) 100,00 %
07.11.2017 20:12 7,6 C 7,2 C 86 % 1014,4 hPa 0,0 l/m 26,1 km/h (4 Bft) NO 36 0 min 0,000 mm 0,0 UV-I 0 W/m 5,4 C -1,7 C 35,4 km/h (5 Bft) 100,00 %
07.11.2017 20:14 7,6 C 7,2 C 86 % 1014,5 hPa 0,0 l/m 22,3 km/h (4 Bft) O-NO 71 0 min 0,000 mm 0,0 UV-I 0 W/m 5,4 C -0,6 C 30,6 km/h (5 Bft) 100,00 %
07.11.2017 20:16 7,6 C 7,2 C 86 % 1014,5 hPa 0,0 l/m 22,1 km/h (4 Bft) O-NO 62 0 min 0,000 mm 0,0 UV-I 0 W/m 5,4 C -0,5 C 30,6 km/h (5 Bft) 100,00 %
07.11.2017 20:18 7,6 C 7,2 C 86 % 1014,4 hPa 0,0 l/m 24,2 km/h (4 Bft) O-SO 105 0 min 0,000 mm 0,0 UV-I 0 W/m 5,4 C -1,2 C 32,2 km/h (5 Bft) 100,00 %
07.11.2017 20:20 7,6 C 7,2 C 86 % 1014,3 hPa 0,0 l/m 19,2 km/h (3 Bft) O 86 0 min 0,000 mm 0,0 UV-I 0 W/m 5,4 C 0,5 C 27,4 km/h (4 Bft) 95,24 %
07.11.2017 20:22 7,6 C 7,2 C 86 % 1014,4 hPa 0,0 l/m 25,3 km/h (4 Bft) O 93 0 min 0,000 mm 0,0 UV-I 0 W/m 5,4 C -1,5 C 35,4 km/h (5 Bft) 97,87 %
07.11.2017 20:24 7,6 C 7,2 C 86 % 1014,5 hPa 0,0 l/m 19,1 km/h (3 Bft) O-NO 74 0 min 0,000 mm 0,0 UV-I 0 W/m 5,4 C 0,5 C 25,7 km/h (4 Bft) 100,00 %
07.11.2017 20:26 7,6 C 7,2 C 86 % 1014,4 hPa 0,0 l/m 28,6 km/h (4 Bft) O 89 0 min 0,000 mm 0,0 UV-I 0 W/m 5,4 C -2,4 C 35,4 km/h (5 Bft) 96,00 %
07.11.2017 20:28 7,6 C 7,2 C 86 % 1014,4 hPa 0,0 l/m 31,8 km/h (5 Bft) O-NO 69 0 min 0,000 mm 0,0 UV-I 0 W/m 5,4 C -3,1 C 46,7 km/h (6 Bft) 100,00 %
07.11.2017 20:30 7,6 C 7,2 C 86 % 1014,5 hPa 0,0 l/m 30,1 km/h (5 Bft) NO 44 0 min 0,000 mm 0,0 UV-I 0 W/m 5,4 C -2,7 C 45,1 km/h (6 Bft) 100,00 %
07.11.2017 20:32 7,7 C 7,2 C 86 % 1014,4 hPa 0,0 l/m 28,8 km/h (4 Bft) O 91 0 min 0,000 mm 0,0 UV-I 0 W/m 5,5 C -2,3 C 38,6 km/h (5 Bft) 100,00 %
07.11.2017 20:34 7,7 C 7,2 C 86 % 1014,4 hPa 0,0 l/m 23,8 km/h (4 Bft) O-NO 71 0 min 0,000 mm 0,0 UV-I 0 W/m 5,5 C -0,9 C 35,4 km/h (5 Bft) 100,00 %
07.11.2017 20:36 7,6 C 7,2 C 86 % 1014,5 hPa 0,0 l/m 26,0 km/h (4 Bft) O-NO 65 0 min 0,000 mm 0,0 UV-I 0 W/m 5,4 C -1,7 C 41,8 km/h (6 Bft) 100,00 %
07.11.2017 20:38 7,6 C 7,2 C 86 % 1014,5 hPa 0,0 l/m 24,7 km/h (4 Bft) NO 46 0 min 0,000 mm 0,0 UV-I 0 W/m 5,4 C -1,3 C 40,2 km/h (6 Bft) 100,00 %
07.11.2017 20:40 7,6 C 7,2 C 86 % 1014,4 hPa 0,0 l/m 28,6 km/h (4 Bft) O-NO 62 0 min 0,000 mm 0,0 UV-I 0 W/m 5,4 C -2,4 C 41,8 km/h (6 Bft) 100,00 %
07.11.2017 20:42 7,6 C 7,2 C 86 % 1014,3 hPa 0,0 l/m 28,1 km/h (4 Bft) O-NO 60 0 min 0,000 mm 0,0 UV-I 0 W/m 5,4 C -2,3 C 40,2 km/h (6 Bft) 96,49 %
07.11.2017 20:44 7,6 C 7,2 C 86 % 1014,4 hPa 0,0 l/m 29,7 km/h (5 Bft) NO 46 0 min 0,000 mm 0,0 UV-I 0 W/m 5,4 C -2,6 C 38,6 km/h (5 Bft) 100,00 %
07.11.2017 20:46 7,7 C 7,2 C 86 % 1014,3 hPa 0,0 l/m 23,4 km/h (4 Bft) NO 38 0 min 0,000 mm 0,0 UV-I 0 W/m 5,5 C -0,8 C 32,2 km/h (5 Bft) 100,00 %
07.11.2017 20:48 7,7 C 7,2 C 86 % 1014,3 hPa 0,0 l/m 26,8 km/h (4 Bft) O 79 0 min 0,000 mm 0,0 UV-I 0 W/m 5,5 C -1,8 C 40,2 km/h (6 Bft) 100,00 %
07.11.2017 20:50 7,6 C 7,2 C 86 % 1014,2 hPa 0,0 l/m 25,8 km/h (4 Bft) NO 52 0 min 0,000 mm 0,0 UV-I 0 W/m 5,4 C -1,6 C 35,4 km/h (5 Bft) 100,00 %
07.11.2017 20:52 7,6 C 7,2 C 87 % 1014,2 hPa 0,0 l/m 25,0 km/h (4 Bft) NO 42 0 min 0,000 mm 0,0 UV-I 0 W/m 5,6 C -1,4 C 35,4 km/h (5 Bft) 100,00 %
07.11.2017 20:54 7,6 C 7,2 C 87 % 1014,2 hPa 0,0 l/m 24,7 km/h (4 Bft) O-NO 70 0 min 0,000 mm 0,0 UV-I 0 W/m 5,6 C -1,3 C 35,4 km/h (5 Bft) 98,11 %
07.11.2017 20:56 7,6 C 7,2 C 87 % 1014,2 hPa 0,0 l/m 27,0 km/h (4 Bft) O-NO 65 0 min 0,000 mm 0,0 UV-I 0 W/m 5,6 C -2,0 C 35,4 km/h (5 Bft) 100,00 %
07.11.2017 20:58 7,6 C 7,2 C 87 % 1014,2 hPa 0,0 l/m 25,5 km/h (4 Bft) O-NO 60 0 min 0,000 mm 0,0 UV-I 0 W/m 5,6 C -1,6 C 41,8 km/h (6 Bft) 98,08 %
07.11.2017 21:00 7,6 C 7,2 C 87 % 1014,1 hPa 0,0 l/m 27,8 km/h (4 Bft) NO 49 0 min 0,000 mm 0,0 UV-I 0 W/m 5,6 C -2,2 C 43,5 km/h (6 Bft) 100,00 %
07.11.2017 21:02 7,6 C 7,2 C 86 % 1014,1 hPa 0,0 l/m 26,7 km/h (4 Bft) O 90 0 min 0,025 mm 0,0 UV-I 0 W/m 5,4 C -1,9 C 32,2 km/h (5 Bft) 100,00 %
07.11.2017 21:04 7,6 C 7,2 C 87 % 1013,9 hPa 0,0 l/m 22,5 km/h (4 Bft) NO 55 0 min 0,000 mm 0,0 UV-I 0 W/m 5,6 C -0,7 C 30,6 km/h (5 Bft) 100,00 %
07.11.2017 21:06 7,6 C 7,2 C 87 % 1013,8 hPa 0,0 l/m 26,9 km/h (4 Bft) O-NO 61 0 min 0,000 mm 0,0 UV-I 0 W/m 5,6 C -1,9 C 37,0 km/h (5 Bft) 100,00 %
07.11.2017 21:08 7,6 C 7,2 C 87 % 1013,8 hPa 0,0 l/m 31,1 km/h (5 Bft) O-NO 70 0 min 0,000 mm 0,0 UV-I 0 W/m 5,6 C -3,0 C 40,2 km/h (6 Bft) 100,00 %
07.11.2017 21:10 7,6 C 7,2 C 86 % 1013,8 hPa 0,0 l/m 27,8 km/h (4 Bft) O-NO 67 0 min 0,000 mm 0,0 UV-I 0 W/m 5,4 C -2,2 C 41,8 km/h (6 Bft) 98,21 %
07.11.2017 21:12 7,6 C 7,2 C 86 % 1013,8 hPa 0,0 l/m 29,1 km/h (5 Bft) NO 50 0 min 0,000 mm 0,0 UV-I 0 W/m 5,4 C -2,5 C 37,0 km/h (5 Bft) 96,15 %
07.11.2017 21:14 7,6 C 7,2 C 87 % 1013,9 hPa 0,0 l/m 30,6 km/h (5 Bft) NO 50 0 min 0,000 mm 0,0 UV-I 0 W/m 5,6 C -2,9 C 45,1 km/h (6 Bft) 100,00 %
07.11.2017 21:16 7,6 C 7,2 C 87 % 1013,8 hPa 0,0 l/m 29,6 km/h (5 Bft) O-NO 64 0 min 0,000 mm 0,0 UV-I 0 W/m 5,6 C -2,6 C 45,1 km/h (6 Bft) 100,00 %
07.11.2017 21:18 7,6 C 7,2 C 87 % 1013,9 hPa 0,0 l/m 29,8 km/h (5 Bft) O-NO 67 0 min 0,000 mm 0,0 UV-I 0 W/m 5,6 C -2,7 C 40,2 km/h (6 Bft) 100,00 %
07.11.2017 21:20 7,6 C 7,2 C 86 % 1013,7 hPa 0,0 l/m 30,5 km/h (5 Bft) O-NO 75 0 min 0,000 mm 0,0 UV-I 0 W/m 5,4 C -2,8 C 40,2 km/h (6 Bft) 96,08 %
07.11.2017 21:22 7,6 C 7,2 C 86 % 1013,9 hPa 0,0 l/m 33,8 km/h (5 Bft) O-NO 64 0 min 0,000 mm 0,0 UV-I 0 W/m 5,4 C -3,5 C 49,9 km/h (6 Bft) 98,00 %
07.11.2017 21:24 7,6 C 7,2 C 86 % 1013,9 hPa 0,0 l/m 34,9 km/h (5 Bft) O 92 0 min 0,000 mm 0,0 UV-I 0 W/m 5,4 C -3,8 C 51,5 km/h (7 Bft) 92,68 %
07.11.2017 21:26 7,6 C 7,2 C 87 % 1014,0 hPa 0,0 l/m 33,0 km/h (5 Bft) O-NO 72 0 min 0,000 mm 0,0 UV-I 0 W/m 5,6 C -3,4 C 45,1 km/h (6 Bft) 98,00 %
07.11.2017 21:28 7,6 C 7,2 C 87 % 1014,1 hPa 0,0 l/m 29,7 km/h (5 Bft) O-NO 65 0 min 0,000 mm 0,0 UV-I 0 W/m 5,6 C -2,6 C 40,2 km/h (6 Bft) 97,73 %
07.11.2017 21:30 7,6 C 7,2 C 87 % 1014,2 hPa 0,0 l/m 36,9 km/h (5 Bft) O-NO 60 0 min 0,000 mm 0,0 UV-I 0 W/m 5,6 C -4,1 C 53,1 km/h (7 Bft) 95,45 %
07.11.2017 21:32 7,7 C 7,2 C 86 % 1014,2 hPa 0,0 l/m 29,9 km/h (5 Bft) O-NO 74 0 min 0,000 mm 0,0 UV-I 0 W/m 5,5 C -2,6 C 41,8 km/h (6 Bft) 97,62 %
07.11.2017 21:34 7,7 C 7,2 C 86 % 1014,3 hPa 0,0 l/m 32,9 km/h (5 Bft) O 84 0 min 0,000 mm 0,0 UV-I 0 W/m 5,5 C -3,2 C 41,8 km/h (6 Bft) 96,55 %
07.11.2017 21:36 7,7 C 7,2 C 86 % 1014,3 hPa 0,0 l/m 32,1 km/h (5 Bft) O 79 0 min 0,000 mm 0,0 UV-I 0 W/m 5,5 C -3,0 C 45,1 km/h (6 Bft) 96,00 %
07.11.2017 21:38 7,7 C 7,2 C 86 % 1014,3 hPa 0,0 l/m 32,8 km/h (5 Bft) O-NO 74 0 min 0,000 mm 0,0 UV-I 0 W/m 5,5 C -3,2 C 43,5 km/h (6 Bft) 97,83 %
07.11.2017 21:40 7,7 C 7,2 C 86 % 1014,2 hPa 0,0 l/m 33,6 km/h (5 Bft) O-NO 66 0 min 0,000 mm 0,0 UV-I 0 W/m 5,5 C -3,4 C 45,1 km/h (6 Bft) 100,00 %
07.11.2017 21:42 7,7 C 7,2 C 86 % 1014,2 hPa 0,0 l/m 29,7 km/h (5 Bft) O 81 0 min 0,000 mm 0,0 UV-I 0 W/m 5,5 C -2,5 C 38,6 km/h (5 Bft) 96,61 %
07.11.2017 21:44 7,7 C 7,2 C 86 % 1014,3 hPa 0,0 l/m 33,4 km/h (5 Bft) O 79 0 min 0,000 mm 0,0 UV-I 0 W/m 5,5 C -3,3 C 43,5 km/h (6 Bft) 98,11 %
07.11.2017 21:46 7,6 C 7,2 C 87 % 1014,1 hPa 0,0 l/m 28,6 km/h (4 Bft) O-NO 67 0 min 0,000 mm 0,0 UV-I 0 W/m 5,6 C -2,4 C 45,1 km/h (6 Bft) 94,74 %
07.11.2017 21:48 7,6 C 7,2 C 87 % 1014,1 hPa 0,0 l/m 27,6 km/h (4 Bft) O-NO 76 0 min 0,000 mm 0,0 UV-I 0 W/m 5,6 C -2,1 C 40,2 km/h (6 Bft) 96,00 %
07.11.2017 21:50 7,6 C 7,2 C 87 % 1014,1 hPa 0,0 l/m 28,6 km/h (4 Bft) O 80 0 min 0,000 mm 0,0 UV-I 0 W/m 5,6 C -2,4 C 43,5 km/h (6 Bft) 96,23 %
07.11.2017 21:52 7,6 C 7,2 C 87 % 1014,0 hPa 0,0 l/m 28,0 km/h (4 Bft) NO 52 0 min 0,000 mm 0,0 UV-I 0 W/m 5,6 C -2,2 C 43,5 km/h (6 Bft) 95,12 %
07.11.2017 21:54 7,6 C 7,2 C 87 % 1014,0 hPa 0,0 l/m 32,0 km/h (5 Bft) NO 54 0 min 0,000 mm 0,0 UV-I 0 W/m 5,6 C -3,2 C 41,8 km/h (6 Bft) 92,00 %
07.11.2017 21:56 7,6 C 7,2 C 87 % 1013,9 hPa 0,0 l/m 32,1 km/h (5 Bft) O-NO 65 0 min 0,000 mm 0,0 UV-I 0 W/m 5,6 C -3,2 C 43,5 km/h (6 Bft) 97,56 %
07.11.2017 21:58 7,6 C 7,2 C 87 % 1013,8 hPa 0,0 l/m 31,1 km/h (5 Bft) O 81 0 min 0,000 mm 0,0 UV-I 0 W/m 5,6 C -3,0 C 46,7 km/h (6 Bft) 98,08 %
07.11.2017 22:00 7,6 C 7,2 C 87 % 1013,7 hPa 0,0 l/m 32,7 km/h (5 Bft) NO 44 0 min 0,000 mm 0,0 UV-I 0 W/m 5,6 C -3,3 C 41,8 km/h (6 Bft) 95,45 %
07.11.2017 22:02 7,6 C 7,2 C 87 % 1013,6 hPa 0,0 l/m 30,3 km/h (5 Bft) NO 54 0 min 0,051 mm 0,0 UV-I 0 W/m 5,6 C -2,8 C 40,2 km/h (6 Bft) 98,00 %
07.11.2017 22:04 7,6 C 7,2 C 87 % 1013,5 hPa 0,0 l/m 30,1 km/h (5 Bft) O-NO 75 0 min 0,000 mm 0,0 UV-I 0 W/m 5,6 C -2,7 C 43,5 km/h (6 Bft) 97,87 %
07.11.2017 22:06 7,6 C 7,2 C 87 % 1013,4 hPa 0,0 l/m 32,9 km/h (5 Bft) O-NO 59 0 min 0,000 mm 0,0 UV-I 0 W/m 5,6 C -3,4 C 41,8 km/h (6 Bft) 98,00 %
07.11.2017 22:08 7,6 C 7,2 C 87 % 1013,3 hPa 0,0 l/m 30,2 km/h (5 Bft) O-NO 74 0 min 0,000 mm 0,0 UV-I 0 W/m 5,6 C -2,8 C 38,6 km/h (5 Bft) 97,87 %
07.11.2017 22:10 7,6 C 7,2 C 87 % 1013,4 hPa 0,0 l/m 31,3 km/h (5 Bft) O-NO 65 0 min 0,000 mm 0,0 UV-I 0 W/m 5,6 C -3,0 C 43,5 km/h (6 Bft) 97,73 %
07.11.2017 22:12 7,6 C 7,2 C 87 % 1013,4 hPa 0,0 l/m 29,5 km/h (5 Bft) N-NO 31 0 min 0,000 mm 0,0 UV-I 0 W/m 5,6 C -2,6 C 38,6 km/h (5 Bft) 98,00 %
07.11.2017 22:14 7,6 C 7,2 C 87 % 1013,4 hPa 0,0 l/m 35,6 km/h (5 Bft) NO 43 0 min 0,000 mm 0,0 UV-I 0 W/m 5,6 C -3,9 C 48,3 km/h (6 Bft) 97,37 %
07.11.2017 22:16 7,6 C 7,2 C 87 % 1013,4 hPa 0,0 l/m 28,6 km/h (4 Bft) O 82 0 min 0,000 mm 0,0 UV-I 0 W/m 5,6 C -2,4 C 43,5 km/h (6 Bft) 97,87 %
07.11.2017 22:18 7,6 C 7,2 C 87 % 1013,4 hPa 0,0 l/m 30,5 km/h (5 Bft) NO 46 0 min 0,000 mm 0,0 UV-I 0 W/m 5,6 C -2,8 C 40,2 km/h (6 Bft) 95,74 %
07.11.2017 22:20 7,6 C 7,2 C 87 % 1013,4 hPa 0,0 l/m 29,1 km/h (5 Bft) O-NO 58 0 min 0,000 mm 0,0 UV-I 0 W/m 5,6 C -2,5 C 40,2 km/h (6 Bft) 98,00 %
07.11.2017 22:22 7,6 C 7,2 C 87 % 1013,4 hPa 0,0 l/m 25,3 km/h (4 Bft) NO 55 0 min 0,000 mm 0,0 UV-I 0 W/m 5,6 C -1,5 C 33,8 km/h (5 Bft) 97,87 %
07.11.2017 22:24 7,5 C 7,2 C 87 % 1013,4 hPa 0,0 l/m 28,9 km/h (5 Bft) O-NO 59 0 min 0,000 mm 0,0 UV-I 0 W/m 5,5 C -2,6 C 40,2 km/h (6 Bft) 98,00 %
07.11.2017 22:26 7,6 C 7,2 C 87 % 1013,4 hPa 0,0 l/m 26,9 km/h (4 Bft) O-NO 78 0 min 0,000 mm 0,0 UV-I 0 W/m 5,6 C -1,9 C 43,5 km/h (6 Bft) 94,74 %
07.11.2017 22:28 7,6 C 7,2 C 87 % 1013,1 hPa 0,0 l/m 25,1 km/h (4 Bft) O-NO 67 0 min 0,000 mm 0,0 UV-I 0 W/m 5,6 C -1,4 C 33,8 km/h (5 Bft) 96,15 %
07.11.2017 22:30 7,6 C 7,2 C 87 % 1013,1 hPa 0,0 l/m 26,8 km/h (4 Bft) O-NO 63 0 min 0,000 mm 0,0 UV-I 0 W/m 5,6 C -1,9 C 38,6 km/h (5 Bft) 97,56 %
07.11.2017 22:32 7,6 C 7,2 C 87 % 1013,2 hPa 0,0 l/m 28,4 km/h (4 Bft) O-NO 71 0 min 0,000 mm 0,0 UV-I 0 W/m 5,6 C -2,3 C 38,6 km/h (5 Bft) 98,00 %
07.11.2017 22:34 7,6 C 7,2 C 87 % 1013,2 hPa 0,0 l/m 28,9 km/h (5 Bft) NO 42 0 min 0,000 mm 0,0 UV-I 0 W/m 5,6 C -2,5 C 37,0 km/h (5 Bft) 95,74 %
07.11.2017 22:36 7,6 C 7,2 C 87 % 1013,1 hPa 0,0 l/m 29,2 km/h (5 Bft) O-NO 61 0 min 0,000 mm 0,0 UV-I 0 W/m 5,6 C -2,5 C 45,1 km/h (6 Bft) 97,56 %
07.11.2017 22:38 7,6 C 7,2 C 87 % 1013,0 hPa 0,0 l/m 27,4 km/h (4 Bft) N-NO 26 0 min 0,000 mm 0,0 UV-I 0 W/m 5,6 C -2,1 C 37,0 km/h (5 Bft) 95,12 %
07.11.2017 22:40 7,6 C 7,2 C 87 % 1012,9 hPa 0,0 l/m 28,7 km/h (4 Bft) O-NO 61 0 min 0,000 mm 0,0 UV-I 0 W/m 5,6 C -2,4 C 38,6 km/h (5 Bft) 96,23 %
07.11.2017 22:42 7,6 C 7,2 C 87 % 1012,9 hPa 0,0 l/m 28,4 km/h (4 Bft) O-NO 66 0 min 0,000 mm 0,0 UV-I 0 W/m 5,6 C -2,3 C 41,8 km/h (6 Bft) 96,61 %
07.11.2017 22:44 7,6 C 7,2 C 87 % 1012,9 hPa 0,0 l/m 29,9 km/h (5 Bft) O-NO 69 0 min 0,000 mm 0,0 UV-I 0 W/m 5,6 C -2,7 C 41,8 km/h (6 Bft) 97,56 %
07.11.2017 22:46 7,6 C 7,2 C 87 % 1013,0 hPa 0,0 l/m 27,1 km/h (4 Bft) O 79 0 min 0,000 mm 0,0 UV-I 0 W/m 5,6 C -2,0 C 37,0 km/h (5 Bft) 96,00 %
07.11.2017 22:48 7,6 C 7,2 C 87 % 1013,0 hPa 0,0 l/m 25,7 km/h (4 Bft) O-NO 60 0 min 0,000 mm 0,0 UV-I 0 W/m 5,6 C -1,6 C 33,8 km/h (5 Bft) 98,00 %
07.11.2017 22:50 7,6 C 7,2 C 87 % 1013,2 hPa 0,0 l/m 23,6 km/h (4 Bft) O-NO 68 0 min 0,000 mm 0,0 UV-I 0 W/m 5,6 C -1,0 C 30,6 km/h (5 Bft) 97,37 %
07.11.2017 22:52 7,6 C 7,2 C 87 % 1013,2 hPa 0,0 l/m 28,0 km/h (4 Bft) O-NO 57 0 min 0,000 mm 0,0 UV-I 0 W/m 5,6 C -2,2 C 41,8 km/h (6 Bft) 100,00 %
07.11.2017 22:54 7,6 C 7,2 C 87 % 1013,3 hPa 0,0 l/m 24,7 km/h (4 Bft) O-NO 70 0 min 0,000 mm 0,0 UV-I 0 W/m 5,6 C -1,3 C 35,4 km/h (5 Bft) 98,11 %
07.11.2017 22:56 7,6 C 7,2 C 87 % 1013,2 hPa 0,0 l/m 24,0 km/h (4 Bft) O-NO 75 0 min 0,000 mm 0,0 UV-I 0 W/m 5,6 C -1,1 C 32,2 km/h (5 Bft) 100,00 %
07.11.2017 22:58 7,6 C 7,2 C 87 % 1013,2 hPa 0,0 l/m 27,5 km/h (4 Bft) O-NO 76 0 min 0,000 mm 0,0 UV-I 0 W/m 5,6 C -2,1 C 40,2 km/h (6 Bft) 100,00 %
07.11.2017 23:00 7,6 C 7,2 C 87 % 1013,3 hPa 0,0 l/m 28,1 km/h (4 Bft) O 83 0 min 0,000 mm 0,0 UV-I 0 W/m 5,6 C -2,3 C 37,0 km/h (5 Bft) 98,00 %
07.11.2017 23:02 7,6 C 7,2 C 87 % 1013,2 hPa 0,0 l/m 24,6 km/h (4 Bft) NO 53 0 min 0,026 mm 0,0 UV-I 0 W/m 5,6 C -1,3 C 37,0 km/h (5 Bft) 100,00 %
07.11.2017 23:04 7,6 C 7,2 C 87 % 1013,2 hPa 0,0 l/m 23,2 km/h (4 Bft) O-NO 65 0 min 0,000 mm 0,0 UV-I 0 W/m 5,6 C -0,9 C 37,0 km/h (5 Bft) 98,21 %
07.11.2017 23:06 7,6 C 7,2 C 87 % 1013,2 hPa 0,0 l/m 24,2 km/h (4 Bft) O-NO 76 0 min 0,000 mm 0,0 UV-I 0 W/m 5,6 C -1,2 C 33,8 km/h (5 Bft) 100,00 %
07.11.2017 23:08 7,6 C 7,2 C 87 % 1013,1 hPa 0,0 l/m 19,5 km/h (3 Bft) O-NO 66 0 min 0,000 mm 0,0 UV-I 0 W/m 5,6 C 0,4 C 29,0 km/h (5 Bft) 98,21 %
07.11.2017 23:10 7,6 C 7,2 C 87 % 1013,1 hPa 0,0 l/m 21,9 km/h (4 Bft) NO 49 0 min 0,000 mm 0,0 UV-I 0 W/m 5,6 C -0,5 C 30,6 km/h (5 Bft) 100,00 %
07.11.2017 23:12 7,5 C 7,2 C 88 % 1013,3 hPa 0,0 l/m 19,3 km/h (3 Bft) O-NO 58 0 min 0,000 mm 0,0 UV-I 0 W/m 5,6 C 0,3 C 27,4 km/h (4 Bft) 100,00 %
07.11.2017 23:14 7,5 C 7,2 C 88 % 1013,1 hPa 0,0 l/m 24,7 km/h (4 Bft) NO 56 0 min 0,000 mm 0,0 UV-I 0 W/m 5,6 C -1,5 C 33,8 km/h (5 Bft) 98,31 %
07.11.2017 23:16 7,5 C 7,2 C 88 % 1013,1 hPa 0,0 l/m 22,3 km/h (4 Bft) O-NO 76 0 min 0,000 mm 0,0 UV-I 0 W/m 5,6 C -0,7 C 35,4 km/h (5 Bft) 97,37 %
07.11.2017 23:18 7,5 C 7,2 C 88 % 1013,2 hPa 0,0 l/m 18,9 km/h (3 Bft) O-NO 59 0 min 0,000 mm 0,0 UV-I 0 W/m 5,6 C 0,5 C 29,0 km/h (5 Bft) 100,00 %
07.11.2017 23:20 7,5 C 7,2 C 88 % 1013,3 hPa 0,0 l/m 19,2 km/h (3 Bft) O-NO 57 0 min 0,000 mm 0,0 UV-I 0 W/m 5,6 C 0,4 C 30,6 km/h (5 Bft) 100,00 %
07.11.2017 23:22 7,5 C 7,2 C 88 % 1013,3 hPa 0,0 l/m 22,1 km/h (4 Bft) O-NO 66 0 min 0,000 mm 0,0 UV-I 0 W/m 5,6 C -0,7 C 32,2 km/h (5 Bft) 98,11 %
07.11.2017 23:24 7,4 C 7,2 C 88 % 1013,3 hPa 0,0 l/m 25,5 km/h (4 Bft) O 83 0 min 0,000 mm 0,0 UV-I 0 W/m 5,5 C -1,8 C 33,8 km/h (5 Bft) 94,74 %
07.11.2017 23:26 7,5 C 7,2 C 88 % 1013,2 hPa 0,0 l/m 24,8 km/h (4 Bft) O 82 0 min 0,000 mm 0,0 UV-I 0 W/m 5,6 C -1,5 C 33,8 km/h (5 Bft) 97,87 %
07.11.2017 23:28 7,5 C 7,2 C 88 % 1013,2 hPa 0,0 l/m 23,3 km/h (4 Bft) O-NO 59 0 min 0,000 mm 0,0 UV-I 0 W/m 5,6 C -1,0 C 33,8 km/h (5 Bft) 98,11 %
07.11.2017 23:30 7,5 C 7,2 C 88 % 1013,2 hPa 0,0 l/m 22,6 km/h (4 Bft) NO 43 0 min 0,000 mm 0,0 UV-I 0 W/m 5,6 C -0,8 C 33,8 km/h (5 Bft) 96,00 %
07.11.2017 23:32 7,4 C 7,2 C 88 % 1013,2 hPa 0,0 l/m 20,8 km/h (4 Bft) O 94 0 min 0,000 mm 0,0 UV-I 0 W/m 5,5 C -0,4 C 33,8 km/h (5 Bft) 95,83 %
07.11.2017 23:34 7,4 C 7,2 C 88 % 1013,1 hPa 0,0 l/m 22,8 km/h (4 Bft) O-NO 63 0 min 0,000 mm 0,0 UV-I 0 W/m 5,5 C -1,0 C 33,8 km/h (5 Bft) 97,14 %
07.11.2017 23:36 7,4 C 7,2 C 88 % 1013,1 hPa 0,0 l/m 23,8 km/h (4 Bft) O 79 0 min 0,000 mm 0,0 UV-I 0 W/m 5,5 C -1,3 C 37,0 km/h (5 Bft) 95,74 %
07.11.2017 23:38 7,4 C 7,2 C 88 % 1013,2 hPa 0,0 l/m 21,4 km/h (4 Bft) O 83 0 min 0,000 mm 0,0 UV-I 0 W/m 5,5 C -0,6 C 30,6 km/h (5 Bft) 100,00 %
07.11.2017 23:40 7,5 C 7,2 C 88 % 1013,2 hPa 0,0 l/m 25,8 km/h (4 Bft) O 79 0 min 0,000 mm 0,0 UV-I 0 W/m 5,6 C -1,8 C 35,4 km/h (5 Bft) 96,36 %
07.11.2017 23:42 7,5 C 7,2 C 88 % 1013,4 hPa 0,0 l/m 26,7 km/h (4 Bft) O-NO 73 0 min 0,000 mm 0,0 UV-I 0 W/m 5,6 C -2,0 C 35,4 km/h (5 Bft) 97,78 %
07.11.2017 23:44 7,5 C 7,2 C 88 % 1013,5 hPa 0,0 l/m 28,6 km/h (4 Bft) O-NO 60 0 min 0,000 mm 0,0 UV-I 0 W/m 5,6 C -2,5 C 37,0 km/h (5 Bft) 100,00 %
07.11.2017 23:46 7,5 C 7,2 C 88 % 1013,4 hPa 0,0 l/m 27,4 km/h (4 Bft) NO 50 0 min 0,000 mm 0,0 UV-I 0 W/m 5,6 C -2,2 C 40,2 km/h (6 Bft) 96,77 %
07.11.2017 23:48 7,5 C 7,2 C 88 % 1013,3 hPa 0,0 l/m 25,1 km/h (4 Bft) O 86 0 min 0,000 mm 0,0 UV-I 0 W/m 5,6 C -1,6 C 37,0 km/h (5 Bft) 97,87 %
07.11.2017 23:50 7,5 C 7,2 C 88 % 1013,3 hPa 0,0 l/m 26,8 km/h (4 Bft) O-NO 78 0 min 0,000 mm 0,0 UV-I 0 W/m 5,6 C -2,1 C 40,2 km/h (6 Bft) 94,00 %
07.11.2017 23:52 7,5 C 7,2 C 88 % 1013,4 hPa 0,0 l/m 28,9 km/h (5 Bft) O-NO 76 0 min 0,000 mm 0,0 UV-I 0 W/m 5,6 C -2,6 C 41,8 km/h (6 Bft) 98,00 %
07.11.2017 23:54 7,5 C 7,2 C 88 % 1013,3 hPa 0,0 l/m 24,7 km/h (4 Bft) NO 49 0 min 0,000 mm 0,0 UV-I 0 W/m 5,6 C -1,5 C 38,6 km/h (5 Bft) 97,73 %
07.11.2017 23:56 7,5 C 7,2 C 88 % 1013,3 hPa 0,0 l/m 25,5 km/h (4 Bft) O-NO 74 0 min 0,000 mm 0,0 UV-I 0 W/m 5,6 C -1,7 C 33,8 km/h (5 Bft) 92,68 %
07.11.2017 23:58 7,6 C 7,2 C 88 % 1013,2 hPa 0,0 l/m 28,0 km/h (4 Bft) O-NO 63 0 min 0,000 mm 0,0 UV-I 0 W/m 5,7 C -2,2 C 38,6 km/h (5 Bft) 87,50 %
_ Min-Zeit 00:02 00:00 19:06 22:40 - 00:44 - - - - - - 00:00 10:26 00:46 23:58
Minimum _ 3,5 C 7,2 C 86 % 1012,9 hPa - 0,0 km/h (0 Bft) - - - - - - 3,2 C -5,4 C 0,0 km/h (0 Bft) 87,50 %
_ Max-Zeit 19:14 00:00 00:28 00:00 01:52 10:26 - - 10:40 12:00 11:22 10:42 16:02 05:16 10:16 00:00
Maximum _ 7,8 C 7,2 C 98 % 1021,8 hPa 0,2 l/m 37,2 km/h
O-NO (5 Bft)
- - 2 min 0,127 mm 0,9 UV-I 281 W/m 6,2 C 4,2 C 53,1 km/h
O (7 Bft)
100,00 %
Durchschnitt _ 6,3 C 7,2 C 92 % 1017,5 hPa #0,4 l/m 19,1 km/h (3 Bft) O-NO - #32 min. #0,737 mm 0,7 UV-I 90 W/m 5,2 C -0,4 C 27,3 km/h (4 Bft) 98,01 %